<?xml version="1.0" encoding="UTF-8" standalone="no" ?><gpx xmlns="http://www.topografix.com/GPX/1/1" xmlns:gpxx="http://www.garmin.com/xmlschemas/GpxExtensions/v3" xmlns:wptx1="http://www.garmin.com/xmlschemas/WaypointExtension/v1" xmlns:gpxtpx="http://www.garmin.com/xmlschemas/TrackPointExtension/v1" creator="GuideVTT.com" version="1.1" xmlns:xsi="http://www.w3.org/2001/XMLSchema-instance" xsi:schemaLocation="http://www.topografix.com/GPX/1/1 http://www.topografix.com/GPX/1/1/gpx.xsd http://www.garmin.com/xmlschemas/GpxExtensions/v3 http://www8.garmin.com/xmlschemas/GpxExtensionsv3.xsd http://www.garmin.com/xmlschemas/WaypointExtension/v1 http://www8.garmin.com/xmlschemas/WaypointExtensionv1.xsd http://www.garmin.com/xmlschemas/TrackPointExtension/v1 http://www.garmin.com/xmlschemas/TrackPointExtensionv1.xsd">
<metadata><link href="http://www.garmin.com"><text>Garmin International</text></link><time>2013-06-22T15:13:50Z</time></metadata>
<trk><name>heremence-grimentz_2007.gpx</name><extensions><gpxx:TrackExtension><gpxx:DisplayColor>Cyan</gpxx:DisplayColor></gpxx:TrackExtension></extensions><trkseg>
<trkpt lat="46.18035846" lon="7.40489244"><ele>1208.514404</ele><time>2007-08-18T04:30:45Z</time></trkpt>
<trkpt lat="46.18028604" lon="7.40488163"><ele>1209.47583</ele><time>2007-08-18T04:31:04Z</time></trkpt>
<trkpt lat="46.18023450" lon="7.40477434"><ele>1208.995117</ele><time>2007-08-18T04:31:21Z</time></trkpt>
<trkpt lat="46.18012788" lon="7.40480376"><ele>1208.995117</ele><time>2007-08-18T04:31:29Z</time></trkpt>
<trkpt lat="46.17980685" lon="7.40481257"><ele>1206.591797</ele><time>2007-08-18T04:31:39Z</time></trkpt>
<trkpt lat="46.17974323" lon="7.40476537"><ele>1207.07251</ele><time>2007-08-18T04:31:40Z</time></trkpt>
<trkpt lat="46.17944274" lon="7.40461526"><ele>1208.033936</ele><time>2007-08-18T04:31:45Z</time></trkpt>
<trkpt lat="46.17862836" lon="7.40433672"><ele>1208.995117</ele><time>2007-08-18T04:31:59Z</time></trkpt>
<trkpt lat="46.17799116" lon="7.40417428"><ele>1209.956299</ele><time>2007-08-18T04:32:11Z</time></trkpt>
<trkpt lat="46.17727107" lon="7.40397203"><ele>1211.398438</ele><time>2007-08-18T04:32:24Z</time></trkpt>
<trkpt lat="46.17704099" lon="7.40387714"><ele>1211.398438</ele><time>2007-08-18T04:32:28Z</time></trkpt>
<trkpt lat="46.17650916" lon="7.40349527"><ele>1208.514404</ele><time>2007-08-18T04:32:35Z</time></trkpt>
<trkpt lat="46.17634345" lon="7.40338337"><ele>1205.149902</ele><time>2007-08-18T04:32:37Z</time></trkpt>
<trkpt lat="46.17618813" lon="7.40328480"><ele>1202.746582</ele><time>2007-08-18T04:32:39Z</time></trkpt>
<trkpt lat="46.17586702" lon="7.40301364"><ele>1200.343506</ele><time>2007-08-18T04:32:44Z</time></trkpt>
<trkpt lat="46.17558639" lon="7.40317608"><ele>1196.498291</ele><time>2007-08-18T04:32:48Z</time></trkpt>
<trkpt lat="46.17551607" lon="7.40324305"><ele>1196.97876</ele><time>2007-08-18T04:32:49Z</time></trkpt>
<trkpt lat="46.17520007" lon="7.40314943"><ele>1196.017578</ele><time>2007-08-18T04:32:55Z</time></trkpt>
<trkpt lat="46.17521726" lon="7.40289638"><ele>1196.017578</ele><time>2007-08-18T04:32:58Z</time></trkpt>
<trkpt lat="46.17503185" lon="7.40242884"><ele>1194.575195</ele><time>2007-08-18T04:33:08Z</time></trkpt>
<trkpt lat="46.17486455" lon="7.40200245"><ele>1195.055908</ele><time>2007-08-18T04:33:22Z</time></trkpt>
<trkpt lat="46.17459306" lon="7.40167924"><ele>1198.420654</ele><time>2007-08-18T04:33:35Z</time></trkpt>
<trkpt lat="46.17451167" lon="7.40156868"><ele>1199.862793</ele><time>2007-08-18T04:33:39Z</time></trkpt>
<trkpt lat="46.17427798" lon="7.40133240"><ele>1203.227295</ele><time>2007-08-18T04:33:51Z</time></trkpt>
<trkpt lat="46.17412467" lon="7.40103266"><ele>1204.188721</ele><time>2007-08-18T04:34:00Z</time></trkpt>
<trkpt lat="46.17410934" lon="7.40091096"><ele>1204.188721</ele><time>2007-08-18T04:34:02Z</time></trkpt>
<trkpt lat="46.17405812" lon="7.40063779"><ele>1204.188721</ele><time>2007-08-18T04:34:06Z</time></trkpt>
<trkpt lat="46.17397757" lon="7.40041483"><ele>1204.188721</ele><time>2007-08-18T04:34:09Z</time></trkpt>
<trkpt lat="46.17357767" lon="7.40019288"><ele>1204.669189</ele><time>2007-08-18T04:34:17Z</time></trkpt>
<trkpt lat="46.17320719" lon="7.40059739"><ele>1200.823975</ele><time>2007-08-18T04:34:26Z</time></trkpt>
<trkpt lat="46.17314776" lon="7.40065757"><ele>1201.304688</ele><time>2007-08-18T04:34:27Z</time></trkpt>
<trkpt lat="46.17292380" lon="7.40085857"><ele>1198.420654</ele><time>2007-08-18T04:34:30Z</time></trkpt>
<trkpt lat="46.17272766" lon="7.40097256"><ele>1197.459473</ele><time>2007-08-18T04:34:33Z</time></trkpt>
<trkpt lat="46.17260629" lon="7.40104197"><ele>1196.498291</ele><time>2007-08-18T04:34:35Z</time></trkpt>
<trkpt lat="46.17201746" lon="7.40125529"><ele>1194.094727</ele><time>2007-08-18T04:34:44Z</time></trkpt>
<trkpt lat="46.17182493" lon="7.40115319"><ele>1194.575195</ele><time>2007-08-18T04:34:47Z</time></trkpt>
<trkpt lat="46.17168286" lon="7.40089738"><ele>1193.133301</ele><time>2007-08-18T04:34:51Z</time></trkpt>
<trkpt lat="46.17164506" lon="7.40071264"><ele>1193.133301</ele><time>2007-08-18T04:34:53Z</time></trkpt>
<trkpt lat="46.17152335" lon="7.40045766"><ele>1191.210693</ele><time>2007-08-18T04:34:56Z</time></trkpt>
<trkpt lat="46.17137382" lon="7.40028676"><ele>1192.172119</ele><time>2007-08-18T04:34:59Z</time></trkpt>
<trkpt lat="46.17123032" lon="7.40016866"><ele>1193.133301</ele><time>2007-08-18T04:35:03Z</time></trkpt>
<trkpt lat="46.17095028" lon="7.39998082"><ele>1195.055908</ele><time>2007-08-18T04:35:15Z</time></trkpt>
<trkpt lat="46.17084257" lon="7.39991074"><ele>1198.901367</ele><time>2007-08-18T04:35:24Z</time></trkpt>
<trkpt lat="46.17082246" lon="7.39990178"><ele>1199.38208</ele><time>2007-08-18T04:35:25Z</time></trkpt>
<trkpt lat="46.17061886" lon="7.39976792"><ele>1202.265869</ele><time>2007-08-18T04:35:35Z</time></trkpt>
<trkpt lat="46.17051786" lon="7.39959114"><ele>1205.149902</ele><time>2007-08-18T04:35:48Z</time></trkpt>
<trkpt lat="46.17028845" lon="7.39934765"><ele>1208.033936</ele><time>2007-08-18T04:36:07Z</time></trkpt>
<trkpt lat="46.17009675" lon="7.39910482"><ele>1209.956299</ele><time>2007-08-18T04:36:23Z</time></trkpt>
<trkpt lat="46.16995694" lon="7.39899578"><ele>1213.321289</ele><time>2007-08-18T04:36:33Z</time></trkpt>
<trkpt lat="46.16984010" lon="7.39886653"><ele>1217.166504</ele><time>2007-08-18T04:36:43Z</time></trkpt>
<trkpt lat="46.16975712" lon="7.39851625"><ele>1220.050293</ele><time>2007-08-18T04:36:57Z</time></trkpt>
<trkpt lat="46.16956769" lon="7.39838960"><ele>1222.934326</ele><time>2007-08-18T04:37:07Z</time></trkpt>
<trkpt lat="46.16920374" lon="7.39815390"><ele>1226.298828</ele><time>2007-08-18T04:37:22Z</time></trkpt>
<trkpt lat="46.16918614" lon="7.39813219"><ele>1226.298828</ele><time>2007-08-18T04:37:23Z</time></trkpt>
<trkpt lat="46.16881809" lon="7.39787336"><ele>1229.663574</ele><time>2007-08-18T04:37:39Z</time></trkpt>
<trkpt lat="46.16869848" lon="7.39761092"><ele>1231.105713</ele><time>2007-08-18T04:37:47Z</time></trkpt>
<trkpt lat="46.16857594" lon="7.39753087"><ele>1232.066895</ele><time>2007-08-18T04:37:53Z</time></trkpt>
<trkpt lat="46.16831107" lon="7.39724748"><ele>1234.470215</ele><time>2007-08-18T04:38:06Z</time></trkpt>
<trkpt lat="46.16795576" lon="7.39708822"><ele>1235.912109</ele><time>2007-08-18T04:38:17Z</time></trkpt>
<trkpt lat="46.16749006" lon="7.39687013"><ele>1238.796143</ele><time>2007-08-18T04:38:30Z</time></trkpt>
<trkpt lat="46.16700458" lon="7.39672445"><ele>1242.160645</ele><time>2007-08-18T04:38:43Z</time></trkpt>
<trkpt lat="46.16635499" lon="7.39646444"><ele>1245.525391</ele><time>2007-08-18T04:39:01Z</time></trkpt>
<trkpt lat="46.16592575" lon="7.39665463"><ele>1247.928711</ele><time>2007-08-18T04:39:14Z</time></trkpt>
<trkpt lat="46.16584394" lon="7.39667558"><ele>1246.967285</ele><time>2007-08-18T04:39:16Z</time></trkpt>
<trkpt lat="46.16561746" lon="7.39660878"><ele>1248.40918</ele><time>2007-08-18T04:39:24Z</time></trkpt>
<trkpt lat="46.16557983" lon="7.39658548"><ele>1249.370605</ele><time>2007-08-18T04:39:28Z</time></trkpt>
<trkpt lat="46.16591536" lon="7.39648959"><ele>1252.735107</ele><time>2007-08-18T04:39:40Z</time></trkpt>
<trkpt lat="46.16629128" lon="7.39625707"><ele>1256.099609</ele><time>2007-08-18T04:39:51Z</time></trkpt>
<trkpt lat="46.16681213" lon="7.39624106"><ele>1259.464355</ele><time>2007-08-18T04:40:06Z</time></trkpt>
<trkpt lat="46.16690643" lon="7.39623989"><ele>1259.944824</ele><time>2007-08-18T04:40:10Z</time></trkpt>
<trkpt lat="46.16668104" lon="7.39616127"><ele>1260.425781</ele><time>2007-08-18T04:40:17Z</time></trkpt>
<trkpt lat="46.16589457" lon="7.39628423"><ele>1260.425781</ele><time>2007-08-18T04:40:31Z</time></trkpt>
<trkpt lat="46.16567857" lon="7.39634248"><ele>1259.944824</ele><time>2007-08-18T04:40:34Z</time></trkpt>
<trkpt lat="46.16528839" lon="7.39625464"><ele>1260.425781</ele><time>2007-08-18T04:40:40Z</time></trkpt>
<trkpt lat="46.16498714" lon="7.39570705"><ele>1257.541748</ele><time>2007-08-18T04:40:47Z</time></trkpt>
<trkpt lat="46.16479059" lon="7.39546364"><ele>1256.580322</ele><time>2007-08-18T04:40:50Z</time></trkpt>
<trkpt lat="46.16450133" lon="7.39489987"><ele>1256.099609</ele><time>2007-08-18T04:40:56Z</time></trkpt>
<trkpt lat="46.16420754" lon="7.39472503"><ele>1253.696533</ele><time>2007-08-18T04:41:01Z</time></trkpt>
<trkpt lat="46.16414317" lon="7.39481404"><ele>1252.735107</ele><time>2007-08-18T04:41:02Z</time></trkpt>
<trkpt lat="46.16374570" lon="7.39517673"><ele>1248.40918</ele><time>2007-08-18T04:41:07Z</time></trkpt>
<trkpt lat="46.16365216" lon="7.39524236"><ele>1248.40918</ele><time>2007-08-18T04:41:08Z</time></trkpt>
<trkpt lat="46.16323516" lon="7.39561980"><ele>1248.40918</ele><time>2007-08-18T04:41:13Z</time></trkpt>
<trkpt lat="46.16299569" lon="7.39571460"><ele>1250.332031</ele><time>2007-08-18T04:41:17Z</time></trkpt>
<trkpt lat="46.16288773" lon="7.39571149"><ele>1252.254395</ele><time>2007-08-18T04:41:19Z</time></trkpt>
<trkpt lat="46.16253485" lon="7.39557068"><ele>1255.619141</ele><time>2007-08-18T04:41:27Z</time></trkpt>
<trkpt lat="46.16237869" lon="7.39548510"><ele>1258.50293</ele><time>2007-08-18T04:41:32Z</time></trkpt>
<trkpt lat="46.16209757" lon="7.39540312"><ele>1258.50293</ele><time>2007-08-18T04:41:38Z</time></trkpt>
<trkpt lat="46.16193789" lon="7.39526306"><ele>1260.425781</ele><time>2007-08-18T04:41:42Z</time></trkpt>
<trkpt lat="46.16186472" lon="7.39515628"><ele>1260.425781</ele><time>2007-08-18T04:41:44Z</time></trkpt>
<trkpt lat="46.16168065" lon="7.39502954"><ele>1261.387207</ele><time>2007-08-18T04:41:48Z</time></trkpt>
<trkpt lat="46.16134613" lon="7.39494774"><ele>1262.829102</ele><time>2007-08-18T04:41:55Z</time></trkpt>
<trkpt lat="46.16119928" lon="7.39483508"><ele>1263.790283</ele><time>2007-08-18T04:41:59Z</time></trkpt>
<trkpt lat="46.16081430" lon="7.39434684"><ele>1260.425781</ele><time>2007-08-18T04:42:07Z</time></trkpt>
<trkpt lat="46.16021113" lon="7.39376882"><ele>1261.387207</ele><time>2007-08-18T04:42:18Z</time></trkpt>
<trkpt lat="46.15981568" lon="7.39372029"><ele>1264.751709</ele><time>2007-08-18T04:42:28Z</time></trkpt>
<trkpt lat="46.15969565" lon="7.39373462"><ele>1266.193604</ele><time>2007-08-18T04:42:32Z</time></trkpt>
<trkpt lat="46.15938334" lon="7.39374954"><ele>1269.077637</ele><time>2007-08-18T04:42:43Z</time></trkpt>
<trkpt lat="46.15924604" lon="7.39372825"><ele>1271.000244</ele><time>2007-08-18T04:42:49Z</time></trkpt>
<trkpt lat="46.15917605" lon="7.39368509"><ele>1271.961426</ele><time>2007-08-18T04:42:53Z</time></trkpt>
<trkpt lat="46.15900607" lon="7.39350848"><ele>1275.806641</ele><time>2007-08-18T04:43:04Z</time></trkpt>
<trkpt lat="46.15898956" lon="7.39349649"><ele>1275.806641</ele><time>2007-08-18T04:43:05Z</time></trkpt>
<trkpt lat="46.15892703" lon="7.39343304"><ele>1277.729492</ele><time>2007-08-18T04:43:10Z</time></trkpt>
<trkpt lat="46.15878596" lon="7.39326809"><ele>1282.05542</ele><time>2007-08-18T04:43:21Z</time></trkpt>
<trkpt lat="46.15877314" lon="7.39325082"><ele>1282.05542</ele><time>2007-08-18T04:43:22Z</time></trkpt>
<trkpt lat="46.15873106" lon="7.39317220"><ele>1283.497314</ele><time>2007-08-18T04:43:26Z</time></trkpt>
<trkpt lat="46.15870189" lon="7.39287984"><ele>1286.381348</ele><time>2007-08-18T04:43:38Z</time></trkpt>
<trkpt lat="46.15873273" lon="7.39284547"><ele>1286.861816</ele><time>2007-08-18T04:43:40Z</time></trkpt>
<trkpt lat="46.15895536" lon="7.39303054"><ele>1288.784668</ele><time>2007-08-18T04:43:51Z</time></trkpt>
<trkpt lat="46.15912383" lon="7.39320229"><ele>1290.226563</ele><time>2007-08-18T04:43:57Z</time></trkpt>
<trkpt lat="46.15950194" lon="7.39337244"><ele>1288.784668</ele><time>2007-08-18T04:44:05Z</time></trkpt>
<trkpt lat="46.15956455" lon="7.39318863"><ele>1288.303955</ele><time>2007-08-18T04:44:11Z</time></trkpt>
<trkpt lat="46.15948300" lon="7.39315015"><ele>1289.265137</ele><time>2007-08-18T04:44:13Z</time></trkpt>
<trkpt lat="46.15925375" lon="7.39314722"><ele>1290.226563</ele><time>2007-08-18T04:44:17Z</time></trkpt>
<trkpt lat="46.15884438" lon="7.39298478"><ele>1291.668457</ele><time>2007-08-18T04:44:23Z</time></trkpt>
<trkpt lat="46.15866099" lon="7.39294178"><ele>1292.149414</ele><time>2007-08-18T04:44:26Z</time></trkpt>
<trkpt lat="46.15850265" lon="7.39296986"><ele>1292.630127</ele><time>2007-08-18T04:44:29Z</time></trkpt>
<trkpt lat="46.15835194" lon="7.39310548"><ele>1293.110596</ele><time>2007-08-18T04:44:32Z</time></trkpt>
<trkpt lat="46.15818162" lon="7.39301277"><ele>1293.110596</ele><time>2007-08-18T04:44:35Z</time></trkpt>
<trkpt lat="46.15799429" lon="7.39274145"><ele>1294.55249</ele><time>2007-08-18T04:44:39Z</time></trkpt>
<trkpt lat="46.15716733" lon="7.39250097"><ele>1295.994629</ele><time>2007-08-18T04:44:53Z</time></trkpt>
<trkpt lat="46.15629192" lon="7.39209487"><ele>1298.878418</ele><time>2007-08-18T04:45:09Z</time></trkpt>
<trkpt lat="46.15570955" lon="7.39179857"><ele>1300.320557</ele><time>2007-08-18T04:45:19Z</time></trkpt>
<trkpt lat="46.15547259" lon="7.39167955"><ele>1300.801025</ele><time>2007-08-18T04:45:23Z</time></trkpt>
<trkpt lat="46.15444195" lon="7.39117144"><ele>1300.801025</ele><time>2007-08-18T04:45:39Z</time></trkpt>
<trkpt lat="46.15377962" lon="7.39075737"><ele>1304.165771</ele><time>2007-08-18T04:45:50Z</time></trkpt>
<trkpt lat="46.15359739" lon="7.39069342"><ele>1304.64624</ele><time>2007-08-18T04:45:53Z</time></trkpt>
<trkpt lat="46.15337125" lon="7.39052620"><ele>1305.126953</ele><time>2007-08-18T04:45:57Z</time></trkpt>
<trkpt lat="46.15267379" lon="7.39040726"><ele>1306.088135</ele><time>2007-08-18T04:46:08Z</time></trkpt>
<trkpt lat="46.15189545" lon="7.39036233"><ele>1308.972412</ele><time>2007-08-18T04:46:22Z</time></trkpt>
<trkpt lat="46.15124853" lon="7.39037633"><ele>1312.336914</ele><time>2007-08-18T04:46:34Z</time></trkpt>
<trkpt lat="46.15061344" lon="7.39060700"><ele>1315.70166</ele><time>2007-08-18T04:46:46Z</time></trkpt>
<trkpt lat="46.14964969" lon="7.39077497"><ele>1319.066162</ele><time>2007-08-18T04:47:05Z</time></trkpt>
<trkpt lat="46.14917259" lon="7.39073122"><ele>1322.430664</ele><time>2007-08-18T04:47:16Z</time></trkpt>
<trkpt lat="46.14886187" lon="7.39067389"><ele>1324.834229</ele><time>2007-08-18T04:47:24Z</time></trkpt>
<trkpt lat="46.14840212" lon="7.39058127"><ele>1328.19873</ele><time>2007-08-18T04:47:38Z</time></trkpt>
<trkpt lat="46.14809199" lon="7.39053047"><ele>1331.563232</ele><time>2007-08-18T04:47:48Z</time></trkpt>
<trkpt lat="46.14770165" lon="7.39049359"><ele>1334.927979</ele><time>2007-08-18T04:48:02Z</time></trkpt>
<trkpt lat="46.14751356" lon="7.39057096"><ele>1337.331055</ele><time>2007-08-18T04:48:10Z</time></trkpt>
<trkpt lat="46.14731818" lon="7.39070674"><ele>1340.215332</ele><time>2007-08-18T04:48:19Z</time></trkpt>
<trkpt lat="46.14690713" lon="7.39088293"><ele>1343.579834</ele><time>2007-08-18T04:48:34Z</time></trkpt>
<trkpt lat="46.14651594" lon="7.39082602"><ele>1346.944336</ele><time>2007-08-18T04:48:49Z</time></trkpt>
<trkpt lat="46.14621679" lon="7.39070314"><ele>1349.828369</ele><time>2007-08-18T04:49:01Z</time></trkpt>
<trkpt lat="46.14616776" lon="7.39068353"><ele>1350.789551</ele><time>2007-08-18T04:49:03Z</time></trkpt>
<trkpt lat="46.14578797" lon="7.39058194"><ele>1353.673584</ele><time>2007-08-18T04:49:18Z</time></trkpt>
<trkpt lat="46.14542194" lon="7.39060247"><ele>1357.03833</ele><time>2007-08-18T04:49:32Z</time></trkpt>
<trkpt lat="46.14513477" lon="7.39064539"><ele>1360.402832</ele><time>2007-08-18T04:49:43Z</time></trkpt>
<trkpt lat="46.14479749" lon="7.39065654"><ele>1363.286865</ele><time>2007-08-18T04:49:56Z</time></trkpt>
<trkpt lat="46.14455852" lon="7.39064120"><ele>1366.651367</ele><time>2007-08-18T04:50:05Z</time></trkpt>
<trkpt lat="46.14420698" lon="7.39055176"><ele>1370.015869</ele><time>2007-08-18T04:50:19Z</time></trkpt>
<trkpt lat="46.14418108" lon="7.39054522"><ele>1370.496582</ele><time>2007-08-18T04:50:20Z</time></trkpt>
<trkpt lat="46.14381387" lon="7.39040944"><ele>1373.380859</ele><time>2007-08-18T04:50:35Z</time></trkpt>
<trkpt lat="46.14345437" lon="7.39023426"><ele>1376.264648</ele><time>2007-08-18T04:50:50Z</time></trkpt>
<trkpt lat="46.14319185" lon="7.39012915"><ele>1379.62915</ele><time>2007-08-18T04:51:01Z</time></trkpt>
<trkpt lat="46.14282858" lon="7.39005052"><ele>1382.993652</ele><time>2007-08-18T04:51:15Z</time></trkpt>
<trkpt lat="46.14253504" lon="7.39001817"><ele>1385.877686</ele><time>2007-08-18T04:51:27Z</time></trkpt>
<trkpt lat="46.14221108" lon="7.38997400"><ele>1389.242432</ele><time>2007-08-18T04:51:40Z</time></trkpt>
<trkpt lat="46.14198938" lon="7.38989512"><ele>1392.126465</ele><time>2007-08-18T04:51:50Z</time></trkpt>
<trkpt lat="46.14163122" lon="7.38975557"><ele>1395.490967</ele><time>2007-08-18T04:52:07Z</time></trkpt>
<trkpt lat="46.14155553" lon="7.38971466"><ele>1396.452393</ele><time>2007-08-18T04:52:11Z</time></trkpt>
<trkpt lat="46.14161965" lon="7.38965222"><ele>1398.374756</ele><time>2007-08-18T04:52:18Z</time></trkpt>
<trkpt lat="46.14195929" lon="7.38963847"><ele>1401.739502</ele><time>2007-08-18T04:52:34Z</time></trkpt>
<trkpt lat="46.14224863" lon="7.38956588"><ele>1405.104248</ele><time>2007-08-18T04:52:47Z</time></trkpt>
<trkpt lat="46.14263336" lon="7.38926288"><ele>1408.46875</ele><time>2007-08-18T04:53:06Z</time></trkpt>
<trkpt lat="46.14295875" lon="7.38906045"><ele>1411.833496</ele><time>2007-08-18T04:53:21Z</time></trkpt>
<trkpt lat="46.14323719" lon="7.38910245"><ele>1414.717285</ele><time>2007-08-18T04:53:33Z</time></trkpt>
<trkpt lat="46.14358949" lon="7.38912089"><ele>1418.081787</ele><time>2007-08-18T04:53:46Z</time></trkpt>
<trkpt lat="46.14392929" lon="7.38893548"><ele>1420.966064</ele><time>2007-08-18T04:54:01Z</time></trkpt>
<trkpt lat="46.14415208" lon="7.38888309"><ele>1423.849854</ele><time>2007-08-18T04:54:10Z</time></trkpt>
<trkpt lat="46.14417932" lon="7.38887857"><ele>1423.849854</ele><time>2007-08-18T04:54:11Z</time></trkpt>
<trkpt lat="46.14465893" lon="7.38890866"><ele>1427.2146</ele><time>2007-08-18T04:54:29Z</time></trkpt>
<trkpt lat="46.14499345" lon="7.38888863"><ele>1430.579102</ele><time>2007-08-18T04:54:43Z</time></trkpt>
<trkpt lat="46.14533837" lon="7.38874429"><ele>1434.424316</ele><time>2007-08-18T04:54:59Z</time></trkpt>
<trkpt lat="46.14563660" lon="7.38859224"><ele>1436.827637</ele><time>2007-08-18T04:55:11Z</time></trkpt>
<trkpt lat="46.14589149" lon="7.38839468"><ele>1440.192383</ele><time>2007-08-18T04:55:23Z</time></trkpt>
<trkpt lat="46.14621914" lon="7.38788917"><ele>1443.556885</ele><time>2007-08-18T04:55:42Z</time></trkpt>
<trkpt lat="46.14644595" lon="7.38759329"><ele>1446.440918</ele><time>2007-08-18T04:55:55Z</time></trkpt>
<trkpt lat="46.14653287" lon="7.38748340"><ele>1448.363281</ele><time>2007-08-18T04:56:00Z</time></trkpt>
<trkpt lat="46.14642165" lon="7.38743755"><ele>1449.80542</ele><time>2007-08-18T04:56:09Z</time></trkpt>
<trkpt lat="46.14634562" lon="7.38751978"><ele>1451.247314</ele><time>2007-08-18T04:56:13Z</time></trkpt>
<trkpt lat="46.14628712" lon="7.38757568"><ele>1451.728027</ele><time>2007-08-18T04:56:17Z</time></trkpt>
<trkpt lat="46.14615343" lon="7.38768758"><ele>1455.092773</ele><time>2007-08-18T04:56:29Z</time></trkpt>
<trkpt lat="46.14589828" lon="7.38780719"><ele>1457.976807</ele><time>2007-08-18T04:56:41Z</time></trkpt>
<trkpt lat="46.14587976" lon="7.38782044"><ele>1458.457275</ele><time>2007-08-18T04:56:42Z</time></trkpt>
<trkpt lat="46.14568404" lon="7.38790518"><ele>1461.341309</ele><time>2007-08-18T04:56:54Z</time></trkpt>
<trkpt lat="46.14546502" lon="7.38796268"><ele>1465.186523</ele><time>2007-08-18T04:57:07Z</time></trkpt>
<trkpt lat="46.14544138" lon="7.38796427"><ele>1465.186523</ele><time>2007-08-18T04:57:08Z</time></trkpt>
<trkpt lat="46.14518347" lon="7.38787777"><ele>1467.109131</ele><time>2007-08-18T04:57:23Z</time></trkpt>
<trkpt lat="46.14505925" lon="7.38781549"><ele>1469.512695</ele><time>2007-08-18T04:57:31Z</time></trkpt>
<trkpt lat="46.14480092" lon="7.38767727"><ele>1472.877197</ele><time>2007-08-18T04:57:49Z</time></trkpt>
<trkpt lat="46.14463789" lon="7.38757493"><ele>1476.241699</ele><time>2007-08-18T04:58:01Z</time></trkpt>
<trkpt lat="46.14458115" lon="7.38753528"><ele>1477.683594</ele><time>2007-08-18T04:58:06Z</time></trkpt>
<trkpt lat="46.14445609" lon="7.38746907"><ele>1480.086914</ele><time>2007-08-18T04:58:15Z</time></trkpt>
<trkpt lat="46.14425040" lon="7.38743579"><ele>1482.970703</ele><time>2007-08-18T04:58:26Z</time></trkpt>
<trkpt lat="46.14413724" lon="7.38741375"><ele>1484.413086</ele><time>2007-08-18T04:58:34Z</time></trkpt>
<trkpt lat="46.14399743" lon="7.38742976"><ele>1486.335693</ele><time>2007-08-18T04:58:44Z</time></trkpt>
<trkpt lat="46.14397430" lon="7.38743579"><ele>1486.335693</ele><time>2007-08-18T04:58:46Z</time></trkpt>
<trkpt lat="46.14385645" lon="7.38743185"><ele>1490.180908</ele><time>2007-08-18T04:58:55Z</time></trkpt>
<trkpt lat="46.14384430" lon="7.38742732"><ele>1490.180908</ele><time>2007-08-18T04:58:56Z</time></trkpt>
<trkpt lat="46.14382569" lon="7.38740997"><ele>1491.14209</ele><time>2007-08-18T04:58:58Z</time></trkpt>
<trkpt lat="46.14390180" lon="7.38730839"><ele>1493.064697</ele><time>2007-08-18T04:59:07Z</time></trkpt>
<trkpt lat="46.14395435" lon="7.38730336"><ele>1494.026123</ele><time>2007-08-18T04:59:10Z</time></trkpt>
<trkpt lat="46.14417748" lon="7.38711074"><ele>1495.94873</ele><time>2007-08-18T04:59:26Z</time></trkpt>
<trkpt lat="46.14439524" lon="7.38697948"><ele>1498.83252</ele><time>2007-08-18T04:59:40Z</time></trkpt>
<trkpt lat="46.14455877" lon="7.38693405"><ele>1502.197266</ele><time>2007-08-18T04:59:51Z</time></trkpt>
<trkpt lat="46.14470637" lon="7.38683565"><ele>1504.600586</ele><time>2007-08-18T05:00:03Z</time></trkpt>
<trkpt lat="46.14487376" lon="7.38683112"><ele>1507.003906</ele><time>2007-08-18T05:00:14Z</time></trkpt>
<trkpt lat="46.14500536" lon="7.38678703"><ele>1508.445801</ele><time>2007-08-18T05:00:21Z</time></trkpt>
<trkpt lat="46.14527609" lon="7.38668913"><ele>1512.291016</ele><time>2007-08-18T05:00:34Z</time></trkpt>
<trkpt lat="46.14549327" lon="7.38646584"><ele>1515.655762</ele><time>2007-08-18T05:00:48Z</time></trkpt>
<trkpt lat="46.14563484" lon="7.38625126"><ele>1518.539795</ele><time>2007-08-18T05:01:02Z</time></trkpt>
<trkpt lat="46.14564079" lon="7.38625629"><ele>1518.539795</ele><time>2007-08-18T05:01:07Z</time></trkpt>
<trkpt lat="46.14552696" lon="7.38637456"><ele>1519.020508</ele><time>2007-08-18T05:01:13Z</time></trkpt>
<trkpt lat="46.14541540" lon="7.38648428"><ele>1518.539795</ele><time>2007-08-18T05:01:16Z</time></trkpt>
<trkpt lat="46.14511600" lon="7.38656667"><ele>1519.020508</ele><time>2007-08-18T05:01:21Z</time></trkpt>
<trkpt lat="46.14495448" lon="7.38652560"><ele>1519.020508</ele><time>2007-08-18T05:01:24Z</time></trkpt>
<trkpt lat="46.14478684" lon="7.38648947"><ele>1519.981689</ele><time>2007-08-18T05:01:27Z</time></trkpt>
<trkpt lat="46.14457268" lon="7.38647858"><ele>1519.020508</ele><time>2007-08-18T05:01:31Z</time></trkpt>
<trkpt lat="46.14415082" lon="7.38661336"><ele>1519.020508</ele><time>2007-08-18T05:01:38Z</time></trkpt>
<trkpt lat="46.14377866" lon="7.38692525"><ele>1515.655762</ele><time>2007-08-18T05:01:44Z</time></trkpt>
<trkpt lat="46.14370759" lon="7.38694444"><ele>1515.175049</ele><time>2007-08-18T05:01:45Z</time></trkpt>
<trkpt lat="46.14332789" lon="7.38709314"><ele>1511.329834</ele><time>2007-08-18T05:01:50Z</time></trkpt>
<trkpt lat="46.14318967" lon="7.38721065"><ele>1510.368408</ele><time>2007-08-18T05:01:52Z</time></trkpt>
<trkpt lat="46.14291726" lon="7.38743302"><ele>1507.484619</ele><time>2007-08-18T05:01:56Z</time></trkpt>
<trkpt lat="46.14268365" lon="7.38745356"><ele>1506.523193</ele><time>2007-08-18T05:01:59Z</time></trkpt>
<trkpt lat="46.14244569" lon="7.38752564"><ele>1505.562012</ele><time>2007-08-18T05:02:02Z</time></trkpt>
<trkpt lat="46.14182216" lon="7.38775925"><ele>1504.600586</ele><time>2007-08-18T05:02:10Z</time></trkpt>
<trkpt lat="46.14175284" lon="7.38779219"><ele>1504.120117</ele><time>2007-08-18T05:02:11Z</time></trkpt>
<trkpt lat="46.14126175" lon="7.38789378"><ele>1505.081299</ele><time>2007-08-18T05:02:18Z</time></trkpt>
<trkpt lat="46.14085950" lon="7.38791398"><ele>1505.562012</ele><time>2007-08-18T05:02:24Z</time></trkpt>
<trkpt lat="46.14023186" lon="7.38789772"><ele>1509.407227</ele><time>2007-08-18T05:02:37Z</time></trkpt>
<trkpt lat="46.13993456" lon="7.38789663"><ele>1511.810547</ele><time>2007-08-18T05:02:46Z</time></trkpt>
<trkpt lat="46.13963415" lon="7.38788590"><ele>1514.694336</ele><time>2007-08-18T05:02:56Z</time></trkpt>
<trkpt lat="46.13957866" lon="7.38789872"><ele>1515.175049</ele><time>2007-08-18T05:02:58Z</time></trkpt>
<trkpt lat="46.13932955" lon="7.38799838"><ele>1518.539795</ele><time>2007-08-18T05:03:09Z</time></trkpt>
<trkpt lat="46.13930608" lon="7.38801062"><ele>1518.539795</ele><time>2007-08-18T05:03:10Z</time></trkpt>
<trkpt lat="46.13882890" lon="7.38822034"><ele>1521.423584</ele><time>2007-08-18T05:03:27Z</time></trkpt>
<trkpt lat="46.13850544" lon="7.38814934"><ele>1522.865723</ele><time>2007-08-18T05:03:36Z</time></trkpt>
<trkpt lat="46.13828424" lon="7.38818170"><ele>1522.38501</ele><time>2007-08-18T05:03:41Z</time></trkpt>
<trkpt lat="46.13805098" lon="7.38834598"><ele>1523.346436</ele><time>2007-08-18T05:03:46Z</time></trkpt>
<trkpt lat="46.13730423" lon="7.38867857"><ele>1522.38501</ele><time>2007-08-18T05:03:59Z</time></trkpt>
<trkpt lat="46.13678254" lon="7.38866935"><ele>1523.826904</ele><time>2007-08-18T05:04:07Z</time></trkpt>
<trkpt lat="46.13646084" lon="7.38873214"><ele>1524.78833</ele><time>2007-08-18T05:04:12Z</time></trkpt>
<trkpt lat="46.13602834" lon="7.38854354"><ele>1524.78833</ele><time>2007-08-18T05:04:19Z</time></trkpt>
<trkpt lat="46.13577252" lon="7.38852443"><ele>1525.749512</ele><time>2007-08-18T05:04:23Z</time></trkpt>
<trkpt lat="46.13507649" lon="7.38867388"><ele>1525.268799</ele><time>2007-08-18T05:04:33Z</time></trkpt>
<trkpt lat="46.13481548" lon="7.38853508"><ele>1525.268799</ele><time>2007-08-18T05:04:37Z</time></trkpt>
<trkpt lat="46.13445212" lon="7.38831447"><ele>1525.749512</ele><time>2007-08-18T05:04:43Z</time></trkpt>
<trkpt lat="46.13434886" lon="7.38822830"><ele>1526.230225</ele><time>2007-08-18T05:04:45Z</time></trkpt>
<trkpt lat="46.13418398" lon="7.38824473"><ele>1525.749512</ele><time>2007-08-18T05:04:49Z</time></trkpt>
<trkpt lat="46.13388752" lon="7.38855888"><ele>1526.230225</ele><time>2007-08-18T05:04:56Z</time></trkpt>
<trkpt lat="46.13372315" lon="7.38879316"><ele>1526.710938</ele><time>2007-08-18T05:05:00Z</time></trkpt>
<trkpt lat="46.13357387" lon="7.38914067"><ele>1527.19165</ele><time>2007-08-18T05:05:05Z</time></trkpt>
<trkpt lat="46.13340447" lon="7.38936447"><ele>1526.710938</ele><time>2007-08-18T05:05:09Z</time></trkpt>
<trkpt lat="46.13311454" lon="7.38951115"><ele>1526.230225</ele><time>2007-08-18T05:05:14Z</time></trkpt>
<trkpt lat="46.13218004" lon="7.38994743"><ele>1526.230225</ele><time>2007-08-18T05:05:29Z</time></trkpt>
<trkpt lat="46.13192883" lon="7.39001566"><ele>1527.672119</ele><time>2007-08-18T05:05:33Z</time></trkpt>
<trkpt lat="46.13178852" lon="7.39001515"><ele>1529.114014</ele><time>2007-08-18T05:05:35Z</time></trkpt>
<trkpt lat="46.13150018" lon="7.39016938"><ele>1528.633545</ele><time>2007-08-18T05:05:39Z</time></trkpt>
<trkpt lat="46.13137085" lon="7.39028882"><ele>1529.594727</ele><time>2007-08-18T05:05:41Z</time></trkpt>
<trkpt lat="46.13124856" lon="7.39038236"><ele>1528.633545</ele><time>2007-08-18T05:05:43Z</time></trkpt>
<trkpt lat="46.13105209" lon="7.39052787"><ele>1528.152832</ele><time>2007-08-18T05:05:47Z</time></trkpt>
<trkpt lat="46.13072217" lon="7.39061756"><ele>1530.556152</ele><time>2007-08-18T05:05:58Z</time></trkpt>
<trkpt lat="46.13038925" lon="7.39062519"><ele>1531.998047</ele><time>2007-08-18T05:06:10Z</time></trkpt>
<trkpt lat="46.13005850" lon="7.39063592"><ele>1531.517334</ele><time>2007-08-18T05:06:21Z</time></trkpt>
<trkpt lat="46.12976622" lon="7.39070473"><ele>1530.075439</ele><time>2007-08-18T05:06:25Z</time></trkpt>
<trkpt lat="46.12930966" lon="7.39058722"><ele>1527.672119</ele><time>2007-08-18T05:06:33Z</time></trkpt>
<trkpt lat="46.12888226" lon="7.39021280"><ele>1529.114014</ele><time>2007-08-18T05:06:45Z</time></trkpt>
<trkpt lat="46.12891093" lon="7.39043618"><ele>1527.672119</ele><time>2007-08-18T05:06:51Z</time></trkpt>
<trkpt lat="46.12907270" lon="7.39060038"><ele>1525.749512</ele><time>2007-08-18T05:06:57Z</time></trkpt>
<trkpt lat="46.12899466" lon="7.39071613"><ele>1524.78833</ele><time>2007-08-18T05:07:02Z</time></trkpt>
<trkpt lat="46.12903548" lon="7.39096826"><ele>1524.307617</ele><time>2007-08-18T05:07:09Z</time></trkpt>
<trkpt lat="46.12904906" lon="7.39098159"><ele>1523.826904</ele><time>2007-08-18T05:07:10Z</time></trkpt>
<trkpt lat="46.12914026" lon="7.39111444"><ele>1525.268799</ele><time>2007-08-18T05:07:21Z</time></trkpt>
<trkpt lat="46.12916373" lon="7.39113447"><ele>1525.749512</ele><time>2007-08-18T05:07:25Z</time></trkpt>
<trkpt lat="46.12918627" lon="7.39117320"><ele>1525.749512</ele><time>2007-08-18T05:07:28Z</time></trkpt>
<trkpt lat="46.12928795" lon="7.39130144"><ele>1527.672119</ele><time>2007-08-18T05:07:42Z</time></trkpt>
<trkpt lat="46.12937788" lon="7.39135257"><ele>1528.633545</ele><time>2007-08-18T05:07:51Z</time></trkpt>
<trkpt lat="46.12944905" lon="7.39141828"><ele>1531.998047</ele><time>2007-08-18T05:07:59Z</time></trkpt>
<trkpt lat="46.12945399" lon="7.39142708"><ele>1531.998047</ele><time>2007-08-18T05:08:00Z</time></trkpt>
<trkpt lat="46.12949632" lon="7.39147997"><ele>1533.920898</ele><time>2007-08-18T05:08:07Z</time></trkpt>
<trkpt lat="46.12958374" lon="7.39154242"><ele>1535.843506</ele><time>2007-08-18T05:08:17Z</time></trkpt>
<trkpt lat="46.12960688" lon="7.39153462"><ele>1536.804688</ele><time>2007-08-18T05:08:20Z</time></trkpt>
<trkpt lat="46.12970285" lon="7.39147863"><ele>1536.804688</ele><time>2007-08-18T05:08:25Z</time></trkpt>
<trkpt lat="46.12999655" lon="7.39161350"><ele>1535.843506</ele><time>2007-08-18T05:08:34Z</time></trkpt>
<trkpt lat="46.13005606" lon="7.39160922"><ele>1534.882324</ele><time>2007-08-18T05:08:36Z</time></trkpt>
<trkpt lat="46.13012714" lon="7.39162272"><ele>1533.920898</ele><time>2007-08-18T05:08:38Z</time></trkpt>
<trkpt lat="46.13034717" lon="7.39173537"><ele>1530.556152</ele><time>2007-08-18T05:08:44Z</time></trkpt>
<trkpt lat="46.13036619" lon="7.39174426"><ele>1530.075439</ele><time>2007-08-18T05:08:45Z</time></trkpt>
<trkpt lat="46.13055294" lon="7.39178935"><ele>1530.556152</ele><time>2007-08-18T05:08:55Z</time></trkpt>
<trkpt lat="46.13074455" lon="7.39186403"><ele>1531.998047</ele><time>2007-08-18T05:09:07Z</time></trkpt>
<trkpt lat="46.13076224" lon="7.39194827"><ele>1532.959473</ele><time>2007-08-18T05:09:10Z</time></trkpt>
<trkpt lat="46.13086584" lon="7.39204022"><ele>1530.556152</ele><time>2007-08-18T05:09:15Z</time></trkpt>
<trkpt lat="46.13091705" lon="7.39210116"><ele>1529.114014</ele><time>2007-08-18T05:09:18Z</time></trkpt>
<trkpt lat="46.13094103" lon="7.39218322"><ele>1528.633545</ele><time>2007-08-18T05:09:28Z</time></trkpt>
<trkpt lat="46.13102937" lon="7.39233736"><ele>1531.517334</ele><time>2007-08-18T05:09:49Z</time></trkpt>
<trkpt lat="46.13104245" lon="7.39239117"><ele>1532.959473</ele><time>2007-08-18T05:09:52Z</time></trkpt>
<trkpt lat="46.13108260" lon="7.39252402"><ele>1536.324219</ele><time>2007-08-18T05:10:01Z</time></trkpt>
<trkpt lat="46.13107447" lon="7.39252947"><ele>1536.804688</ele><time>2007-08-18T05:10:03Z</time></trkpt>
<trkpt lat="46.13077833" lon="7.39233376"><ele>1538.727539</ele><time>2007-08-18T05:10:17Z</time></trkpt>
<trkpt lat="46.13069736" lon="7.39231523"><ele>1539.208008</ele><time>2007-08-18T05:10:20Z</time></trkpt>
<trkpt lat="46.13070784" lon="7.39250349"><ele>1540.169434</ele><time>2007-08-18T05:10:26Z</time></trkpt>
<trkpt lat="46.13106189" lon="7.39281898"><ele>1544.014648</ele><time>2007-08-18T05:10:39Z</time></trkpt>
<trkpt lat="46.13132324" lon="7.39312744"><ele>1547.37915</ele><time>2007-08-18T05:10:51Z</time></trkpt>
<trkpt lat="46.13162633" lon="7.39339583"><ele>1550.743896</ele><time>2007-08-18T05:11:03Z</time></trkpt>
<trkpt lat="46.13200762" lon="7.39369682"><ele>1554.108643</ele><time>2007-08-18T05:11:19Z</time></trkpt>
<trkpt lat="46.13226134" lon="7.39395624"><ele>1557.473145</ele><time>2007-08-18T05:11:30Z</time></trkpt>
<trkpt lat="46.13263006" lon="7.39418490"><ele>1560.837646</ele><time>2007-08-18T05:11:46Z</time></trkpt>
<trkpt lat="46.13279887" lon="7.39426394"><ele>1564.202393</ele><time>2007-08-18T05:11:54Z</time></trkpt>
<trkpt lat="46.13310733" lon="7.39445983"><ele>1567.566895</ele><time>2007-08-18T05:12:08Z</time></trkpt>
<trkpt lat="46.13330212" lon="7.39465378"><ele>1570.450928</ele><time>2007-08-18T05:12:18Z</time></trkpt>
<trkpt lat="46.13351653" lon="7.39489602"><ele>1573.81543</ele><time>2007-08-18T05:12:30Z</time></trkpt>
<trkpt lat="46.13386405" lon="7.39523373"><ele>1575.738037</ele><time>2007-08-18T05:12:47Z</time></trkpt>
<trkpt lat="46.13402473" lon="7.39541737"><ele>1579.102539</ele><time>2007-08-18T05:12:56Z</time></trkpt>
<trkpt lat="46.13437300" lon="7.39567822"><ele>1582.467529</ele><time>2007-08-18T05:13:11Z</time></trkpt>
<trkpt lat="46.13438247" lon="7.39570873"><ele>1581.986816</ele><time>2007-08-18T05:13:12Z</time></trkpt>
<trkpt lat="46.13428365" lon="7.39579909"><ele>1583.428711</ele><time>2007-08-18T05:13:19Z</time></trkpt>
<trkpt lat="46.13394644" lon="7.39558845"><ele>1586.793213</ele><time>2007-08-18T05:13:32Z</time></trkpt>
<trkpt lat="46.13359448" lon="7.39543774"><ele>1590.638428</ele><time>2007-08-18T05:13:46Z</time></trkpt>
<trkpt lat="46.13333800" lon="7.39538066"><ele>1594.003174</ele><time>2007-08-18T05:13:57Z</time></trkpt>
<trkpt lat="46.13296467" lon="7.39529399"><ele>1596.887207</ele><time>2007-08-18T05:14:13Z</time></trkpt>
<trkpt lat="46.13265244" lon="7.39507455"><ele>1599.77124</ele><time>2007-08-18T05:14:28Z</time></trkpt>
<trkpt lat="46.13225196" lon="7.39494438"><ele>1602.655029</ele><time>2007-08-18T05:14:42Z</time></trkpt>
<trkpt lat="46.13193135" lon="7.39483793"><ele>1606.019531</ele><time>2007-08-18T05:14:54Z</time></trkpt>
<trkpt lat="46.13163077" lon="7.39475613"><ele>1608.903564</ele><time>2007-08-18T05:15:06Z</time></trkpt>
<trkpt lat="46.13153564" lon="7.39472838"><ele>1610.345459</ele><time>2007-08-18T05:15:10Z</time></trkpt>
<trkpt lat="46.13133414" lon="7.39468622"><ele>1613.710205</ele><time>2007-08-18T05:15:19Z</time></trkpt>
<trkpt lat="46.13107455" lon="7.39466015"><ele>1615.633057</ele><time>2007-08-18T05:15:33Z</time></trkpt>
<trkpt lat="46.13089593" lon="7.39456410"><ele>1619.478271</ele><time>2007-08-18T05:15:46Z</time></trkpt>
<trkpt lat="46.13062738" lon="7.39438715"><ele>1622.362061</ele><time>2007-08-18T05:15:57Z</time></trkpt>
<trkpt lat="46.13033904" lon="7.39431993"><ele>1625.726563</ele><time>2007-08-18T05:16:08Z</time></trkpt>
<trkpt lat="46.13021515" lon="7.39431960"><ele>1626.687988</ele><time>2007-08-18T05:16:12Z</time></trkpt>
<trkpt lat="46.13012178" lon="7.39432496"><ele>1628.130127</ele><time>2007-08-18T05:16:15Z</time></trkpt>
<trkpt lat="46.12985892" lon="7.39433669"><ele>1631.01416</ele><time>2007-08-18T05:16:25Z</time></trkpt>
<trkpt lat="46.12960143" lon="7.39431247"><ele>1633.897949</ele><time>2007-08-18T05:16:39Z</time></trkpt>
<trkpt lat="46.12940085" lon="7.39425338"><ele>1637.743164</ele><time>2007-08-18T05:16:49Z</time></trkpt>
<trkpt lat="46.12899986" lon="7.39400972"><ele>1640.146484</ele><time>2007-08-18T05:17:07Z</time></trkpt>
<trkpt lat="46.12843207" lon="7.39389086"><ele>1642.549805</ele><time>2007-08-18T05:17:25Z</time></trkpt>
<trkpt lat="46.12784408" lon="7.39392556"><ele>1645.433838</ele><time>2007-08-18T05:17:42Z</time></trkpt>
<trkpt lat="46.12743932" lon="7.39394870"><ele>1649.279053</ele><time>2007-08-18T05:17:56Z</time></trkpt>
<trkpt lat="46.12700773" lon="7.39405464"><ele>1652.643555</ele><time>2007-08-18T05:18:12Z</time></trkpt>
<trkpt lat="46.12672945" lon="7.39420359"><ele>1654.085693</ele><time>2007-08-18T05:18:23Z</time></trkpt>
<trkpt lat="46.12652569" lon="7.39427609"><ele>1658.411377</ele><time>2007-08-18T05:18:31Z</time></trkpt>
<trkpt lat="46.12599294" lon="7.39442152"><ele>1661.776367</ele><time>2007-08-18T05:18:51Z</time></trkpt>
<trkpt lat="46.12567644" lon="7.39484866"><ele>1665.140869</ele><time>2007-08-18T05:19:07Z</time></trkpt>
<trkpt lat="46.12545096" lon="7.39514655"><ele>1668.024658</ele><time>2007-08-18T05:19:19Z</time></trkpt>
<trkpt lat="46.12515978" lon="7.39535895"><ele>1670.908691</ele><time>2007-08-18T05:19:31Z</time></trkpt>
<trkpt lat="46.12494637" lon="7.39552307"><ele>1671.869873</ele><time>2007-08-18T05:19:40Z</time></trkpt>
<trkpt lat="46.12504520" lon="7.39565710"><ele>1672.350586</ele><time>2007-08-18T05:19:47Z</time></trkpt>
<trkpt lat="46.12545658" lon="7.39544168"><ele>1676.196045</ele><time>2007-08-18T05:20:03Z</time></trkpt>
<trkpt lat="46.12568926" lon="7.39536515"><ele>1678.599365</ele><time>2007-08-18T05:20:12Z</time></trkpt>
<trkpt lat="46.12595664" lon="7.39535074"><ele>1681.963867</ele><time>2007-08-18T05:20:22Z</time></trkpt>
<trkpt lat="46.12635612" lon="7.39531780"><ele>1685.809082</ele><time>2007-08-18T05:20:37Z</time></trkpt>
<trkpt lat="46.12666366" lon="7.39529156"><ele>1688.693115</ele><time>2007-08-18T05:20:49Z</time></trkpt>
<trkpt lat="46.12698116" lon="7.39533699"><ele>1692.057861</ele><time>2007-08-18T05:21:02Z</time></trkpt>
<trkpt lat="46.12734159" lon="7.39548527"><ele>1695.422363</ele><time>2007-08-18T05:21:17Z</time></trkpt>
<trkpt lat="46.12736614" lon="7.39549533"><ele>1695.903076</ele><time>2007-08-18T05:21:18Z</time></trkpt>
<trkpt lat="46.12778935" lon="7.39568274"><ele>1699.267578</ele><time>2007-08-18T05:21:35Z</time></trkpt>
<trkpt lat="46.12783578" lon="7.39570554"><ele>1700.229004</ele><time>2007-08-18T05:21:37Z</time></trkpt>
<trkpt lat="46.12806603" lon="7.39579682"><ele>1703.593506</ele><time>2007-08-18T05:21:47Z</time></trkpt>
<trkpt lat="46.12846417" lon="7.39594585"><ele>1706.477295</ele><time>2007-08-18T05:22:04Z</time></trkpt>
<trkpt lat="46.12871446" lon="7.39607644"><ele>1709.842041</ele><time>2007-08-18T05:22:15Z</time></trkpt>
<trkpt lat="46.12903012" lon="7.39622975"><ele>1713.206787</ele><time>2007-08-18T05:22:29Z</time></trkpt>
<trkpt lat="46.12944678" lon="7.39658640"><ele>1716.090576</ele><time>2007-08-18T05:22:50Z</time></trkpt>
<trkpt lat="46.12971132" lon="7.39686124"><ele>1719.455322</ele><time>2007-08-18T05:23:04Z</time></trkpt>
<trkpt lat="46.12992573" lon="7.39706542"><ele>1722.819824</ele><time>2007-08-18T05:23:15Z</time></trkpt>
<trkpt lat="46.13022605" lon="7.39736717"><ele>1726.18457</ele><time>2007-08-18T05:23:31Z</time></trkpt>
<trkpt lat="46.13046049" lon="7.39766297"><ele>1729.068359</ele><time>2007-08-18T05:23:45Z</time></trkpt>
<trkpt lat="46.13064799" lon="7.39814845"><ele>1731.47168</ele><time>2007-08-18T05:24:00Z</time></trkpt>
<trkpt lat="46.13079937" lon="7.39840410"><ele>1734.836426</ele><time>2007-08-18T05:24:09Z</time></trkpt>
<trkpt lat="46.13081588" lon="7.39843067"><ele>1734.836426</ele><time>2007-08-18T05:24:10Z</time></trkpt>
<trkpt lat="46.13108075" lon="7.39865690"><ele>1738.200928</ele><time>2007-08-18T05:24:22Z</time></trkpt>
<trkpt lat="46.13133799" lon="7.39882403"><ele>1741.084961</ele><time>2007-08-18T05:24:34Z</time></trkpt>
<trkpt lat="46.13164846" lon="7.39912083"><ele>1744.449463</ele><time>2007-08-18T05:24:51Z</time></trkpt>
<trkpt lat="46.13183797" lon="7.39929233"><ele>1747.333496</ele><time>2007-08-18T05:25:01Z</time></trkpt>
<trkpt lat="46.13199245" lon="7.39941604"><ele>1749.256104</ele><time>2007-08-18T05:25:09Z</time></trkpt>
<trkpt lat="46.13234726" lon="7.39961863"><ele>1752.139893</ele><time>2007-08-18T05:25:23Z</time></trkpt>
<trkpt lat="46.13264783" lon="7.39986934"><ele>1755.023926</ele><time>2007-08-18T05:25:38Z</time></trkpt>
<trkpt lat="46.13299116" lon="7.40002340"><ele>1757.42749</ele><time>2007-08-18T05:25:53Z</time></trkpt>
<trkpt lat="46.13318084" lon="7.40008844"><ele>1759.830566</ele><time>2007-08-18T05:26:01Z</time></trkpt>
<trkpt lat="46.13311454" lon="7.40023797"><ele>1761.753418</ele><time>2007-08-18T05:26:08Z</time></trkpt>
<trkpt lat="46.13275923" lon="7.40015508"><ele>1765.598633</ele><time>2007-08-18T05:26:23Z</time></trkpt>
<trkpt lat="46.13247584" lon="7.40008073"><ele>1768.482422</ele><time>2007-08-18T05:26:37Z</time></trkpt>
<trkpt lat="46.13236880" lon="7.40007210"><ele>1770.885742</ele><time>2007-08-18T05:26:42Z</time></trkpt>
<trkpt lat="46.13195146" lon="7.39991426"><ele>1774.731201</ele><time>2007-08-18T05:27:02Z</time></trkpt>
<trkpt lat="46.13159079" lon="7.39987252"><ele>1778.095703</ele><time>2007-08-18T05:27:18Z</time></trkpt>
<trkpt lat="46.13156875" lon="7.39987034"><ele>1778.095703</ele><time>2007-08-18T05:27:19Z</time></trkpt>
<trkpt lat="46.13126809" lon="7.39984277"><ele>1780.979736</ele><time>2007-08-18T05:27:33Z</time></trkpt>
<trkpt lat="46.13089208" lon="7.39976456"><ele>1784.344238</ele><time>2007-08-18T05:27:51Z</time></trkpt>
<trkpt lat="46.13083407" lon="7.39959257"><ele>1787.228027</ele><time>2007-08-18T05:27:58Z</time></trkpt>
<trkpt lat="46.13054356" lon="7.39942116"><ele>1790.592773</ele><time>2007-08-18T05:28:11Z</time></trkpt>
<trkpt lat="46.13023619" lon="7.39948905"><ele>1793.95752</ele><time>2007-08-18T05:28:24Z</time></trkpt>
<trkpt lat="46.12986982" lon="7.39963448"><ele>1797.802734</ele><time>2007-08-18T05:28:41Z</time></trkpt>
<trkpt lat="46.12984895" lon="7.39964353"><ele>1797.322021</ele><time>2007-08-18T05:28:42Z</time></trkpt>
<trkpt lat="46.12960319" lon="7.39978267"><ele>1800.686523</ele><time>2007-08-18T05:28:54Z</time></trkpt>
<trkpt lat="46.12929985" lon="7.39997839"><ele>1803.570557</ele><time>2007-08-18T05:29:09Z</time></trkpt>
<trkpt lat="46.12901822" lon="7.39998987"><ele>1806.935303</ele><time>2007-08-18T05:29:22Z</time></trkpt>
<trkpt lat="46.12876324" lon="7.39979767"><ele>1809.819092</ele><time>2007-08-18T05:29:37Z</time></trkpt>
<trkpt lat="46.12849569" lon="7.39959676"><ele>1813.183838</ele><time>2007-08-18T05:29:50Z</time></trkpt>
<trkpt lat="46.12818053" lon="7.39956482"><ele>1817.029053</ele><time>2007-08-18T05:30:04Z</time></trkpt>
<trkpt lat="46.12815907" lon="7.39956575"><ele>1817.029053</ele><time>2007-08-18T05:30:05Z</time></trkpt>
<trkpt lat="46.12778717" lon="7.39962073"><ele>1820.393799</ele><time>2007-08-18T05:30:22Z</time></trkpt>
<trkpt lat="46.12745365" lon="7.39967437"><ele>1824.239014</ele><time>2007-08-18T05:30:37Z</time></trkpt>
<trkpt lat="46.12743228" lon="7.39967748"><ele>1824.239014</ele><time>2007-08-18T05:30:38Z</time></trkpt>
<trkpt lat="46.12714905" lon="7.39972626"><ele>1827.603516</ele><time>2007-08-18T05:30:51Z</time></trkpt>
<trkpt lat="46.12681956" lon="7.39987370"><ele>1830.968262</ele><time>2007-08-18T05:31:07Z</time></trkpt>
<trkpt lat="46.12656123" lon="7.40009833"><ele>1833.852051</ele><time>2007-08-18T05:31:21Z</time></trkpt>
<trkpt lat="46.12622612" lon="7.40023504"><ele>1837.216797</ele><time>2007-08-18T05:31:37Z</time></trkpt>
<trkpt lat="46.12599386" lon="7.40024543"><ele>1840.10083</ele><time>2007-08-18T05:31:48Z</time></trkpt>
<trkpt lat="46.12563235" lon="7.40021165"><ele>1843.465332</ele><time>2007-08-18T05:32:05Z</time></trkpt>
<trkpt lat="46.12535315" lon="7.40019707"><ele>1846.829834</ele><time>2007-08-18T05:32:18Z</time></trkpt>
<trkpt lat="46.12506154" lon="7.40029732"><ele>1850.19458</ele><time>2007-08-18T05:32:32Z</time></trkpt>
<trkpt lat="46.12479206" lon="7.40053645"><ele>1853.078613</ele><time>2007-08-18T05:32:47Z</time></trkpt>
<trkpt lat="46.12454756" lon="7.40074198"><ele>1856.443115</ele><time>2007-08-18T05:33:00Z</time></trkpt>
<trkpt lat="46.12433743" lon="7.40094507"><ele>1859.327148</ele><time>2007-08-18T05:33:12Z</time></trkpt>
<trkpt lat="46.12402654" lon="7.40116476"><ele>1862.210938</ele><time>2007-08-18T05:33:28Z</time></trkpt>
<trkpt lat="46.12374919" lon="7.40128236"><ele>1865.575684</ele><time>2007-08-18T05:33:42Z</time></trkpt>
<trkpt lat="46.12348566" lon="7.40137506"><ele>1868.459717</ele><time>2007-08-18T05:33:55Z</time></trkpt>
<trkpt lat="46.12321258" lon="7.40156366"><ele>1871.343506</ele><time>2007-08-18T05:34:09Z</time></trkpt>
<trkpt lat="46.12290496" lon="7.40178125"><ele>1875.669434</ele><time>2007-08-18T05:34:25Z</time></trkpt>
<trkpt lat="46.12264956" lon="7.40206615"><ele>1877.592041</ele><time>2007-08-18T05:34:40Z</time></trkpt>
<trkpt lat="46.12280438" lon="7.40209792"><ele>1878.553467</ele><time>2007-08-18T05:34:47Z</time></trkpt>
<trkpt lat="46.12322557" lon="7.40185258"><ele>1881.917969</ele><time>2007-08-18T05:35:06Z</time></trkpt>
<trkpt lat="46.12354777" lon="7.40195232"><ele>1885.282715</ele><time>2007-08-18T05:35:21Z</time></trkpt>
<trkpt lat="46.12387919" lon="7.40222499"><ele>1889.12793</ele><time>2007-08-18T05:35:38Z</time></trkpt>
<trkpt lat="46.12419477" lon="7.40237050"><ele>1892.492676</ele><time>2007-08-18T05:35:53Z</time></trkpt>
<trkpt lat="46.12452359" lon="7.40240763"><ele>1895.857178</ele><time>2007-08-18T05:36:08Z</time></trkpt>
<trkpt lat="46.12483707" lon="7.40252707"><ele>1898.740967</ele><time>2007-08-18T05:36:23Z</time></trkpt>
<trkpt lat="46.12509264" lon="7.40270477"><ele>1902.105713</ele><time>2007-08-18T05:36:36Z</time></trkpt>
<trkpt lat="46.12537653" lon="7.40287467"><ele>1904.989746</ele><time>2007-08-18T05:36:50Z</time></trkpt>
<trkpt lat="46.12562707" lon="7.40300702"><ele>1908.354248</ele><time>2007-08-18T05:37:02Z</time></trkpt>
<trkpt lat="46.12591750" lon="7.40308078"><ele>1912.199463</ele><time>2007-08-18T05:37:15Z</time></trkpt>
<trkpt lat="46.12602898" lon="7.40308505"><ele>1913.641357</ele><time>2007-08-18T05:37:20Z</time></trkpt>
<trkpt lat="46.12637088" lon="7.40310173"><ele>1916.525635</ele><time>2007-08-18T05:37:35Z</time></trkpt>
<trkpt lat="46.12665444" lon="7.40323056"><ele>1919.890137</ele><time>2007-08-18T05:37:48Z</time></trkpt>
<trkpt lat="46.12693196" lon="7.40351563"><ele>1923.735352</ele><time>2007-08-18T05:38:03Z</time></trkpt>
<trkpt lat="46.12699214" lon="7.40361303"><ele>1925.177246</ele><time>2007-08-18T05:38:07Z</time></trkpt>
<trkpt lat="46.12731912" lon="7.40402089"><ele>1929.022461</ele><time>2007-08-18T05:38:26Z</time></trkpt>
<trkpt lat="46.12750964" lon="7.40413036"><ele>1931.906494</ele><time>2007-08-18T05:38:35Z</time></trkpt>
<trkpt lat="46.12781215" lon="7.40430445"><ele>1935.27124</ele><time>2007-08-18T05:38:49Z</time></trkpt>
<trkpt lat="46.12814097" lon="7.40439355"><ele>1938.635986</ele><time>2007-08-18T05:39:04Z</time></trkpt>
<trkpt lat="46.12847532" lon="7.40427252"><ele>1941.519775</ele><time>2007-08-18T05:39:19Z</time></trkpt>
<trkpt lat="46.12876299" lon="7.40409164"><ele>1944.884277</ele><time>2007-08-18T05:39:32Z</time></trkpt>
<trkpt lat="46.12889995" lon="7.40400765"><ele>1946.326416</ele><time>2007-08-18T05:39:38Z</time></trkpt>
<trkpt lat="46.12918929" lon="7.40382417"><ele>1949.210449</ele><time>2007-08-18T05:39:51Z</time></trkpt>
<trkpt lat="46.12937856" lon="7.40368076"><ele>1951.61377</ele><time>2007-08-18T05:40:00Z</time></trkpt>
<trkpt lat="46.12954485" lon="7.40376994"><ele>1953.055664</ele><time>2007-08-18T05:40:07Z</time></trkpt>
<trkpt lat="46.12942290" lon="7.40403866"><ele>1955.939453</ele><time>2007-08-18T05:40:15Z</time></trkpt>
<trkpt lat="46.12918292" lon="7.40428685"><ele>1959.304199</ele><time>2007-08-18T05:40:27Z</time></trkpt>
<trkpt lat="46.12891939" lon="7.40466353"><ele>1961.226807</ele><time>2007-08-18T05:40:43Z</time></trkpt>
<trkpt lat="46.12888503" lon="7.40470259"><ele>1963.149414</ele><time>2007-08-18T05:40:45Z</time></trkpt>
<trkpt lat="46.12854883" lon="7.40518908"><ele>1966.033447</ele><time>2007-08-18T05:41:04Z</time></trkpt>
<trkpt lat="46.12839804" lon="7.40536292"><ele>1969.398193</ele><time>2007-08-18T05:41:12Z</time></trkpt>
<trkpt lat="46.12837734" lon="7.40538262"><ele>1968.91748</ele><time>2007-08-18T05:41:13Z</time></trkpt>
<trkpt lat="46.12796495" lon="7.40569468"><ele>1971.80127</ele><time>2007-08-18T05:41:32Z</time></trkpt>
<trkpt lat="46.12808917" lon="7.40580657"><ele>1973.723877</ele><time>2007-08-18T05:41:39Z</time></trkpt>
<trkpt lat="46.12814658" lon="7.40577883"><ele>1974.685303</ele><time>2007-08-18T05:41:41Z</time></trkpt>
<trkpt lat="46.12863818" lon="7.40584329"><ele>1977.569092</ele><time>2007-08-18T05:41:58Z</time></trkpt>
<trkpt lat="46.12881965" lon="7.40638132"><ele>1979.491699</ele><time>2007-08-18T05:42:12Z</time></trkpt>
<trkpt lat="46.12875536" lon="7.40715983"><ele>1980.934082</ele><time>2007-08-18T05:42:28Z</time></trkpt>
<trkpt lat="46.12854665" lon="7.40732026"><ele>1982.856445</ele><time>2007-08-18T05:42:35Z</time></trkpt>
<trkpt lat="46.12828178" lon="7.40767876"><ele>1986.221191</ele><time>2007-08-18T05:42:46Z</time></trkpt>
<trkpt lat="46.12802194" lon="7.40837177"><ele>1988.143799</ele><time>2007-08-18T05:43:03Z</time></trkpt>
<trkpt lat="46.12764719" lon="7.40853438"><ele>1990.546875</ele><time>2007-08-18T05:43:15Z</time></trkpt>
<trkpt lat="46.12771818" lon="7.40873127"><ele>1991.508301</ele><time>2007-08-18T05:43:21Z</time></trkpt>
<trkpt lat="46.12800317" lon="7.40886044"><ele>1995.834229</ele><time>2007-08-18T05:43:31Z</time></trkpt>
<trkpt lat="46.12821749" lon="7.40904090"><ele>1998.718262</ele><time>2007-08-18T05:43:41Z</time></trkpt>
<trkpt lat="46.12854288" lon="7.40914324"><ele>2001.602295</ele><time>2007-08-18T05:43:56Z</time></trkpt>
<trkpt lat="46.12880490" lon="7.40941037"><ele>2005.44751</ele><time>2007-08-18T05:44:11Z</time></trkpt>
<trkpt lat="46.12882149" lon="7.40943217"><ele>2005.927979</ele><time>2007-08-18T05:44:12Z</time></trkpt>
<trkpt lat="46.12901989" lon="7.40964876"><ele>2009.292725</ele><time>2007-08-18T05:44:24Z</time></trkpt>
<trkpt lat="46.12917119" lon="7.40977222"><ele>2012.176758</ele><time>2007-08-18T05:44:33Z</time></trkpt>
<trkpt lat="46.12920815" lon="7.40979033"><ele>2013.138184</ele><time>2007-08-18T05:44:35Z</time></trkpt>
<trkpt lat="46.12950923" lon="7.40988714"><ele>2016.021973</ele><time>2007-08-18T05:44:51Z</time></trkpt>
<trkpt lat="46.12977426" lon="7.40997263"><ele>2019.386719</ele><time>2007-08-18T05:45:05Z</time></trkpt>
<trkpt lat="46.13008046" lon="7.41001965"><ele>2022.270508</ele><time>2007-08-18T05:45:21Z</time></trkpt>
<trkpt lat="46.13037684" lon="7.40986258"><ele>2025.154297</ele><time>2007-08-18T05:45:37Z</time></trkpt>
<trkpt lat="46.13051984" lon="7.40975386"><ele>2027.077148</ele><time>2007-08-18T05:45:45Z</time></trkpt>
<trkpt lat="46.13053258" lon="7.40990759"><ele>2029.480469</ele><time>2007-08-18T05:45:52Z</time></trkpt>
<trkpt lat="46.13050902" lon="7.40992335"><ele>2029.480469</ele><time>2007-08-18T05:45:53Z</time></trkpt>
<trkpt lat="46.13031163" lon="7.41009962"><ele>2031.883789</ele><time>2007-08-18T05:46:02Z</time></trkpt>
<trkpt lat="46.13022722" lon="7.41020355"><ele>2033.325684</ele><time>2007-08-18T05:46:07Z</time></trkpt>
<trkpt lat="46.13013335" lon="7.41032132"><ele>2035.248291</ele><time>2007-08-18T05:46:13Z</time></trkpt>
<trkpt lat="46.12990594" lon="7.41061016"><ele>2038.132324</ele><time>2007-08-18T05:46:28Z</time></trkpt>
<trkpt lat="46.12965415" lon="7.41077092"><ele>2041.496826</ele><time>2007-08-18T05:46:42Z</time></trkpt>
<trkpt lat="46.12938669" lon="7.41070462"><ele>2044.380859</ele><time>2007-08-18T05:46:56Z</time></trkpt>
<trkpt lat="46.12914730" lon="7.41065366"><ele>2046.78418</ele><time>2007-08-18T05:47:09Z</time></trkpt>
<trkpt lat="46.12917437" lon="7.41079397"><ele>2047.745605</ele><time>2007-08-18T05:47:14Z</time></trkpt>
<trkpt lat="46.12939783" lon="7.41098785"><ele>2050.629395</ele><time>2007-08-18T05:47:27Z</time></trkpt>
<trkpt lat="46.12964259" lon="7.41119798"><ele>2053.994141</ele><time>2007-08-18T05:47:42Z</time></trkpt>
<trkpt lat="46.12967804" lon="7.41121810"><ele>2054.955322</ele><time>2007-08-18T05:47:44Z</time></trkpt>
<trkpt lat="46.12982372" lon="7.41127979"><ele>2057.839355</ele><time>2007-08-18T05:47:52Z</time></trkpt>
<trkpt lat="46.13012756" lon="7.41131558"><ele>2061.204102</ele><time>2007-08-18T05:48:09Z</time></trkpt>
<trkpt lat="46.13034708" lon="7.41129873"><ele>2064.087891</ele><time>2007-08-18T05:48:21Z</time></trkpt>
<trkpt lat="46.13059963" lon="7.41141289"><ele>2067.933105</ele><time>2007-08-18T05:48:35Z</time></trkpt>
<trkpt lat="46.13076534" lon="7.41144575"><ele>2069.855713</ele><time>2007-08-18T05:48:44Z</time></trkpt>
<trkpt lat="46.13089317" lon="7.41141977"><ele>2071.77832</ele><time>2007-08-18T05:48:51Z</time></trkpt>
<trkpt lat="46.13126172" lon="7.41138523"><ele>2074.181641</ele><time>2007-08-18T05:49:10Z</time></trkpt>
<trkpt lat="46.13147696" lon="7.41159596"><ele>2077.065918</ele><time>2007-08-18T05:49:25Z</time></trkpt>
<trkpt lat="46.13169858" lon="7.41174079"><ele>2080.911133</ele><time>2007-08-18T05:49:40Z</time></trkpt>
<trkpt lat="46.13191249" lon="7.41191103"><ele>2083.794922</ele><time>2007-08-18T05:49:55Z</time></trkpt>
<trkpt lat="46.13196647" lon="7.41195948"><ele>2085.236816</ele><time>2007-08-18T05:49:59Z</time></trkpt>
<trkpt lat="46.13207015" lon="7.41215067"><ele>2087.159424</ele><time>2007-08-18T05:50:11Z</time></trkpt>
<trkpt lat="46.13220728" lon="7.41247044"><ele>2089.562744</ele><time>2007-08-18T05:50:30Z</time></trkpt>
<trkpt lat="46.13239034" lon="7.41254898"><ele>2091.485352</ele><time>2007-08-18T05:50:44Z</time></trkpt>
<trkpt lat="46.13257407" lon="7.41260639"><ele>2094.850098</ele><time>2007-08-18T05:50:57Z</time></trkpt>
<trkpt lat="46.13260349" lon="7.41261913"><ele>2094.369385</ele><time>2007-08-18T05:50:59Z</time></trkpt>
<trkpt lat="46.13277616" lon="7.41266725"><ele>2097.734131</ele><time>2007-08-18T05:51:12Z</time></trkpt>
<trkpt lat="46.13300817" lon="7.41282273"><ele>2101.579346</ele><time>2007-08-18T05:51:29Z</time></trkpt>
<trkpt lat="46.13302208" lon="7.41282994"><ele>2101.579346</ele><time>2007-08-18T05:51:30Z</time></trkpt>
<trkpt lat="46.13320146" lon="7.41273137"><ele>2104.943848</ele><time>2007-08-18T05:51:44Z</time></trkpt>
<trkpt lat="46.13335962" lon="7.41257496"><ele>2108.308594</ele><time>2007-08-18T05:51:56Z</time></trkpt>
<trkpt lat="46.13354906" lon="7.41244873"><ele>2111.67334</ele><time>2007-08-18T05:52:10Z</time></trkpt>
<trkpt lat="46.13380973" lon="7.41231496"><ele>2115.037842</ele><time>2007-08-18T05:52:29Z</time></trkpt>
<trkpt lat="46.13408055" lon="7.41235485"><ele>2118.883057</ele><time>2007-08-18T05:52:46Z</time></trkpt>
<trkpt lat="46.13434173" lon="7.41248796"><ele>2121.286133</ele><time>2007-08-18T05:53:03Z</time></trkpt>
<trkpt lat="46.13446838" lon="7.41272793"><ele>2124.17041</ele><time>2007-08-18T05:53:16Z</time></trkpt>
<trkpt lat="46.13460266" lon="7.41296774"><ele>2127.054443</ele><time>2007-08-18T05:53:32Z</time></trkpt>
<trkpt lat="46.13471674" lon="7.41307142"><ele>2130.418945</ele><time>2007-08-18T05:53:43Z</time></trkpt>
<trkpt lat="46.13475873" lon="7.41310679"><ele>2131.380127</ele><time>2007-08-18T05:53:47Z</time></trkpt>
<trkpt lat="46.13479955" lon="7.41313999"><ele>2130.899658</ele><time>2007-08-18T05:53:51Z</time></trkpt>
<trkpt lat="46.13488605" lon="7.41318558"><ele>2132.822021</ele><time>2007-08-18T05:53:59Z</time></trkpt>
<trkpt lat="46.13507783" lon="7.41321794"><ele>2135.706055</ele><time>2007-08-18T05:54:15Z</time></trkpt>
<trkpt lat="46.13530272" lon="7.41324585"><ele>2138.109375</ele><time>2007-08-18T05:54:34Z</time></trkpt>
<trkpt lat="46.13542593" lon="7.41329296"><ele>2139.070557</ele><time>2007-08-18T05:54:45Z</time></trkpt>
<trkpt lat="46.13548544" lon="7.41332497"><ele>2140.512695</ele><time>2007-08-18T05:54:50Z</time></trkpt>
<trkpt lat="46.13574562" lon="7.41337183"><ele>2143.877441</ele><time>2007-08-18T05:55:07Z</time></trkpt>
<trkpt lat="46.13603219" lon="7.41363586"><ele>2146.76123</ele><time>2007-08-18T05:55:25Z</time></trkpt>
<trkpt lat="46.13634123" lon="7.41380752"><ele>2149.645264</ele><time>2007-08-18T05:55:42Z</time></trkpt>
<trkpt lat="46.13660627" lon="7.41391858"><ele>2152.529053</ele><time>2007-08-18T05:55:54Z</time></trkpt>
<trkpt lat="46.13696669" lon="7.41387357"><ele>2155.413086</ele><time>2007-08-18T05:56:10Z</time></trkpt>
<trkpt lat="46.13730406" lon="7.41371146"><ele>2157.81665</ele><time>2007-08-18T05:56:27Z</time></trkpt>
<trkpt lat="46.13749417" lon="7.41361482"><ele>2160.219727</ele><time>2007-08-18T05:56:36Z</time></trkpt>
<trkpt lat="46.13782668" lon="7.41349965"><ele>2163.584229</ele><time>2007-08-18T05:56:52Z</time></trkpt>
<trkpt lat="46.13815332" lon="7.41344936"><ele>2165.026367</ele><time>2007-08-18T05:57:08Z</time></trkpt>
<trkpt lat="46.13844040" lon="7.41339086"><ele>2165.987549</ele><time>2007-08-18T05:57:20Z</time></trkpt>
<trkpt lat="46.13880426" lon="7.41310218"><ele>2168.390869</ele><time>2007-08-18T05:57:36Z</time></trkpt>
<trkpt lat="46.13902093" lon="7.41297520"><ele>2172.236328</ele><time>2007-08-18T05:57:49Z</time></trkpt>
<trkpt lat="46.13925747" lon="7.41312507"><ele>2174.158936</ele><time>2007-08-18T05:58:04Z</time></trkpt>
<trkpt lat="46.13929083" lon="7.41314669"><ele>2175.120117</ele><time>2007-08-18T05:58:06Z</time></trkpt>
<trkpt lat="46.13964915" lon="7.41319774"><ele>2177.042969</ele><time>2007-08-18T05:58:20Z</time></trkpt>
<trkpt lat="46.14014737" lon="7.41325113"><ele>2176.081543</ele><time>2007-08-18T05:58:33Z</time></trkpt>
<trkpt lat="46.14068868" lon="7.41318868"><ele>2176.081543</ele><time>2007-08-18T05:58:44Z</time></trkpt>
<trkpt lat="46.14088104" lon="7.41313429"><ele>2176.081543</ele><time>2007-08-18T05:58:48Z</time></trkpt>
<trkpt lat="46.14105019" lon="7.41312859"><ele>2176.562256</ele><time>2007-08-18T05:58:52Z</time></trkpt>
<trkpt lat="46.14164304" lon="7.41321626"><ele>2179.446045</ele><time>2007-08-18T05:59:07Z</time></trkpt>
<trkpt lat="46.14179442" lon="7.41318692"><ele>2179.926758</ele><time>2007-08-18T05:59:11Z</time></trkpt>
<trkpt lat="46.14219289" lon="7.41317536"><ele>2182.810547</ele><time>2007-08-18T05:59:25Z</time></trkpt>
<trkpt lat="46.14234058" lon="7.41317955"><ele>2184.252686</ele><time>2007-08-18T05:59:30Z</time></trkpt>
<trkpt lat="46.14255114" lon="7.41344408"><ele>2186.175293</ele><time>2007-08-18T05:59:42Z</time></trkpt>
<trkpt lat="46.14268575" lon="7.41397097"><ele>2189.059326</ele><time>2007-08-18T05:59:58Z</time></trkpt>
<trkpt lat="46.14290175" lon="7.41437472"><ele>2190.501221</ele><time>2007-08-18T06:00:12Z</time></trkpt>
<trkpt lat="46.14312672" lon="7.41469625"><ele>2192.904541</ele><time>2007-08-18T06:00:26Z</time></trkpt>
<trkpt lat="46.14341967" lon="7.41486976"><ele>2196.269287</ele><time>2007-08-18T06:00:40Z</time></trkpt>
<trkpt lat="46.14345546" lon="7.41488015"><ele>2197.230469</ele><time>2007-08-18T06:00:42Z</time></trkpt>
<trkpt lat="46.14368755" lon="7.41505047"><ele>2201.556396</ele><time>2007-08-18T06:00:57Z</time></trkpt>
<trkpt lat="46.14400472" lon="7.41541374"><ele>2201.556396</ele><time>2007-08-18T06:01:12Z</time></trkpt>
<trkpt lat="46.14419675" lon="7.41553830"><ele>2201.075684</ele><time>2007-08-18T06:01:17Z</time></trkpt>
<trkpt lat="46.14455173" lon="7.41562975"><ele>2199.153076</ele><time>2007-08-18T06:01:27Z</time></trkpt>
<trkpt lat="46.14481064" lon="7.41552162"><ele>2199.153076</ele><time>2007-08-18T06:01:35Z</time></trkpt>
<trkpt lat="46.14491357" lon="7.41558893"><ele>2199.633789</ele><time>2007-08-18T06:01:38Z</time></trkpt>
<trkpt lat="46.14523804" lon="7.41534476"><ele>2199.153076</ele><time>2007-08-18T06:01:49Z</time></trkpt>
<trkpt lat="46.14554314" lon="7.41512658"><ele>2199.633789</ele><time>2007-08-18T06:01:58Z</time></trkpt>
<trkpt lat="46.14589635" lon="7.41476909"><ele>2201.075684</ele><time>2007-08-18T06:02:10Z</time></trkpt>
<trkpt lat="46.14595503" lon="7.41481402"><ele>2202.036865</ele><time>2007-08-18T06:02:12Z</time></trkpt>
<trkpt lat="46.14625778" lon="7.41515458"><ele>2203.479004</ele><time>2007-08-18T06:02:24Z</time></trkpt>
<trkpt lat="46.14637068" lon="7.41522565"><ele>2204.44043</ele><time>2007-08-18T06:02:28Z</time></trkpt>
<trkpt lat="46.14635685" lon="7.41550050"><ele>2205.401855</ele><time>2007-08-18T06:02:34Z</time></trkpt>
<trkpt lat="46.14620129" lon="7.41579789"><ele>2208.766357</ele><time>2007-08-18T06:02:43Z</time></trkpt>
<trkpt lat="46.14591672" lon="7.41631606"><ele>2209.727539</ele><time>2007-08-18T06:02:57Z</time></trkpt>
<trkpt lat="46.14585687" lon="7.41644363"><ele>2209.24707</ele><time>2007-08-18T06:03:00Z</time></trkpt>
<trkpt lat="46.14575914" lon="7.41709423"><ele>2210.208252</ele><time>2007-08-18T06:03:13Z</time></trkpt>
<trkpt lat="46.14568857" lon="7.41749489"><ele>2212.611572</ele><time>2007-08-18T06:03:25Z</time></trkpt>
<trkpt lat="46.14563065" lon="7.41790275"><ele>2215.495605</ele><time>2007-08-18T06:03:38Z</time></trkpt>
<trkpt lat="46.14548547" lon="7.41824406"><ele>2216.456787</ele><time>2007-08-18T06:03:51Z</time></trkpt>
<trkpt lat="46.14536813" lon="7.41869534"><ele>2219.34082</ele><time>2007-08-18T06:04:08Z</time></trkpt>
<trkpt lat="46.14532479" lon="7.41905535"><ele>2219.821289</ele><time>2007-08-18T06:04:20Z</time></trkpt>
<trkpt lat="46.14527198" lon="7.41931309"><ele>2223.186279</ele><time>2007-08-18T06:04:29Z</time></trkpt>
<trkpt lat="46.14517635" lon="7.41974426"><ele>2224.628174</ele><time>2007-08-18T06:04:44Z</time></trkpt>
<trkpt lat="46.14528146" lon="7.42030132"><ele>2226.550781</ele><time>2007-08-18T06:04:57Z</time></trkpt>
<trkpt lat="46.14529403" lon="7.42085796"><ele>2228.473389</ele><time>2007-08-18T06:05:10Z</time></trkpt>
<trkpt lat="46.14524667" lon="7.42139507"><ele>2230.876709</ele><time>2007-08-18T06:05:25Z</time></trkpt>
<trkpt lat="46.14513125" lon="7.42175365"><ele>2230.395996</ele><time>2007-08-18T06:05:34Z</time></trkpt>
<trkpt lat="46.14488876" lon="7.42214140"><ele>2230.876709</ele><time>2007-08-18T06:05:43Z</time></trkpt>
<trkpt lat="46.14448878" lon="7.42290105"><ele>2231.357178</ele><time>2007-08-18T06:05:59Z</time></trkpt>
<trkpt lat="46.14425777" lon="7.42342802"><ele>2234.721924</ele><time>2007-08-18T06:06:12Z</time></trkpt>
<trkpt lat="46.14400732" lon="7.42404836"><ele>2236.164063</ele><time>2007-08-18T06:06:28Z</time></trkpt>
<trkpt lat="46.14382242" lon="7.42457366"><ele>2236.644531</ele><time>2007-08-18T06:06:41Z</time></trkpt>
<trkpt lat="46.14351665" lon="7.42495780"><ele>2236.644531</ele><time>2007-08-18T06:06:53Z</time></trkpt>
<trkpt lat="46.14322202" lon="7.42528528"><ele>2234.241211</ele><time>2007-08-18T06:07:02Z</time></trkpt>
<trkpt lat="46.14314709" lon="7.42537748"><ele>2234.721924</ele><time>2007-08-18T06:07:04Z</time></trkpt>
<trkpt lat="46.14308389" lon="7.42548795"><ele>2233.760498</ele><time>2007-08-18T06:07:06Z</time></trkpt>
<trkpt lat="46.14302874" lon="7.42561502"><ele>2232.318604</ele><time>2007-08-18T06:07:08Z</time></trkpt>
<trkpt lat="46.14299278" lon="7.42606245"><ele>2229.915283</ele><time>2007-08-18T06:07:13Z</time></trkpt>
<trkpt lat="46.14294400" lon="7.42694842"><ele>2228.953857</ele><time>2007-08-18T06:07:25Z</time></trkpt>
<trkpt lat="46.14279228" lon="7.42747338"><ele>2232.318604</ele><time>2007-08-18T06:07:36Z</time></trkpt>
<trkpt lat="46.14259229" lon="7.42816304"><ele>2233.760498</ele><time>2007-08-18T06:07:52Z</time></trkpt>
<trkpt lat="46.14249674" lon="7.42836320"><ele>2233.279785</ele><time>2007-08-18T06:07:57Z</time></trkpt>
<trkpt lat="46.14242566" lon="7.42903216"><ele>2236.164063</ele><time>2007-08-18T06:08:11Z</time></trkpt>
<trkpt lat="46.14242205" lon="7.42947564"><ele>2238.567383</ele><time>2007-08-18T06:08:23Z</time></trkpt>
<trkpt lat="46.14228375" lon="7.43028207"><ele>2241.451172</ele><time>2007-08-18T06:08:43Z</time></trkpt>
<trkpt lat="46.14222667" lon="7.43085698"><ele>2244.334961</ele><time>2007-08-18T06:08:59Z</time></trkpt>
<trkpt lat="46.14224830" lon="7.43130860"><ele>2247.699707</ele><time>2007-08-18T06:09:13Z</time></trkpt>
<trkpt lat="46.14218954" lon="7.43175519"><ele>2250.583496</ele><time>2007-08-18T06:09:26Z</time></trkpt>
<trkpt lat="46.14204898" lon="7.43216657"><ele>2252.025635</ele><time>2007-08-18T06:09:39Z</time></trkpt>
<trkpt lat="46.14213355" lon="7.43268985"><ele>2252.025635</ele><time>2007-08-18T06:09:49Z</time></trkpt>
<trkpt lat="46.14207848" lon="7.43299437"><ele>2251.544922</ele><time>2007-08-18T06:09:54Z</time></trkpt>
<trkpt lat="46.14191872" lon="7.43356962"><ele>2248.180176</ele><time>2007-08-18T06:10:01Z</time></trkpt>
<trkpt lat="46.14189073" lon="7.43366567"><ele>2248.660889</ele><time>2007-08-18T06:10:02Z</time></trkpt>
<trkpt lat="46.14183314" lon="7.43393188"><ele>2245.296387</ele><time>2007-08-18T06:10:05Z</time></trkpt>
<trkpt lat="46.14172057" lon="7.43420882"><ele>2243.373779</ele><time>2007-08-18T06:10:09Z</time></trkpt>
<trkpt lat="46.14163877" lon="7.43453588"><ele>2241.451172</ele><time>2007-08-18T06:10:17Z</time></trkpt>
<trkpt lat="46.14160758" lon="7.43473646"><ele>2239.528564</ele><time>2007-08-18T06:10:20Z</time></trkpt>
<trkpt lat="46.14149175" lon="7.43495422"><ele>2237.125244</ele><time>2007-08-18T06:10:28Z</time></trkpt>
<trkpt lat="46.14128547" lon="7.43517467"><ele>2234.241211</ele><time>2007-08-18T06:10:40Z</time></trkpt>
<trkpt lat="46.14124817" lon="7.43521113"><ele>2233.760498</ele><time>2007-08-18T06:10:45Z</time></trkpt>
<trkpt lat="46.14114792" lon="7.43537592"><ele>2232.799072</ele><time>2007-08-18T06:10:58Z</time></trkpt>
<trkpt lat="46.14114013" lon="7.43539478"><ele>2232.318604</ele><time>2007-08-18T06:11:00Z</time></trkpt>
<trkpt lat="46.14106653" lon="7.43557306"><ele>2231.357178</ele><time>2007-08-18T06:11:11Z</time></trkpt>
<trkpt lat="46.14105262" lon="7.43577012"><ele>2231.357178</ele><time>2007-08-18T06:11:23Z</time></trkpt>
<trkpt lat="46.14104792" lon="7.43586048"><ele>2229.915283</ele><time>2007-08-18T06:11:27Z</time></trkpt>
<trkpt lat="46.14101658" lon="7.43612057"><ele>2229.43457</ele><time>2007-08-18T06:11:40Z</time></trkpt>
<trkpt lat="46.14091985" lon="7.43637663"><ele>2229.43457</ele><time>2007-08-18T06:11:54Z</time></trkpt>
<trkpt lat="46.14072807" lon="7.43664024"><ele>2227.511963</ele><time>2007-08-18T06:12:03Z</time></trkpt>
<trkpt lat="46.14044979" lon="7.43678802"><ele>2225.589355</ele><time>2007-08-18T06:12:12Z</time></trkpt>
<trkpt lat="46.14037016" lon="7.43704358"><ele>2225.589355</ele><time>2007-08-18T06:12:17Z</time></trkpt>
<trkpt lat="46.14033773" lon="7.43715975"><ele>2225.589355</ele><time>2007-08-18T06:12:19Z</time></trkpt>
<trkpt lat="46.14024368" lon="7.43738665"><ele>2226.070068</ele><time>2007-08-18T06:12:23Z</time></trkpt>
<trkpt lat="46.14018819" lon="7.43760617"><ele>2226.070068</ele><time>2007-08-18T06:12:27Z</time></trkpt>
<trkpt lat="46.14014033" lon="7.43769947"><ele>2225.108643</ele><time>2007-08-18T06:12:29Z</time></trkpt>
<trkpt lat="46.13993397" lon="7.43803759"><ele>2220.782959</ele><time>2007-08-18T06:12:36Z</time></trkpt>
<trkpt lat="46.13990664" lon="7.43807657"><ele>2220.782959</ele><time>2007-08-18T06:12:37Z</time></trkpt>
<trkpt lat="46.13959685" lon="7.43840204"><ele>2219.821289</ele><time>2007-08-18T06:12:48Z</time></trkpt>
<trkpt lat="46.13949392" lon="7.43850145"><ele>2221.263428</ele><time>2007-08-18T06:12:51Z</time></trkpt>
<trkpt lat="46.13917482" lon="7.43861033"><ele>2218.860107</ele><time>2007-08-18T06:13:00Z</time></trkpt>
<trkpt lat="46.13892655" lon="7.43857613"><ele>2219.821289</ele><time>2007-08-18T06:13:06Z</time></trkpt>
<trkpt lat="46.13883938" lon="7.43858946"><ele>2219.821289</ele><time>2007-08-18T06:13:08Z</time></trkpt>
<trkpt lat="46.13866487" lon="7.43877537"><ele>2218.860107</ele><time>2007-08-18T06:13:13Z</time></trkpt>
<trkpt lat="46.13837485" lon="7.43927124"><ele>2218.379395</ele><time>2007-08-18T06:13:26Z</time></trkpt>
<trkpt lat="46.13811124" lon="7.43934777"><ele>2215.495605</ele><time>2007-08-18T06:13:34Z</time></trkpt>
<trkpt lat="46.13790982" lon="7.43912598"><ele>2218.379395</ele><time>2007-08-18T06:13:45Z</time></trkpt>
<trkpt lat="46.13751277" lon="7.43878542"><ele>2218.860107</ele><time>2007-08-18T06:14:03Z</time></trkpt>
<trkpt lat="46.13746324" lon="7.43871787"><ele>2219.34082</ele><time>2007-08-18T06:14:06Z</time></trkpt>
<trkpt lat="46.13725654" lon="7.43868065"><ele>2219.821289</ele><time>2007-08-18T06:14:19Z</time></trkpt>
<trkpt lat="46.13709812" lon="7.43855970"><ele>2219.821289</ele><time>2007-08-18T06:14:33Z</time></trkpt>
<trkpt lat="46.13701598" lon="7.43856012"><ele>2220.302246</ele><time>2007-08-18T06:14:38Z</time></trkpt>
<trkpt lat="46.13686527" lon="7.43854294"><ele>2221.744141</ele><time>2007-08-18T06:14:46Z</time></trkpt>
<trkpt lat="46.13662798" lon="7.43858309"><ele>2225.108643</ele><time>2007-08-18T06:15:01Z</time></trkpt>
<trkpt lat="46.13651373" lon="7.43858543"><ele>2227.511963</ele><time>2007-08-18T06:15:07Z</time></trkpt>
<trkpt lat="46.13626479" lon="7.43869783"><ele>2228.473389</ele><time>2007-08-18T06:15:20Z</time></trkpt>
<trkpt lat="46.13608718" lon="7.43872197"><ele>2231.837891</ele><time>2007-08-18T06:15:31Z</time></trkpt>
<trkpt lat="46.13600956" lon="7.43870932"><ele>2233.279785</ele><time>2007-08-18T06:15:37Z</time></trkpt>
<trkpt lat="46.13595902" lon="7.43872717"><ele>2234.241211</ele><time>2007-08-18T06:15:42Z</time></trkpt>
<trkpt lat="46.13581628" lon="7.43872290"><ele>2237.605957</ele><time>2007-08-18T06:15:53Z</time></trkpt>
<trkpt lat="46.13558284" lon="7.43874972"><ele>2239.528564</ele><time>2007-08-18T06:16:09Z</time></trkpt>
<trkpt lat="46.13527866" lon="7.43876900"><ele>2240.489746</ele><time>2007-08-18T06:16:20Z</time></trkpt>
<trkpt lat="46.13515436" lon="7.43877989"><ele>2240.489746</ele><time>2007-08-18T06:16:23Z</time></trkpt>
<trkpt lat="46.13497364" lon="7.43874276"><ele>2240.489746</ele><time>2007-08-18T06:16:28Z</time></trkpt>
<trkpt lat="46.13488555" lon="7.43866850"><ele>2239.047852</ele><time>2007-08-18T06:16:30Z</time></trkpt>
<trkpt lat="46.13479000" lon="7.43863472"><ele>2238.567383</ele><time>2007-08-18T06:16:32Z</time></trkpt>
<trkpt lat="46.13462127" lon="7.43869976"><ele>2238.567383</ele><time>2007-08-18T06:16:38Z</time></trkpt>
<trkpt lat="46.13446377" lon="7.43864117"><ele>2237.125244</ele><time>2007-08-18T06:16:47Z</time></trkpt>
<trkpt lat="46.13436235" lon="7.43863036"><ele>2236.164063</ele><time>2007-08-18T06:16:54Z</time></trkpt>
<trkpt lat="46.13415297" lon="7.43867327"><ele>2236.164063</ele><time>2007-08-18T06:17:04Z</time></trkpt>
<trkpt lat="46.13387955" lon="7.43890059"><ele>2234.721924</ele><time>2007-08-18T06:17:16Z</time></trkpt>
<trkpt lat="46.13369339" lon="7.43917954"><ele>2237.125244</ele><time>2007-08-18T06:17:28Z</time></trkpt>
<trkpt lat="46.13343699" lon="7.43939479"><ele>2235.683105</ele><time>2007-08-18T06:17:41Z</time></trkpt>
<trkpt lat="46.13343338" lon="7.43941373"><ele>2235.683105</ele><time>2007-08-18T06:17:43Z</time></trkpt>
<trkpt lat="46.13340405" lon="7.43950250"><ele>2235.683105</ele><time>2007-08-18T06:17:48Z</time></trkpt>
<trkpt lat="46.13333909" lon="7.43957173"><ele>2237.125244</ele><time>2007-08-18T06:17:56Z</time></trkpt>
<trkpt lat="46.13326675" lon="7.43962898"><ele>2240.489746</ele><time>2007-08-18T06:18:07Z</time></trkpt>
<trkpt lat="46.13319919" lon="7.43985839"><ele>2240.009277</ele><time>2007-08-18T06:18:19Z</time></trkpt>
<trkpt lat="46.13313122" lon="7.43986979"><ele>2237.605957</ele><time>2007-08-18T06:18:29Z</time></trkpt>
<trkpt lat="46.13297892" lon="7.43996023"><ele>2238.567383</ele><time>2007-08-18T06:18:44Z</time></trkpt>
<trkpt lat="46.13296953" lon="7.43996367"><ele>2239.047852</ele><time>2007-08-18T06:18:45Z</time></trkpt>
<trkpt lat="46.13290725" lon="7.43989385"><ele>2239.528564</ele><time>2007-08-18T06:18:51Z</time></trkpt>
<trkpt lat="46.13279209" lon="7.43990952"><ele>2240.970459</ele><time>2007-08-18T06:18:59Z</time></trkpt>
<trkpt lat="46.13258354" lon="7.43998613"><ele>2242.412598</ele><time>2007-08-18T06:19:14Z</time></trkpt>
<trkpt lat="46.13251708" lon="7.43991824"><ele>2242.893066</ele><time>2007-08-18T06:19:20Z</time></trkpt>
<trkpt lat="46.13243745" lon="7.43985462"><ele>2242.412598</ele><time>2007-08-18T06:19:27Z</time></trkpt>
<trkpt lat="46.13220728" lon="7.43975270"><ele>2240.489746</ele><time>2007-08-18T06:19:40Z</time></trkpt>
<trkpt lat="46.13194484" lon="7.43972587"><ele>2239.528564</ele><time>2007-08-18T06:19:52Z</time></trkpt>
<trkpt lat="46.13176379" lon="7.43979645"><ele>2240.489746</ele><time>2007-08-18T06:20:05Z</time></trkpt>
<trkpt lat="46.13155005" lon="7.43988354"><ele>2243.373779</ele><time>2007-08-18T06:20:22Z</time></trkpt>
<trkpt lat="46.13135559" lon="7.43993534"><ele>2244.815674</ele><time>2007-08-18T06:20:38Z</time></trkpt>
<trkpt lat="46.13119332" lon="7.43998697"><ele>2243.373779</ele><time>2007-08-18T06:20:51Z</time></trkpt>
<trkpt lat="46.13118209" lon="7.44000382"><ele>2243.373779</ele><time>2007-08-18T06:20:52Z</time></trkpt>
<trkpt lat="46.13107832" lon="7.44010583"><ele>2240.489746</ele><time>2007-08-18T06:21:03Z</time></trkpt>
<trkpt lat="46.13092552" lon="7.44019585"><ele>2239.047852</ele><time>2007-08-18T06:21:14Z</time></trkpt>
<trkpt lat="46.13079996" lon="7.44023952"><ele>2236.164063</ele><time>2007-08-18T06:21:26Z</time></trkpt>
<trkpt lat="46.13072528" lon="7.44029752"><ele>2234.241211</ele><time>2007-08-18T06:21:32Z</time></trkpt>
<trkpt lat="46.13069627" lon="7.44033474"><ele>2232.799072</ele><time>2007-08-18T06:21:35Z</time></trkpt>
<trkpt lat="46.13058932" lon="7.44044538"><ele>2232.799072</ele><time>2007-08-18T06:21:41Z</time></trkpt>
<trkpt lat="46.13041062" lon="7.44057789"><ele>2232.318604</ele><time>2007-08-18T06:21:53Z</time></trkpt>
<trkpt lat="46.13036653" lon="7.44062684"><ele>2232.318604</ele><time>2007-08-18T06:21:57Z</time></trkpt>
<trkpt lat="46.13023703" lon="7.44075065"><ele>2230.876709</ele><time>2007-08-18T06:22:11Z</time></trkpt>
<trkpt lat="46.13017115" lon="7.44084762"><ele>2230.876709</ele><time>2007-08-18T06:22:18Z</time></trkpt>
<trkpt lat="46.13003880" lon="7.44105508"><ele>2230.876709</ele><time>2007-08-18T06:22:28Z</time></trkpt>
<trkpt lat="46.12984836" lon="7.44130854"><ele>2229.915283</ele><time>2007-08-18T06:22:41Z</time></trkpt>
<trkpt lat="46.12974602" lon="7.44141567"><ele>2229.43457</ele><time>2007-08-18T06:22:51Z</time></trkpt>
<trkpt lat="46.12967863" lon="7.44151549"><ele>2227.031494</ele><time>2007-08-18T06:22:56Z</time></trkpt>
<trkpt lat="46.12957612" lon="7.44167039"><ele>2225.108643</ele><time>2007-08-18T06:23:06Z</time></trkpt>
<trkpt lat="46.12940446" lon="7.44184222"><ele>2223.666748</ele><time>2007-08-18T06:23:19Z</time></trkpt>
<trkpt lat="46.12934888" lon="7.44186049"><ele>2222.705566</ele><time>2007-08-18T06:23:23Z</time></trkpt>
<trkpt lat="46.12923464" lon="7.44196602"><ele>2219.821289</ele><time>2007-08-18T06:23:35Z</time></trkpt>
<trkpt lat="46.12922022" lon="7.44197985"><ele>2219.821289</ele><time>2007-08-18T06:23:37Z</time></trkpt>
<trkpt lat="46.12914235" lon="7.44201179"><ele>2216.9375</ele><time>2007-08-18T06:23:42Z</time></trkpt>
<trkpt lat="46.12911587" lon="7.44202587"><ele>2215.976074</ele><time>2007-08-18T06:23:44Z</time></trkpt>
<trkpt lat="46.12904479" lon="7.44210843"><ele>2213.092285</ele><time>2007-08-18T06:23:51Z</time></trkpt>
<trkpt lat="46.12903188" lon="7.44211983"><ele>2213.092285</ele><time>2007-08-18T06:23:52Z</time></trkpt>
<trkpt lat="46.12886240" lon="7.44227196"><ele>2210.208252</ele><time>2007-08-18T06:24:04Z</time></trkpt>
<trkpt lat="46.12884865" lon="7.44233759"><ele>2210.208252</ele><time>2007-08-18T06:24:07Z</time></trkpt>
<trkpt lat="46.12885427" lon="7.44242954"><ele>2210.688965</ele><time>2007-08-18T06:24:12Z</time></trkpt>
<trkpt lat="46.12876777" lon="7.44259944"><ele>2210.208252</ele><time>2007-08-18T06:24:23Z</time></trkpt>
<trkpt lat="46.12871697" lon="7.44261897"><ele>2210.208252</ele><time>2007-08-18T06:24:26Z</time></trkpt>
<trkpt lat="46.12849376" lon="7.44269407"><ele>2208.285645</ele><time>2007-08-18T06:24:40Z</time></trkpt>
<trkpt lat="46.12842109" lon="7.44292743"><ele>2209.24707</ele><time>2007-08-18T06:24:52Z</time></trkpt>
<trkpt lat="46.12842897" lon="7.44328223"><ele>2211.650391</ele><time>2007-08-18T06:25:03Z</time></trkpt>
<trkpt lat="46.12842025" lon="7.44339664"><ele>2213.092285</ele><time>2007-08-18T06:25:06Z</time></trkpt>
<trkpt lat="46.12842184" lon="7.44343218"><ele>2213.572754</ele><time>2007-08-18T06:25:07Z</time></trkpt>
<trkpt lat="46.12825505" lon="7.44361206"><ele>2212.611572</ele><time>2007-08-18T06:25:15Z</time></trkpt>
<trkpt lat="46.12825429" lon="7.44363176"><ele>2213.572754</ele><time>2007-08-18T06:25:17Z</time></trkpt>
<trkpt lat="46.12825245" lon="7.44370879"><ele>2214.053467</ele><time>2007-08-18T06:25:22Z</time></trkpt>
<trkpt lat="46.12812554" lon="7.44383058"><ele>2214.053467</ele><time>2007-08-18T06:25:31Z</time></trkpt>
<trkpt lat="46.12810744" lon="7.44390065"><ele>2215.976074</ele><time>2007-08-18T06:25:35Z</time></trkpt>
<trkpt lat="46.12810979" lon="7.44398799"><ele>2216.456787</ele><time>2007-08-18T06:25:40Z</time></trkpt>
<trkpt lat="46.12804038" lon="7.44420927"><ele>2218.379395</ele><time>2007-08-18T06:25:56Z</time></trkpt>
<trkpt lat="46.12791650" lon="7.44429703"><ele>2216.9375</ele><time>2007-08-18T06:26:09Z</time></trkpt>
<trkpt lat="46.12781525" lon="7.44439837"><ele>2214.053467</ele><time>2007-08-18T06:26:15Z</time></trkpt>
<trkpt lat="46.12778960" lon="7.44442527"><ele>2213.092285</ele><time>2007-08-18T06:26:17Z</time></trkpt>
<trkpt lat="46.12770787" lon="7.44455419"><ele>2209.727539</ele><time>2007-08-18T06:26:23Z</time></trkpt>
<trkpt lat="46.12760654" lon="7.44474546"><ele>2208.285645</ele><time>2007-08-18T06:26:32Z</time></trkpt>
<trkpt lat="46.12755516" lon="7.44478100"><ele>2207.805176</ele><time>2007-08-18T06:26:38Z</time></trkpt>
<trkpt lat="46.12748056" lon="7.44518040"><ele>2206.84375</ele><time>2007-08-18T06:26:47Z</time></trkpt>
<trkpt lat="46.12750604" lon="7.44574626"><ele>2207.324463</ele><time>2007-08-18T06:27:00Z</time></trkpt>
<trkpt lat="46.12761634" lon="7.44594273"><ele>2208.766357</ele><time>2007-08-18T06:27:09Z</time></trkpt>
<trkpt lat="46.12764484" lon="7.44607936"><ele>2209.24707</ele><time>2007-08-18T06:27:20Z</time></trkpt>
<trkpt lat="46.12773889" lon="7.44621347"><ele>2210.688965</ele><time>2007-08-18T06:27:35Z</time></trkpt>
<trkpt lat="46.12778055" lon="7.44647733"><ele>2211.169678</ele><time>2007-08-18T06:27:46Z</time></trkpt>
<trkpt lat="46.12780100" lon="7.44667590"><ele>2212.130859</ele><time>2007-08-18T06:27:59Z</time></trkpt>
<trkpt lat="46.12780469" lon="7.44668839"><ele>2212.130859</ele><time>2007-08-18T06:28:00Z</time></trkpt>
<trkpt lat="46.12783369" lon="7.44678662"><ele>2211.650391</ele><time>2007-08-18T06:28:05Z</time></trkpt>
<trkpt lat="46.12789479" lon="7.44702123"><ele>2211.169678</ele><time>2007-08-18T06:28:17Z</time></trkpt>
<trkpt lat="46.12790057" lon="7.44715425"><ele>2212.130859</ele><time>2007-08-18T06:28:27Z</time></trkpt>
<trkpt lat="46.12793854" lon="7.44730395"><ele>2210.208252</ele><time>2007-08-18T06:28:39Z</time></trkpt>
<trkpt lat="46.12802764" lon="7.44754150"><ele>2210.208252</ele><time>2007-08-18T06:28:53Z</time></trkpt>
<trkpt lat="46.12810643" lon="7.44778357"><ele>2213.092285</ele><time>2007-08-18T06:29:09Z</time></trkpt>
<trkpt lat="46.12813728" lon="7.44787937"><ele>2215.014893</ele><time>2007-08-18T06:29:20Z</time></trkpt>
<trkpt lat="46.12819587" lon="7.44816092"><ele>2216.456787</ele><time>2007-08-18T06:29:34Z</time></trkpt>
<trkpt lat="46.12818707" lon="7.44820836"><ele>2217.898682</ele><time>2007-08-18T06:29:37Z</time></trkpt>
<trkpt lat="46.12817885" lon="7.44836309"><ele>2218.379395</ele><time>2007-08-18T06:29:46Z</time></trkpt>
<trkpt lat="46.12814868" lon="7.44841699"><ele>2218.860107</ele><time>2007-08-18T06:29:50Z</time></trkpt>
<trkpt lat="46.12813317" lon="7.44854347"><ele>2219.821289</ele><time>2007-08-18T06:29:56Z</time></trkpt>
<trkpt lat="46.12811582" lon="7.44867423"><ele>2220.782959</ele><time>2007-08-18T06:30:06Z</time></trkpt>
<trkpt lat="46.12799663" lon="7.44904948"><ele>2221.744141</ele><time>2007-08-18T06:30:21Z</time></trkpt>
<trkpt lat="46.12786948" lon="7.44951208"><ele>2222.224854</ele><time>2007-08-18T06:30:36Z</time></trkpt>
<trkpt lat="46.12771332" lon="7.44991709"><ele>2222.705566</ele><time>2007-08-18T06:30:49Z</time></trkpt>
<trkpt lat="46.12763177" lon="7.45009638"><ele>2221.744141</ele><time>2007-08-18T06:30:53Z</time></trkpt>
<trkpt lat="46.12741258" lon="7.45056703"><ele>2219.821289</ele><time>2007-08-18T06:31:02Z</time></trkpt>
<trkpt lat="46.12729917" lon="7.45090356"><ele>2214.53418</ele><time>2007-08-18T06:31:07Z</time></trkpt>
<trkpt lat="46.12717286" lon="7.45107422"><ele>2213.572754</ele><time>2007-08-18T06:31:10Z</time></trkpt>
<trkpt lat="46.12697848" lon="7.45139709"><ele>2213.092285</ele><time>2007-08-18T06:31:15Z</time></trkpt>
<trkpt lat="46.12690380" lon="7.45155986"><ele>2212.130859</ele><time>2007-08-18T06:31:17Z</time></trkpt>
<trkpt lat="46.12681604" lon="7.45182674"><ele>2209.727539</ele><time>2007-08-18T06:31:20Z</time></trkpt>
<trkpt lat="46.12674505" lon="7.45199547"><ele>2208.285645</ele><time>2007-08-18T06:31:22Z</time></trkpt>
<trkpt lat="46.12666676" lon="7.45217225"><ele>2206.363037</ele><time>2007-08-18T06:31:24Z</time></trkpt>
<trkpt lat="46.12641823" lon="7.45264356"><ele>2202.517578</ele><time>2007-08-18T06:31:29Z</time></trkpt>
<trkpt lat="46.12635872" lon="7.45273543"><ele>2202.517578</ele><time>2007-08-18T06:31:30Z</time></trkpt>
<trkpt lat="46.12608497" lon="7.45308889"><ele>2198.19165</ele><time>2007-08-18T06:31:34Z</time></trkpt>
<trkpt lat="46.12588246" lon="7.45338243"><ele>2194.346436</ele><time>2007-08-18T06:31:37Z</time></trkpt>
<trkpt lat="46.12567174" lon="7.45362424"><ele>2191.462646</ele><time>2007-08-18T06:31:40Z</time></trkpt>
<trkpt lat="46.12541475" lon="7.45382993"><ele>2187.617188</ele><time>2007-08-18T06:31:43Z</time></trkpt>
<trkpt lat="46.12511217" lon="7.45401417"><ele>2184.252686</ele><time>2007-08-18T06:31:46Z</time></trkpt>
<trkpt lat="46.12501829" lon="7.45407712"><ele>2180.888184</ele><time>2007-08-18T06:31:47Z</time></trkpt>
<trkpt lat="46.12478049" lon="7.45426445"><ele>2178.00415</ele><time>2007-08-18T06:31:50Z</time></trkpt>
<trkpt lat="46.12456877" lon="7.45447534"><ele>2174.158936</ele><time>2007-08-18T06:31:53Z</time></trkpt>
<trkpt lat="46.12403736" lon="7.45483937"><ele>2170.794189</ele><time>2007-08-18T06:32:00Z</time></trkpt>
<trkpt lat="46.12382647" lon="7.45494607"><ele>2165.987549</ele><time>2007-08-18T06:32:03Z</time></trkpt>
<trkpt lat="46.12374424" lon="7.45496484"><ele>2164.545654</ele><time>2007-08-18T06:32:04Z</time></trkpt>
<trkpt lat="46.12329204" lon="7.45501782"><ele>2161.181152</ele><time>2007-08-18T06:32:09Z</time></trkpt>
<trkpt lat="46.12309104" lon="7.45504715"><ele>2158.777832</ele><time>2007-08-18T06:32:11Z</time></trkpt>
<trkpt lat="46.12257564" lon="7.45532954"><ele>2154.932373</ele><time>2007-08-18T06:32:18Z</time></trkpt>
<trkpt lat="46.12263825" lon="7.45540909"><ele>2152.529053</ele><time>2007-08-18T06:32:22Z</time></trkpt>
<trkpt lat="46.12281854" lon="7.45535745"><ele>2152.04834</ele><time>2007-08-18T06:32:25Z</time></trkpt>
<trkpt lat="46.12297579" lon="7.45534882"><ele>2151.087158</ele><time>2007-08-18T06:32:27Z</time></trkpt>
<trkpt lat="46.12315516" lon="7.45538319"><ele>2149.164551</ele><time>2007-08-18T06:32:29Z</time></trkpt>
<trkpt lat="46.12381674" lon="7.45554848"><ele>2147.241943</ele><time>2007-08-18T06:32:36Z</time></trkpt>
<trkpt lat="46.12411522" lon="7.45554538"><ele>2142.916016</ele><time>2007-08-18T06:32:39Z</time></trkpt>
<trkpt lat="46.12421924" lon="7.45552727"><ele>2142.435547</ele><time>2007-08-18T06:32:40Z</time></trkpt>
<trkpt lat="46.12466826" lon="7.45546374"><ele>2137.628662</ele><time>2007-08-18T06:32:44Z</time></trkpt>
<trkpt lat="46.12501184" lon="7.45541395"><ele>2133.783447</ele><time>2007-08-18T06:32:47Z</time></trkpt>
<trkpt lat="46.12519464" lon="7.45537925"><ele>2130.418945</ele><time>2007-08-18T06:32:49Z</time></trkpt>
<trkpt lat="46.12527947" lon="7.45536475"><ele>2130.418945</ele><time>2007-08-18T06:32:50Z</time></trkpt>
<trkpt lat="46.12554777" lon="7.45541420"><ele>2126.57373</ele><time>2007-08-18T06:32:53Z</time></trkpt>
<trkpt lat="46.12598623" lon="7.45557480"><ele>2122.728271</ele><time>2007-08-18T06:32:57Z</time></trkpt>
<trkpt lat="46.12621749" lon="7.45563607"><ele>2115.999023</ele><time>2007-08-18T06:32:59Z</time></trkpt>
<trkpt lat="46.12631690" lon="7.45565727"><ele>2115.037842</ele><time>2007-08-18T06:33:00Z</time></trkpt>
<trkpt lat="46.12661839" lon="7.45572140"><ele>2109.750488</ele><time>2007-08-18T06:33:05Z</time></trkpt>
<trkpt lat="46.12646459" lon="7.45590177"><ele>2108.789307</ele><time>2007-08-18T06:33:09Z</time></trkpt>
<trkpt lat="46.12631262" lon="7.45599682"><ele>2106.385742</ele><time>2007-08-18T06:33:11Z</time></trkpt>
<trkpt lat="46.12592136" lon="7.45611258"><ele>2104.463135</ele><time>2007-08-18T06:33:15Z</time></trkpt>
<trkpt lat="46.12561994" lon="7.45626362"><ele>2099.656738</ele><time>2007-08-18T06:33:18Z</time></trkpt>
<trkpt lat="46.12552808" lon="7.45632288"><ele>2097.253418</ele><time>2007-08-18T06:33:19Z</time></trkpt>
<trkpt lat="46.12517897" lon="7.45638415"><ele>2091.966064</ele><time>2007-08-18T06:33:23Z</time></trkpt>
<trkpt lat="46.12502684" lon="7.45649806"><ele>2090.043457</ele><time>2007-08-18T06:33:25Z</time></trkpt>
<trkpt lat="46.12479148" lon="7.45674793"><ele>2086.198242</ele><time>2007-08-18T06:33:28Z</time></trkpt>
<trkpt lat="46.12445544" lon="7.45694616"><ele>2082.833496</ele><time>2007-08-18T06:33:32Z</time></trkpt>
<trkpt lat="46.12435134" lon="7.45707717"><ele>2080.43042</ele><time>2007-08-18T06:33:36Z</time></trkpt>
<trkpt lat="46.12443122" lon="7.45712788"><ele>2079.468994</ele><time>2007-08-18T06:33:38Z</time></trkpt>
<trkpt lat="46.12471470" lon="7.45721094"><ele>2078.0271</ele><time>2007-08-18T06:33:42Z</time></trkpt>
<trkpt lat="46.12479357" lon="7.45725763"><ele>2076.585205</ele><time>2007-08-18T06:33:43Z</time></trkpt>
<trkpt lat="46.12508006" lon="7.45750456"><ele>2072.739746</ele><time>2007-08-18T06:33:47Z</time></trkpt>
<trkpt lat="46.12530696" lon="7.45759307"><ele>2069.375244</ele><time>2007-08-18T06:33:50Z</time></trkpt>
<trkpt lat="46.12556806" lon="7.45757044"><ele>2065.049316</ele><time>2007-08-18T06:33:53Z</time></trkpt>
<trkpt lat="46.12592722" lon="7.45747212"><ele>2062.645996</ele><time>2007-08-18T06:33:57Z</time></trkpt>
<trkpt lat="46.12601398" lon="7.45740633"><ele>2062.645996</ele><time>2007-08-18T06:33:58Z</time></trkpt>
<trkpt lat="46.12654899" lon="7.45708287"><ele>2063.126709</ele><time>2007-08-18T06:34:05Z</time></trkpt>
<trkpt lat="46.12667900" lon="7.45702369"><ele>2063.607178</ele><time>2007-08-18T06:34:07Z</time></trkpt>
<trkpt lat="46.12696867" lon="7.45691288"><ele>2066.010498</ele><time>2007-08-18T06:34:12Z</time></trkpt>
<trkpt lat="46.12726338" lon="7.45666679"><ele>2067.452393</ele><time>2007-08-18T06:34:18Z</time></trkpt>
<trkpt lat="46.12740344" lon="7.45651189"><ele>2066.491211</ele><time>2007-08-18T06:34:21Z</time></trkpt>
<trkpt lat="46.12755675" lon="7.45634677"><ele>2066.491211</ele><time>2007-08-18T06:34:24Z</time></trkpt>
<trkpt lat="46.12801733" lon="7.45577546"><ele>2062.165283</ele><time>2007-08-18T06:34:32Z</time></trkpt>
<trkpt lat="46.12809378" lon="7.45569097"><ele>2062.165283</ele><time>2007-08-18T06:34:33Z</time></trkpt>
<trkpt lat="46.12834758" lon="7.45539358"><ele>2057.839355</ele><time>2007-08-18T06:34:36Z</time></trkpt>
<trkpt lat="46.12851589" lon="7.45518889"><ele>2054.474609</ele><time>2007-08-18T06:34:38Z</time></trkpt>
<trkpt lat="46.12867079" lon="7.45500600"><ele>2050.629395</ele><time>2007-08-18T06:34:40Z</time></trkpt>
<trkpt lat="46.12880875" lon="7.45486879"><ele>2046.303711</ele><time>2007-08-18T06:34:42Z</time></trkpt>
<trkpt lat="46.12902920" lon="7.45487692"><ele>2043.900146</ele><time>2007-08-18T06:34:47Z</time></trkpt>
<trkpt lat="46.12895234" lon="7.45506979"><ele>2042.938721</ele><time>2007-08-18T06:34:49Z</time></trkpt>
<trkpt lat="46.12871387" lon="7.45553984"><ele>2038.613037</ele><time>2007-08-18T06:34:53Z</time></trkpt>
<trkpt lat="46.12864229" lon="7.45566398"><ele>2038.613037</ele><time>2007-08-18T06:34:54Z</time></trkpt>
<trkpt lat="46.12850776" lon="7.45591795"><ele>2035.248291</ele><time>2007-08-18T06:34:56Z</time></trkpt>
<trkpt lat="46.12827935" lon="7.45637200"><ele>2028.519287</ele><time>2007-08-18T06:35:00Z</time></trkpt>
<trkpt lat="46.12813384" lon="7.45658180"><ele>2023.712402</ele><time>2007-08-18T06:35:03Z</time></trkpt>
<trkpt lat="46.12821699" lon="7.45664944"><ele>2021.309082</ele><time>2007-08-18T06:35:08Z</time></trkpt>
<trkpt lat="46.12833526" lon="7.45656973"><ele>2020.3479</ele><time>2007-08-18T06:35:10Z</time></trkpt>
<trkpt lat="46.12885167" lon="7.45636320"><ele>2016.502686</ele><time>2007-08-18T06:35:16Z</time></trkpt>
<trkpt lat="46.12894714" lon="7.45632313"><ele>2014.580078</ele><time>2007-08-18T06:35:17Z</time></trkpt>
<trkpt lat="46.12926322" lon="7.45601795"><ele>2010.734619</ele><time>2007-08-18T06:35:21Z</time></trkpt>
<trkpt lat="46.12950227" lon="7.45571570"><ele>2003.524902</ele><time>2007-08-18T06:35:24Z</time></trkpt>
<trkpt lat="46.12963705" lon="7.45552844"><ele>2001.121582</ele><time>2007-08-18T06:35:26Z</time></trkpt>
<trkpt lat="46.12971584" lon="7.45537640"><ele>1999.679688</ele><time>2007-08-18T06:35:28Z</time></trkpt>
<trkpt lat="46.12974887" lon="7.45558226"><ele>1997.75708</ele><time>2007-08-18T06:35:34Z</time></trkpt>
<trkpt lat="46.12930739" lon="7.45680124"><ele>1994.39209</ele><time>2007-08-18T06:35:44Z</time></trkpt>
<trkpt lat="46.12922248" lon="7.45707063"><ele>1993.430908</ele><time>2007-08-18T06:35:46Z</time></trkpt>
<trkpt lat="46.12913305" lon="7.45731538"><ele>1990.546875</ele><time>2007-08-18T06:35:48Z</time></trkpt>
<trkpt lat="46.12878604" lon="7.45783866"><ele>1985.740479</ele><time>2007-08-18T06:35:53Z</time></trkpt>
<trkpt lat="46.12861413" lon="7.45801418"><ele>1983.817871</ele><time>2007-08-18T06:35:55Z</time></trkpt>
<trkpt lat="46.12846317" lon="7.45820504"><ele>1980.453369</ele><time>2007-08-18T06:35:57Z</time></trkpt>
<trkpt lat="46.12834993" lon="7.45840285"><ele>1979.010986</ele><time>2007-08-18T06:35:59Z</time></trkpt>
<trkpt lat="46.12807450" lon="7.45895379"><ele>1976.60791</ele><time>2007-08-18T06:36:05Z</time></trkpt>
<trkpt lat="46.12788297" lon="7.45902990"><ele>1973.243408</ele><time>2007-08-18T06:36:07Z</time></trkpt>
<trkpt lat="46.12759857" lon="7.45926216"><ele>1969.878662</ele><time>2007-08-18T06:36:10Z</time></trkpt>
<trkpt lat="46.12725366" lon="7.45963968"><ele>1964.11084</ele><time>2007-08-18T06:36:14Z</time></trkpt>
<trkpt lat="46.12717453" lon="7.45972585"><ele>1962.668701</ele><time>2007-08-18T06:36:15Z</time></trkpt>
<trkpt lat="46.12667095" lon="7.46000815"><ele>1957.381592</ele><time>2007-08-18T06:36:20Z</time></trkpt>
<trkpt lat="46.12636132" lon="7.46016808"><ele>1954.01709</ele><time>2007-08-18T06:36:23Z</time></trkpt>
<trkpt lat="46.12593904" lon="7.46031652"><ele>1950.171875</ele><time>2007-08-18T06:36:27Z</time></trkpt>
<trkpt lat="46.12562179" lon="7.46049279"><ele>1945.845703</ele><time>2007-08-18T06:36:30Z</time></trkpt>
<trkpt lat="46.12551869" lon="7.46057527"><ele>1945.845703</ele><time>2007-08-18T06:36:31Z</time></trkpt>
<trkpt lat="46.12531794" lon="7.46073964"><ele>1942.96167</ele><time>2007-08-18T06:36:33Z</time></trkpt>
<trkpt lat="46.12502952" lon="7.46087962"><ele>1938.635986</ele><time>2007-08-18T06:36:36Z</time></trkpt>
<trkpt lat="46.12481503" lon="7.46090728"><ele>1937.674561</ele><time>2007-08-18T06:36:38Z</time></trkpt>
<trkpt lat="46.12447145" lon="7.46097517"><ele>1934.790771</ele><time>2007-08-18T06:36:41Z</time></trkpt>
<trkpt lat="46.12424003" lon="7.46099864"><ele>1931.425781</ele><time>2007-08-18T06:36:43Z</time></trkpt>
<trkpt lat="46.12387626" lon="7.46101700"><ele>1928.061279</ele><time>2007-08-18T06:36:46Z</time></trkpt>
<trkpt lat="46.12362756" lon="7.46104382"><ele>1924.696777</ele><time>2007-08-18T06:36:48Z</time></trkpt>
<trkpt lat="46.12325097" lon="7.46106955"><ele>1921.812744</ele><time>2007-08-18T06:36:51Z</time></trkpt>
<trkpt lat="46.12292424" lon="7.46113962"><ele>1917.967529</ele><time>2007-08-18T06:36:54Z</time></trkpt>
<trkpt lat="46.12283464" lon="7.46117374"><ele>1916.525635</ele><time>2007-08-18T06:36:55Z</time></trkpt>
<trkpt lat="46.12261386" lon="7.46135504"><ele>1912.680176</ele><time>2007-08-18T06:36:58Z</time></trkpt>
<trkpt lat="46.12251990" lon="7.46144137"><ele>1909.315674</ele><time>2007-08-18T06:37:00Z</time></trkpt>
<trkpt lat="46.12252300" lon="7.46151614"><ele>1908.354248</ele><time>2007-08-18T06:37:02Z</time></trkpt>
<trkpt lat="46.12283707" lon="7.46140332"><ele>1905.950928</ele><time>2007-08-18T06:37:07Z</time></trkpt>
<trkpt lat="46.12292709" lon="7.46140567"><ele>1904.989746</ele><time>2007-08-18T06:37:08Z</time></trkpt>
<trkpt lat="46.12345238" lon="7.46149627"><ele>1900.18335</ele><time>2007-08-18T06:37:13Z</time></trkpt>
<trkpt lat="46.12388874" lon="7.46167590"><ele>1895.857178</ele><time>2007-08-18T06:37:17Z</time></trkpt>
<trkpt lat="46.12427616" lon="7.46187053"><ele>1892.492676</ele><time>2007-08-18T06:37:21Z</time></trkpt>
<trkpt lat="46.12435989" lon="7.46190095"><ele>1891.53125</ele><time>2007-08-18T06:37:22Z</time></trkpt>
<trkpt lat="46.12471369" lon="7.46210396"><ele>1887.686035</ele><time>2007-08-18T06:37:26Z</time></trkpt>
<trkpt lat="46.12493388" lon="7.46223732"><ele>1883.840576</ele><time>2007-08-18T06:37:29Z</time></trkpt>
<trkpt lat="46.12494386" lon="7.46237612"><ele>1881.437256</ele><time>2007-08-18T06:37:34Z</time></trkpt>
<trkpt lat="46.12445058" lon="7.46226498"><ele>1877.592041</ele><time>2007-08-18T06:37:41Z</time></trkpt>
<trkpt lat="46.12414163" lon="7.46232424"><ele>1875.188721</ele><time>2007-08-18T06:37:44Z</time></trkpt>
<trkpt lat="46.12393728" lon="7.46232692"><ele>1873.746826</ele><time>2007-08-18T06:37:46Z</time></trkpt>
<trkpt lat="46.12363293" lon="7.46247025"><ele>1868.94043</ele><time>2007-08-18T06:37:50Z</time></trkpt>
<trkpt lat="46.12344727" lon="7.46294056"><ele>1866.536865</ele><time>2007-08-18T06:37:54Z</time></trkpt>
<trkpt lat="46.12336244" lon="7.46331297"><ele>1862.210938</ele><time>2007-08-18T06:37:57Z</time></trkpt>
<trkpt lat="46.12310369" lon="7.46357096"><ele>1860.28833</ele><time>2007-08-18T06:38:01Z</time></trkpt>
<trkpt lat="46.12289239" lon="7.46374422"><ele>1857.404541</ele><time>2007-08-18T06:38:05Z</time></trkpt>
<trkpt lat="46.12292508" lon="7.46385687"><ele>1855.481934</ele><time>2007-08-18T06:38:07Z</time></trkpt>
<trkpt lat="46.12319707" lon="7.46384036"><ele>1855.001221</ele><time>2007-08-18T06:38:11Z</time></trkpt>
<trkpt lat="46.12388313" lon="7.46368747"><ele>1847.79126</ele><time>2007-08-18T06:38:18Z</time></trkpt>
<trkpt lat="46.12439820" lon="7.46354205"><ele>1842.023438</ele><time>2007-08-18T06:38:24Z</time></trkpt>
<trkpt lat="46.12449149" lon="7.46357826"><ele>1841.542725</ele><time>2007-08-18T06:38:25Z</time></trkpt>
<trkpt lat="46.12469072" lon="7.46365604"><ele>1840.581299</ele><time>2007-08-18T06:38:27Z</time></trkpt>
<trkpt lat="46.12489826" lon="7.46373625"><ele>1838.178223</ele><time>2007-08-18T06:38:29Z</time></trkpt>
<trkpt lat="46.12519414" lon="7.46391093"><ele>1835.293945</ele><time>2007-08-18T06:38:32Z</time></trkpt>
<trkpt lat="46.12534946" lon="7.46402015"><ele>1831.929443</ele><time>2007-08-18T06:38:34Z</time></trkpt>
<trkpt lat="46.12558306" lon="7.46400682"><ele>1828.084229</ele><time>2007-08-18T06:38:37Z</time></trkpt>
<trkpt lat="46.12568717" lon="7.46392066"><ele>1826.642334</ele><time>2007-08-18T06:38:39Z</time></trkpt>
<trkpt lat="46.12572279" lon="7.46400096"><ele>1825.200195</ele><time>2007-08-18T06:38:44Z</time></trkpt>
<trkpt lat="46.12567359" lon="7.46405334"><ele>1824.239014</ele><time>2007-08-18T06:38:45Z</time></trkpt>
<trkpt lat="46.12554945" lon="7.46418133"><ele>1823.277832</ele><time>2007-08-18T06:38:47Z</time></trkpt>
<trkpt lat="46.12533697" lon="7.46438216"><ele>1819.432373</ele><time>2007-08-18T06:38:50Z</time></trkpt>
<trkpt lat="46.12504595" lon="7.46435869"><ele>1817.029053</ele><time>2007-08-18T06:38:54Z</time></trkpt>
<trkpt lat="46.12483749" lon="7.46443396"><ele>1814.625732</ele><time>2007-08-18T06:38:58Z</time></trkpt>
<trkpt lat="46.12494855" lon="7.46458719"><ele>1813.183838</ele><time>2007-08-18T06:39:01Z</time></trkpt>
<trkpt lat="46.12519372" lon="7.46466572"><ele>1809.819092</ele><time>2007-08-18T06:39:04Z</time></trkpt>
<trkpt lat="46.12562933" lon="7.46453622"><ele>1805.973877</ele><time>2007-08-18T06:39:09Z</time></trkpt>
<trkpt lat="46.12580049" lon="7.46444637"><ele>1802.609131</ele><time>2007-08-18T06:39:14Z</time></trkpt>
<trkpt lat="46.12545172" lon="7.46483697"><ele>1799.244629</ele><time>2007-08-18T06:39:20Z</time></trkpt>
<trkpt lat="46.12508727" lon="7.46505112"><ele>1794.918701</ele><time>2007-08-18T06:39:24Z</time></trkpt>
<trkpt lat="46.12491938" lon="7.46510318"><ele>1791.073486</ele><time>2007-08-18T06:39:26Z</time></trkpt>
<trkpt lat="46.12468880" lon="7.46501969"><ele>1790.592773</ele><time>2007-08-18T06:39:29Z</time></trkpt>
<trkpt lat="46.12443399" lon="7.46498843"><ele>1786.747314</ele><time>2007-08-18T06:39:32Z</time></trkpt>
<trkpt lat="46.12417775" lon="7.46520954"><ele>1783.863525</ele><time>2007-08-18T06:39:35Z</time></trkpt>
<trkpt lat="46.12400458" lon="7.46540668"><ele>1783.382813</ele><time>2007-08-18T06:39:37Z</time></trkpt>
<trkpt lat="46.12350888" lon="7.46570625"><ele>1778.576416</ele><time>2007-08-18T06:39:42Z</time></trkpt>
<trkpt lat="46.12328516" lon="7.46577364"><ele>1776.173096</ele><time>2007-08-18T06:39:44Z</time></trkpt>
<trkpt lat="46.12297235" lon="7.46591614"><ele>1772.808594</ele><time>2007-08-18T06:39:47Z</time></trkpt>
<trkpt lat="46.12257295" lon="7.46593810"><ele>1766.559814</ele><time>2007-08-18T06:39:51Z</time></trkpt>
<trkpt lat="46.12236014" lon="7.46591723"><ele>1765.598633</ele><time>2007-08-18T06:39:53Z</time></trkpt>
<trkpt lat="46.12225662" lon="7.46593609"><ele>1764.637207</ele><time>2007-08-18T06:39:54Z</time></trkpt>
<trkpt lat="46.12189553" lon="7.46602736"><ele>1761.272705</ele><time>2007-08-18T06:39:58Z</time></trkpt>
<trkpt lat="46.12173527" lon="7.46605477"><ele>1757.908203</ele><time>2007-08-18T06:40:00Z</time></trkpt>
<trkpt lat="46.12160845" lon="7.46611906"><ele>1755.985107</ele><time>2007-08-18T06:40:02Z</time></trkpt>
<trkpt lat="46.12155229" lon="7.46642358"><ele>1755.023926</ele><time>2007-08-18T06:40:05Z</time></trkpt>
<trkpt lat="46.12159562" lon="7.46701660"><ele>1751.178711</ele><time>2007-08-18T06:40:10Z</time></trkpt>
<trkpt lat="46.12144198" lon="7.46716923"><ele>1746.372314</ele><time>2007-08-18T06:40:14Z</time></trkpt>
<trkpt lat="46.12113026" lon="7.46721433"><ele>1743.488281</ele><time>2007-08-18T06:40:18Z</time></trkpt>
<trkpt lat="46.12106807" lon="7.46726017"><ele>1743.007568</ele><time>2007-08-18T06:40:19Z</time></trkpt>
<trkpt lat="46.12083673" lon="7.46741340"><ele>1740.123779</ele><time>2007-08-18T06:40:25Z</time></trkpt>
<trkpt lat="46.12112397" lon="7.46735070"><ele>1738.200928</ele><time>2007-08-18T06:40:30Z</time></trkpt>
<trkpt lat="46.12147702" lon="7.46736210"><ele>1736.27832</ele><time>2007-08-18T06:40:34Z</time></trkpt>
<trkpt lat="46.12169285" lon="7.46739546"><ele>1732.433105</ele><time>2007-08-18T06:40:37Z</time></trkpt>
<trkpt lat="46.12184708" lon="7.46717275"><ele>1730.510498</ele><time>2007-08-18T06:40:40Z</time></trkpt>
<trkpt lat="46.12189293" lon="7.46703562"><ele>1729.549072</ele><time>2007-08-18T06:40:41Z</time></trkpt>
<trkpt lat="46.12196627" lon="7.46680998"><ele>1727.145996</ele><time>2007-08-18T06:40:43Z</time></trkpt>
<trkpt lat="46.12228394" lon="7.46677402"><ele>1726.18457</ele><time>2007-08-18T06:40:49Z</time></trkpt>
<trkpt lat="46.12244664" lon="7.46686128"><ele>1725.223145</ele><time>2007-08-18T06:40:51Z</time></trkpt>
<trkpt lat="46.12291317" lon="7.46706563"><ele>1719.935791</ele><time>2007-08-18T06:40:56Z</time></trkpt>
<trkpt lat="46.12300093" lon="7.46709614"><ele>1718.493896</ele><time>2007-08-18T06:40:57Z</time></trkpt>
<trkpt lat="46.12337896" lon="7.46706236"><ele>1716.090576</ele><time>2007-08-18T06:41:01Z</time></trkpt>
<trkpt lat="46.12374717" lon="7.46691509"><ele>1712.245361</ele><time>2007-08-18T06:41:05Z</time></trkpt>
<trkpt lat="46.12385069" lon="7.46689573"><ele>1711.764893</ele><time>2007-08-18T06:41:06Z</time></trkpt>
<trkpt lat="46.12407474" lon="7.46688877"><ele>1710.322754</ele><time>2007-08-18T06:41:08Z</time></trkpt>
<trkpt lat="46.12438948" lon="7.46698726"><ele>1706.958008</ele><time>2007-08-18T06:41:11Z</time></trkpt>
<trkpt lat="46.12458662" lon="7.46705859"><ele>1705.0354</ele><time>2007-08-18T06:41:13Z</time></trkpt>
<trkpt lat="46.12492282" lon="7.46710804"><ele>1703.112793</ele><time>2007-08-18T06:41:16Z</time></trkpt>
<trkpt lat="46.12533873" lon="7.46702607"><ele>1698.786865</ele><time>2007-08-18T06:41:20Z</time></trkpt>
<trkpt lat="46.12547326" lon="7.46699849"><ele>1694.94165</ele><time>2007-08-18T06:41:24Z</time></trkpt>
<trkpt lat="46.12539514" lon="7.46704677"><ele>1694.460938</ele><time>2007-08-18T06:41:26Z</time></trkpt>
<trkpt lat="46.12512776" lon="7.46721759"><ele>1691.576904</ele><time>2007-08-18T06:41:29Z</time></trkpt>
<trkpt lat="46.12502877" lon="7.46726378"><ele>1691.096191</ele><time>2007-08-18T06:41:30Z</time></trkpt>
<trkpt lat="46.12471134" lon="7.46753393"><ele>1689.173584</ele><time>2007-08-18T06:41:33Z</time></trkpt>
<trkpt lat="46.12392772" lon="7.46783610"><ele>1683.405762</ele><time>2007-08-18T06:41:40Z</time></trkpt>
<trkpt lat="46.12368783" lon="7.46793693"><ele>1682.44458</ele><time>2007-08-18T06:41:42Z</time></trkpt>
<trkpt lat="46.12346504" lon="7.46807347"><ele>1679.560547</ele><time>2007-08-18T06:41:44Z</time></trkpt>
<trkpt lat="46.12313228" lon="7.46827698"><ele>1674.753906</ele><time>2007-08-18T06:41:47Z</time></trkpt>
<trkpt lat="46.12303002" lon="7.46833264"><ele>1671.38916</ele><time>2007-08-18T06:41:48Z</time></trkpt>
<trkpt lat="46.12275878" lon="7.46832820"><ele>1669.947266</ele><time>2007-08-18T06:41:51Z</time></trkpt>
<trkpt lat="46.12258259" lon="7.46824798"><ele>1666.582764</ele><time>2007-08-18T06:41:53Z</time></trkpt>
<trkpt lat="46.12224078" lon="7.46844144"><ele>1662.256836</ele><time>2007-08-18T06:41:58Z</time></trkpt>
<trkpt lat="46.12212737" lon="7.46877939"><ele>1658.89209</ele><time>2007-08-18T06:42:01Z</time></trkpt>
<trkpt lat="46.12205805" lon="7.46887059"><ele>1657.930908</ele><time>2007-08-18T06:42:02Z</time></trkpt>
<trkpt lat="46.12183878" lon="7.46918550"><ele>1656.48877</ele><time>2007-08-18T06:42:05Z</time></trkpt>
<trkpt lat="46.12155505" lon="7.46936755"><ele>1653.124268</ele><time>2007-08-18T06:42:09Z</time></trkpt>
<trkpt lat="46.12136646" lon="7.46933612"><ele>1651.20166</ele><time>2007-08-18T06:42:11Z</time></trkpt>
<trkpt lat="46.12106698" lon="7.46937015"><ele>1647.356445</ele><time>2007-08-18T06:42:14Z</time></trkpt>
<trkpt lat="46.12098332" lon="7.46942983"><ele>1644.472412</ele><time>2007-08-18T06:42:15Z</time></trkpt>
<trkpt lat="46.12086263" lon="7.46964625"><ele>1642.549805</ele><time>2007-08-18T06:42:17Z</time></trkpt>
<trkpt lat="46.12071326" lon="7.46996912"><ele>1639.185059</ele><time>2007-08-18T06:42:20Z</time></trkpt>
<trkpt lat="46.12052768" lon="7.46971188"><ele>1636.781738</ele><time>2007-08-18T06:42:24Z</time></trkpt>
<trkpt lat="46.12041947" lon="7.46952538"><ele>1634.859375</ele><time>2007-08-18T06:42:26Z</time></trkpt>
<trkpt lat="46.12025552" lon="7.46942237"><ele>1633.417236</ele><time>2007-08-18T06:42:28Z</time></trkpt>
<trkpt lat="46.12006752" lon="7.46934677"><ele>1629.572021</ele><time>2007-08-18T06:42:30Z</time></trkpt>
<trkpt lat="46.11983752" lon="7.46908332"><ele>1626.207275</ele><time>2007-08-18T06:42:34Z</time></trkpt>
<trkpt lat="46.11968237" lon="7.46878375"><ele>1624.284668</ele><time>2007-08-18T06:42:37Z</time></trkpt>
<trkpt lat="46.11949218" lon="7.46865987"><ele>1621.400635</ele><time>2007-08-18T06:42:39Z</time></trkpt>
<trkpt lat="46.11917510" lon="7.46852987"><ele>1618.997559</ele><time>2007-08-18T06:42:42Z</time></trkpt>
<trkpt lat="46.11890436" lon="7.46835493"><ele>1616.113525</ele><time>2007-08-18T06:42:45Z</time></trkpt>
<trkpt lat="46.11853782" lon="7.46819962"><ele>1611.306885</ele><time>2007-08-18T06:42:49Z</time></trkpt>
<trkpt lat="46.11828963" lon="7.46808579"><ele>1607.942383</ele><time>2007-08-18T06:42:52Z</time></trkpt>
<trkpt lat="46.11815074" lon="7.46805545"><ele>1606.500244</ele><time>2007-08-18T06:42:54Z</time></trkpt>
<trkpt lat="46.11798218" lon="7.46843666"><ele>1603.616455</ele><time>2007-08-18T06:42:58Z</time></trkpt>
<trkpt lat="46.11796265" lon="7.46872609"><ele>1601.213135</ele><time>2007-08-18T06:43:00Z</time></trkpt>
<trkpt lat="46.11796685" lon="7.46917309"><ele>1597.36792</ele><time>2007-08-18T06:43:03Z</time></trkpt>
<trkpt lat="46.11805569" lon="7.46958129"><ele>1595.445068</ele><time>2007-08-18T06:43:06Z</time></trkpt>
<trkpt lat="46.11822509" lon="7.46996149"><ele>1591.599854</ele><time>2007-08-18T06:43:09Z</time></trkpt>
<trkpt lat="46.11828217" lon="7.47008613"><ele>1591.119141</ele><time>2007-08-18T06:43:10Z</time></trkpt>
<trkpt lat="46.11837203" lon="7.47087437"><ele>1584.390137</ele><time>2007-08-18T06:43:16Z</time></trkpt>
<trkpt lat="46.11833783" lon="7.47144442"><ele>1580.064209</ele><time>2007-08-18T06:43:20Z</time></trkpt>
<trkpt lat="46.11834873" lon="7.47171365"><ele>1577.180176</ele><time>2007-08-18T06:43:22Z</time></trkpt>
<trkpt lat="46.11838468" lon="7.47223676"><ele>1573.334961</ele><time>2007-08-18T06:43:26Z</time></trkpt>
<trkpt lat="46.11839969" lon="7.47251672"><ele>1571.412109</ele><time>2007-08-18T06:43:28Z</time></trkpt>
<trkpt lat="46.11843338" lon="7.47278913"><ele>1569.489746</ele><time>2007-08-18T06:43:30Z</time></trkpt>
<trkpt lat="46.11834068" lon="7.47333144"><ele>1564.202393</ele><time>2007-08-18T06:43:35Z</time></trkpt>
<trkpt lat="46.11827597" lon="7.47371810"><ele>1562.279541</ele><time>2007-08-18T06:43:38Z</time></trkpt>
<trkpt lat="46.11828276" lon="7.47400870"><ele>1561.318359</ele><time>2007-08-18T06:43:40Z</time></trkpt>
<trkpt lat="46.11825175" lon="7.47463265"><ele>1556.992432</ele><time>2007-08-18T06:43:44Z</time></trkpt>
<trkpt lat="46.11822593" lon="7.47490782"><ele>1554.589111</ele><time>2007-08-18T06:43:46Z</time></trkpt>
<trkpt lat="46.11815527" lon="7.47513698"><ele>1552.666504</ele><time>2007-08-18T06:43:48Z</time></trkpt>
<trkpt lat="46.11808402" lon="7.47576269"><ele>1549.302002</ele><time>2007-08-18T06:43:53Z</time></trkpt>
<trkpt lat="46.11823129" lon="7.47676064"><ele>1544.014648</ele><time>2007-08-18T06:43:59Z</time></trkpt>
<trkpt lat="46.11815896" lon="7.47740244"><ele>1538.246826</ele><time>2007-08-18T06:44:03Z</time></trkpt>
<trkpt lat="46.11809467" lon="7.47753840"><ele>1538.727539</ele><time>2007-08-18T06:44:04Z</time></trkpt>
<trkpt lat="46.11799157" lon="7.47780494"><ele>1535.843506</ele><time>2007-08-18T06:44:06Z</time></trkpt>
<trkpt lat="46.11795972" lon="7.47795238"><ele>1534.882324</ele><time>2007-08-18T06:44:07Z</time></trkpt>
<trkpt lat="46.11784539" lon="7.47853484"><ele>1531.036865</ele><time>2007-08-18T06:44:11Z</time></trkpt>
<trkpt lat="46.11764926" lon="7.47908494"><ele>1526.230225</ele><time>2007-08-18T06:44:15Z</time></trkpt>
<trkpt lat="46.11734726" lon="7.47958953"><ele>1520.943115</ele><time>2007-08-18T06:44:19Z</time></trkpt>
<trkpt lat="46.11722438" lon="7.47984108"><ele>1519.981689</ele><time>2007-08-18T06:44:21Z</time></trkpt>
<trkpt lat="46.11713964" lon="7.48050040"><ele>1515.655762</ele><time>2007-08-18T06:44:25Z</time></trkpt>
<trkpt lat="46.11709085" lon="7.48065948"><ele>1514.213623</ele><time>2007-08-18T06:44:26Z</time></trkpt>
<trkpt lat="46.11693067" lon="7.48114069"><ele>1510.849121</ele><time>2007-08-18T06:44:29Z</time></trkpt>
<trkpt lat="46.11657704" lon="7.48185156"><ele>1507.965332</ele><time>2007-08-18T06:44:34Z</time></trkpt>
<trkpt lat="46.11646037" lon="7.48206739"><ele>1505.081299</ele><time>2007-08-18T06:44:36Z</time></trkpt>
<trkpt lat="46.11619558" lon="7.48228717"><ele>1501.236084</ele><time>2007-08-18T06:44:41Z</time></trkpt>
<trkpt lat="46.11595703" lon="7.48234592"><ele>1503.639404</ele><time>2007-08-18T06:44:45Z</time></trkpt>
<trkpt lat="46.11577230" lon="7.48251524"><ele>1504.120117</ele><time>2007-08-18T06:44:49Z</time></trkpt>
<trkpt lat="46.11571429" lon="7.48262035"><ele>1503.639404</ele><time>2007-08-18T06:44:51Z</time></trkpt>
<trkpt lat="46.11566484" lon="7.48275513"><ele>1503.158691</ele><time>2007-08-18T06:44:53Z</time></trkpt>
<trkpt lat="46.11557633" lon="7.48312879"><ele>1500.755371</ele><time>2007-08-18T06:44:57Z</time></trkpt>
<trkpt lat="46.11555529" lon="7.48322133"><ele>1499.313232</ele><time>2007-08-18T06:44:58Z</time></trkpt>
<trkpt lat="46.11538949" lon="7.48347949"><ele>1493.064697</ele><time>2007-08-18T06:45:02Z</time></trkpt>
<trkpt lat="46.11525639" lon="7.48355225"><ele>1490.180908</ele><time>2007-08-18T06:45:04Z</time></trkpt>
<trkpt lat="46.11514466" lon="7.48366825"><ele>1486.335693</ele><time>2007-08-18T06:45:06Z</time></trkpt>
<trkpt lat="46.11510032" lon="7.48374956"><ele>1485.374268</ele><time>2007-08-18T06:45:07Z</time></trkpt>
<trkpt lat="46.11492120" lon="7.48411358"><ele>1481.04834</ele><time>2007-08-18T06:45:11Z</time></trkpt>
<trkpt lat="46.11476605" lon="7.48431944"><ele>1477.203125</ele><time>2007-08-18T06:45:14Z</time></trkpt>
<trkpt lat="46.11466756" lon="7.48446529"><ele>1473.838379</ele><time>2007-08-18T06:45:16Z</time></trkpt>
<trkpt lat="46.11459145" lon="7.48460175"><ele>1470.473877</ele><time>2007-08-18T06:45:18Z</time></trkpt>
<trkpt lat="46.11450613" lon="7.48479763"><ele>1466.147705</ele><time>2007-08-18T06:45:21Z</time></trkpt>
<trkpt lat="46.11447427" lon="7.48489109"><ele>1463.744385</ele><time>2007-08-18T06:45:23Z</time></trkpt>
<trkpt lat="46.11450068" lon="7.48505940"><ele>1458.937988</ele><time>2007-08-18T06:45:27Z</time></trkpt>
<trkpt lat="46.11455793" lon="7.48524204"><ele>1453.170166</ele><time>2007-08-18T06:45:30Z</time></trkpt>
<trkpt lat="46.11458198" lon="7.48531488"><ele>1452.20874</ele><time>2007-08-18T06:45:31Z</time></trkpt>
<trkpt lat="46.11460009" lon="7.48549266"><ele>1448.363281</ele><time>2007-08-18T06:45:34Z</time></trkpt>
<trkpt lat="46.11453848" lon="7.48569424"><ele>1445.479492</ele><time>2007-08-18T06:45:37Z</time></trkpt>
<trkpt lat="46.11447578" lon="7.48585518"><ele>1441.634277</ele><time>2007-08-18T06:45:41Z</time></trkpt>
<trkpt lat="46.11435207" lon="7.48612063"><ele>1436.347168</ele><time>2007-08-18T06:45:47Z</time></trkpt>
<trkpt lat="46.11432818" lon="7.48620462"><ele>1432.982178</ele><time>2007-08-18T06:45:49Z</time></trkpt>
<trkpt lat="46.11431988" lon="7.48626329"><ele>1432.020996</ele><time>2007-08-18T06:45:50Z</time></trkpt>
<trkpt lat="46.11423908" lon="7.48654752"><ele>1426.253174</ele><time>2007-08-18T06:45:54Z</time></trkpt>
<trkpt lat="46.11416289" lon="7.48665565"><ele>1424.811279</ele><time>2007-08-18T06:46:02Z</time></trkpt>
<trkpt lat="46.11409977" lon="7.48672932"><ele>1422.888672</ele><time>2007-08-18T06:46:11Z</time></trkpt>
<trkpt lat="46.11410354" lon="7.48677073"><ele>1421.446533</ele><time>2007-08-18T06:46:14Z</time></trkpt>
<trkpt lat="46.11408502" lon="7.48680602"><ele>1420.966064</ele><time>2007-08-18T06:46:18Z</time></trkpt>
<trkpt lat="46.11401293" lon="7.48698078"><ele>1417.601074</ele><time>2007-08-18T06:46:23Z</time></trkpt>
<trkpt lat="46.11400330" lon="7.48704105"><ele>1416.15918</ele><time>2007-08-18T06:46:24Z</time></trkpt>
<trkpt lat="46.11397790" lon="7.48725755"><ele>1410.391357</ele><time>2007-08-18T06:46:27Z</time></trkpt>
<trkpt lat="46.11395116" lon="7.48743919"><ele>1406.546143</ele><time>2007-08-18T06:46:29Z</time></trkpt>
<trkpt lat="46.11391336" lon="7.48769559"><ele>1402.700684</ele><time>2007-08-18T06:46:32Z</time></trkpt>
<trkpt lat="46.11388570" lon="7.48785275"><ele>1401.258789</ele><time>2007-08-18T06:46:34Z</time></trkpt>
<trkpt lat="46.11380699" lon="7.48807386"><ele>1396.932861</ele><time>2007-08-18T06:46:37Z</time></trkpt>
<trkpt lat="46.11359987" lon="7.48825818"><ele>1392.607178</ele><time>2007-08-18T06:46:42Z</time></trkpt>
<trkpt lat="46.11353374" lon="7.48829699"><ele>1392.607178</ele><time>2007-08-18T06:46:45Z</time></trkpt>
<trkpt lat="46.11347272" lon="7.48837528"><ele>1391.165039</ele><time>2007-08-18T06:46:48Z</time></trkpt>
<trkpt lat="46.11343182" lon="7.48845667"><ele>1389.242432</ele><time>2007-08-18T06:46:50Z</time></trkpt>
<trkpt lat="46.11336468" lon="7.48856085"><ele>1387.31958</ele><time>2007-08-18T06:46:52Z</time></trkpt>
<trkpt lat="46.11326326" lon="7.48890929"><ele>1384.435791</ele><time>2007-08-18T06:46:57Z</time></trkpt>
<trkpt lat="46.11333258" lon="7.48914884"><ele>1381.071289</ele><time>2007-08-18T06:47:01Z</time></trkpt>
<trkpt lat="46.11342335" lon="7.48949242"><ele>1376.264648</ele><time>2007-08-18T06:47:06Z</time></trkpt>
<trkpt lat="46.11338337" lon="7.48958152"><ele>1376.264648</ele><time>2007-08-18T06:47:07Z</time></trkpt>
<trkpt lat="46.11332838" lon="7.48967087"><ele>1375.303223</ele><time>2007-08-18T06:47:08Z</time></trkpt>
<trkpt lat="46.11319704" lon="7.48986893"><ele>1374.342041</ele><time>2007-08-18T06:47:10Z</time></trkpt>
<trkpt lat="46.11261450" lon="7.49094349"><ele>1371.457764</ele><time>2007-08-18T06:47:19Z</time></trkpt>
<trkpt lat="46.11258348" lon="7.49138656"><ele>1367.612549</ele><time>2007-08-18T06:47:23Z</time></trkpt>
<trkpt lat="46.11277099" lon="7.49132227"><ele>1366.170654</ele><time>2007-08-18T06:47:26Z</time></trkpt>
<trkpt lat="46.11283276" lon="7.49122504"><ele>1364.72876</ele><time>2007-08-18T06:47:27Z</time></trkpt>
<trkpt lat="46.11311339" lon="7.49061023"><ele>1361.844971</ele><time>2007-08-18T06:47:32Z</time></trkpt>
<trkpt lat="46.11342176" lon="7.49034964"><ele>1358.480225</ele><time>2007-08-18T06:47:36Z</time></trkpt>
<trkpt lat="46.11352745" lon="7.49042046"><ele>1358.480225</ele><time>2007-08-18T06:47:37Z</time></trkpt>
<trkpt lat="46.11367590" lon="7.49102815"><ele>1360.402832</ele><time>2007-08-18T06:47:42Z</time></trkpt>
<trkpt lat="46.11350658" lon="7.49159812"><ele>1362.325439</ele><time>2007-08-18T06:47:48Z</time></trkpt>
<trkpt lat="46.11327575" lon="7.49196818"><ele>1365.209473</ele><time>2007-08-18T06:47:55Z</time></trkpt>
<trkpt lat="46.11295187" lon="7.49231662"><ele>1368.093262</ele><time>2007-08-18T06:48:05Z</time></trkpt>
<trkpt lat="46.11278465" lon="7.49267972"><ele>1370.977295</ele><time>2007-08-18T06:48:13Z</time></trkpt>
<trkpt lat="46.11253453" lon="7.49359905"><ele>1373.861328</ele><time>2007-08-18T06:48:30Z</time></trkpt>
<trkpt lat="46.11230152" lon="7.49428905"><ele>1374.822754</ele><time>2007-08-18T06:48:42Z</time></trkpt>
<trkpt lat="46.11159367" lon="7.49544147"><ele>1378.187256</ele><time>2007-08-18T06:49:06Z</time></trkpt>
<trkpt lat="46.11098707" lon="7.49617766"><ele>1380.109863</ele><time>2007-08-18T06:49:22Z</time></trkpt>
<trkpt lat="46.11041852" lon="7.49724182"><ele>1381.551758</ele><time>2007-08-18T06:49:39Z</time></trkpt>
<trkpt lat="46.11038776" lon="7.49793786"><ele>1382.993652</ele><time>2007-08-18T06:49:48Z</time></trkpt>
<trkpt lat="46.11046010" lon="7.49823717"><ele>1383.474365</ele><time>2007-08-18T06:49:52Z</time></trkpt>
<trkpt lat="46.11036915" lon="7.49876507"><ele>1385.877686</ele><time>2007-08-18T06:50:01Z</time></trkpt>
<trkpt lat="46.11007093" lon="7.49914175"><ele>1389.723145</ele><time>2007-08-18T06:50:13Z</time></trkpt>
<trkpt lat="46.11004628" lon="7.49916933"><ele>1390.203857</ele><time>2007-08-18T06:50:14Z</time></trkpt>
<trkpt lat="46.10974613" lon="7.49938860"><ele>1393.087646</ele><time>2007-08-18T06:50:25Z</time></trkpt>
<trkpt lat="46.10953725" lon="7.49948063"><ele>1394.049072</ele><time>2007-08-18T06:50:32Z</time></trkpt>
<trkpt lat="46.10964202" lon="7.49957543"><ele>1395.490967</ele><time>2007-08-18T06:50:38Z</time></trkpt>
<trkpt lat="46.11011929" lon="7.49929296"><ele>1394.529541</ele><time>2007-08-18T06:50:46Z</time></trkpt>
<trkpt lat="46.11095815" lon="7.49847673"><ele>1393.087646</ele><time>2007-08-18T06:51:00Z</time></trkpt>
<trkpt lat="46.11172627" lon="7.49770115"><ele>1392.607178</ele><time>2007-08-18T06:51:13Z</time></trkpt>
<trkpt lat="46.11220563" lon="7.49723780"><ele>1391.645752</ele><time>2007-08-18T06:51:21Z</time></trkpt>
<trkpt lat="46.11266579" lon="7.49612669"><ele>1393.568359</ele><time>2007-08-18T06:51:34Z</time></trkpt>
<trkpt lat="46.11292538" lon="7.49557123"><ele>1394.049072</ele><time>2007-08-18T06:51:41Z</time></trkpt>
<trkpt lat="46.11327063" lon="7.49492096"><ele>1395.010254</ele><time>2007-08-18T06:51:50Z</time></trkpt>
<trkpt lat="46.11348219" lon="7.49420665"><ele>1396.452393</ele><time>2007-08-18T06:52:00Z</time></trkpt>
<trkpt lat="46.11359183" lon="7.49399778"><ele>1397.413574</ele><time>2007-08-18T06:52:04Z</time></trkpt>
<trkpt lat="46.11372527" lon="7.49373928"><ele>1398.374756</ele><time>2007-08-18T06:52:09Z</time></trkpt>
<trkpt lat="46.11410329" lon="7.49302472"><ele>1401.258789</ele><time>2007-08-18T06:52:23Z</time></trkpt>
<trkpt lat="46.11429423" lon="7.49267260"><ele>1402.219971</ele><time>2007-08-18T06:52:30Z</time></trkpt>
<trkpt lat="46.11489069" lon="7.49181714"><ele>1406.06543</ele><time>2007-08-18T06:52:49Z</time></trkpt>
<trkpt lat="46.11542302" lon="7.49108758"><ele>1409.430176</ele><time>2007-08-18T06:53:06Z</time></trkpt>
<trkpt lat="46.11559493" lon="7.49085456"><ele>1410.391357</ele><time>2007-08-18T06:53:11Z</time></trkpt>
<trkpt lat="46.11580934" lon="7.49080276"><ele>1411.352783</ele><time>2007-08-18T06:53:17Z</time></trkpt>
<trkpt lat="46.11593147" lon="7.49086328"><ele>1413.275391</ele><time>2007-08-18T06:53:23Z</time></trkpt>
<trkpt lat="46.11588277" lon="7.49103829"><ele>1417.601074</ele><time>2007-08-18T06:53:34Z</time></trkpt>
<trkpt lat="46.11585125" lon="7.49116000"><ele>1419.523926</ele><time>2007-08-18T06:53:45Z</time></trkpt>
<trkpt lat="46.11594966" lon="7.49122412"><ele>1420.004639</ele><time>2007-08-18T06:53:51Z</time></trkpt>
<trkpt lat="46.11606298" lon="7.49120878"><ele>1418.5625</ele><time>2007-08-18T06:53:54Z</time></trkpt>
<trkpt lat="46.11608494" lon="7.49117668"><ele>1418.5625</ele><time>2007-08-18T06:53:55Z</time></trkpt>
<trkpt lat="46.11639717" lon="7.49087979"><ele>1421.446533</ele><time>2007-08-18T06:54:09Z</time></trkpt>
<trkpt lat="46.11693017" lon="7.49036824"><ele>1423.369385</ele><time>2007-08-18T06:54:27Z</time></trkpt>
<trkpt lat="46.11721616" lon="7.49023187"><ele>1424.330566</ele><time>2007-08-18T06:54:35Z</time></trkpt>
<trkpt lat="46.11789485" lon="7.48999416"><ele>1427.2146</ele><time>2007-08-18T06:54:52Z</time></trkpt>
<trkpt lat="46.11849499" lon="7.48992375"><ele>1429.617676</ele><time>2007-08-18T06:55:08Z</time></trkpt>
<trkpt lat="46.11852248" lon="7.48994119"><ele>1428.656494</ele><time>2007-08-18T06:55:17Z</time></trkpt>
<trkpt lat="46.11851435" lon="7.48994479"><ele>1428.656494</ele><time>2007-08-18T06:55:36Z</time></trkpt>
<trkpt lat="46.11857344" lon="7.48989995"><ele>1430.098389</ele><time>2007-08-18T06:55:40Z</time></trkpt>
<trkpt lat="46.11897552" lon="7.48974949"><ele>1432.982178</ele><time>2007-08-18T06:55:52Z</time></trkpt>
<trkpt lat="46.11930384" lon="7.48965612"><ele>1436.347168</ele><time>2007-08-18T06:56:02Z</time></trkpt>
<trkpt lat="46.11976694" lon="7.48946945"><ele>1439.230957</ele><time>2007-08-18T06:56:18Z</time></trkpt>
<trkpt lat="46.11981967" lon="7.48943743"><ele>1440.192383</ele><time>2007-08-18T06:56:20Z</time></trkpt>
<trkpt lat="46.12014404" lon="7.48919277"><ele>1443.076172</ele><time>2007-08-18T06:56:33Z</time></trkpt>
<trkpt lat="46.12019693" lon="7.48916837"><ele>1443.556885</ele><time>2007-08-18T06:56:35Z</time></trkpt>
<trkpt lat="46.12023147" lon="7.48940047"><ele>1445.479492</ele><time>2007-08-18T06:56:43Z</time></trkpt>
<trkpt lat="46.12002050" lon="7.48973474"><ele>1448.363281</ele><time>2007-08-18T06:56:54Z</time></trkpt>
<trkpt lat="46.11978346" lon="7.49030605"><ele>1451.247314</ele><time>2007-08-18T06:57:12Z</time></trkpt>
<trkpt lat="46.11955253" lon="7.49064594"><ele>1454.612061</ele><time>2007-08-18T06:57:25Z</time></trkpt>
<trkpt lat="46.11924827" lon="7.49083268"><ele>1457.496094</ele><time>2007-08-18T06:57:38Z</time></trkpt>
<trkpt lat="46.11898072" lon="7.49112815"><ele>1460.860596</ele><time>2007-08-18T06:57:51Z</time></trkpt>
<trkpt lat="46.11869565" lon="7.49146082"><ele>1463.744385</ele><time>2007-08-18T06:58:06Z</time></trkpt>
<trkpt lat="46.11840882" lon="7.49180004"><ele>1466.628418</ele><time>2007-08-18T06:58:20Z</time></trkpt>
<trkpt lat="46.11816550" lon="7.49209919"><ele>1470.473877</ele><time>2007-08-18T06:58:32Z</time></trkpt>
<trkpt lat="46.11789845" lon="7.49241267"><ele>1473.35791</ele><time>2007-08-18T06:58:45Z</time></trkpt>
<trkpt lat="46.11786006" lon="7.49246540"><ele>1474.319092</ele><time>2007-08-18T06:58:47Z</time></trkpt>
<trkpt lat="46.11764473" lon="7.49288013"><ele>1477.203125</ele><time>2007-08-18T06:59:00Z</time></trkpt>
<trkpt lat="46.11753853" lon="7.49343535"><ele>1480.567627</ele><time>2007-08-18T06:59:15Z</time></trkpt>
<trkpt lat="46.11749000" lon="7.49393743"><ele>1482.970703</ele><time>2007-08-18T06:59:30Z</time></trkpt>
<trkpt lat="46.11758874" lon="7.49392846"><ele>1483.451416</ele><time>2007-08-18T06:59:34Z</time></trkpt>
<trkpt lat="46.11772905" lon="7.49356116"><ele>1486.335693</ele><time>2007-08-18T06:59:45Z</time></trkpt>
<trkpt lat="46.11792946" lon="7.49327685"><ele>1489.219482</ele><time>2007-08-18T06:59:57Z</time></trkpt>
<trkpt lat="46.11820623" lon="7.49310225"><ele>1492.103516</ele><time>2007-08-18T07:00:11Z</time></trkpt>
<trkpt lat="46.11847973" lon="7.49306755"><ele>1495.468018</ele><time>2007-08-18T07:00:25Z</time></trkpt>
<trkpt lat="46.11874628" lon="7.49302003"><ele>1498.83252</ele><time>2007-08-18T07:00:38Z</time></trkpt>
<trkpt lat="46.11903017" lon="7.49289715"><ele>1501.716797</ele><time>2007-08-18T07:00:53Z</time></trkpt>
<trkpt lat="46.11931474" lon="7.49278106"><ele>1504.120117</ele><time>2007-08-18T07:01:10Z</time></trkpt>
<trkpt lat="46.11954516" lon="7.49265877"><ele>1507.484619</ele><time>2007-08-18T07:01:24Z</time></trkpt>
<trkpt lat="46.11981673" lon="7.49251384"><ele>1509.887695</ele><time>2007-08-18T07:01:39Z</time></trkpt>
<trkpt lat="46.11995487" lon="7.49230488"><ele>1513.252441</ele><time>2007-08-18T07:01:50Z</time></trkpt>
<trkpt lat="46.12010046" lon="7.49198243"><ele>1516.136475</ele><time>2007-08-18T07:02:04Z</time></trkpt>
<trkpt lat="46.12011328" lon="7.49192887"><ele>1516.136475</ele><time>2007-08-18T07:02:06Z</time></trkpt>
<trkpt lat="46.12017422" lon="7.49184203"><ele>1517.0979</ele><time>2007-08-18T07:02:11Z</time></trkpt>
<trkpt lat="46.12038779" lon="7.49176609"><ele>1519.020508</ele><time>2007-08-18T07:02:24Z</time></trkpt>
<trkpt lat="46.12059105" lon="7.49170859"><ele>1522.38501</ele><time>2007-08-18T07:02:35Z</time></trkpt>
<trkpt lat="46.12068149" lon="7.49164020"><ele>1523.346436</ele><time>2007-08-18T07:02:40Z</time></trkpt>
<trkpt lat="46.12089406" lon="7.49147004"><ele>1525.749512</ele><time>2007-08-18T07:02:52Z</time></trkpt>
<trkpt lat="46.12108475" lon="7.49131422"><ele>1528.633545</ele><time>2007-08-18T07:03:02Z</time></trkpt>
<trkpt lat="46.12136822" lon="7.49104458"><ele>1532.479004</ele><time>2007-08-18T07:03:19Z</time></trkpt>
<trkpt lat="46.12145028" lon="7.49097534"><ele>1533.440186</ele><time>2007-08-18T07:03:24Z</time></trkpt>
<trkpt lat="46.12165958" lon="7.49085054"><ele>1535.843506</ele><time>2007-08-18T07:03:36Z</time></trkpt>
<trkpt lat="46.12194113" lon="7.49076529"><ele>1538.727539</ele><time>2007-08-18T07:03:50Z</time></trkpt>
<trkpt lat="46.12233935" lon="7.49060118"><ele>1541.611328</ele><time>2007-08-18T07:04:08Z</time></trkpt>
<trkpt lat="46.12270949" lon="7.49070679"><ele>1543.533936</ele><time>2007-08-18T07:04:23Z</time></trkpt>
<trkpt lat="46.12293765" lon="7.49070796"><ele>1546.417969</ele><time>2007-08-18T07:04:31Z</time></trkpt>
<trkpt lat="46.12332154" lon="7.49065557"><ele>1548.821289</ele><time>2007-08-18T07:04:46Z</time></trkpt>
<trkpt lat="46.12373519" lon="7.49047469"><ele>1550.263428</ele><time>2007-08-18T07:05:06Z</time></trkpt>
<trkpt lat="46.12373695" lon="7.49036933"><ele>1552.185791</ele><time>2007-08-18T07:05:10Z</time></trkpt>
<trkpt lat="46.12370007" lon="7.49027135"><ele>1554.108643</ele><time>2007-08-18T07:05:14Z</time></trkpt>
<trkpt lat="46.12363108" lon="7.49003448"><ele>1556.511719</ele><time>2007-08-18T07:05:23Z</time></trkpt>
<trkpt lat="46.12350016" lon="7.48954883"><ele>1559.395752</ele><time>2007-08-18T07:05:42Z</time></trkpt>
<trkpt lat="46.12342397" lon="7.48920869"><ele>1562.760254</ele><time>2007-08-18T07:05:55Z</time></trkpt>
<trkpt lat="46.12341726" lon="7.48915572"><ele>1563.240967</ele><time>2007-08-18T07:05:57Z</time></trkpt>
<trkpt lat="46.12344475" lon="7.48874836"><ele>1566.125</ele><time>2007-08-18T07:06:12Z</time></trkpt>
<trkpt lat="46.12349094" lon="7.48831484"><ele>1569.009033</ele><time>2007-08-18T07:06:28Z</time></trkpt>
<trkpt lat="46.12356445" lon="7.48793255"><ele>1572.373535</ele><time>2007-08-18T07:06:43Z</time></trkpt>
<trkpt lat="46.12365506" lon="7.48749794"><ele>1575.738037</ele><time>2007-08-18T07:07:00Z</time></trkpt>
<trkpt lat="46.12378129" lon="7.48702998"><ele>1578.62207</ele><time>2007-08-18T07:07:18Z</time></trkpt>
<trkpt lat="46.12392420" lon="7.48691917"><ele>1580.064209</ele><time>2007-08-18T07:07:27Z</time></trkpt>
<trkpt lat="46.12412914" lon="7.48708782"><ele>1583.428711</ele><time>2007-08-18T07:07:38Z</time></trkpt>
<trkpt lat="46.12446634" lon="7.48706276"><ele>1585.832031</ele><time>2007-08-18T07:07:54Z</time></trkpt>
<trkpt lat="46.12449777" lon="7.48710508"><ele>1586.312744</ele><time>2007-08-18T07:07:56Z</time></trkpt>
<trkpt lat="46.12443726" lon="7.48724925"><ele>1587.273926</ele><time>2007-08-18T07:08:02Z</time></trkpt>
<trkpt lat="46.12434723" lon="7.48726032"><ele>1588.716064</ele><time>2007-08-18T07:08:06Z</time></trkpt>
<trkpt lat="46.12403166" lon="7.48747104"><ele>1590.638428</ele><time>2007-08-18T07:08:23Z</time></trkpt>
<trkpt lat="46.12394147" lon="7.48778285"><ele>1594.003174</ele><time>2007-08-18T07:08:35Z</time></trkpt>
<trkpt lat="46.12390677" lon="7.48813086"><ele>1597.36792</ele><time>2007-08-18T07:08:48Z</time></trkpt>
<trkpt lat="46.12390182" lon="7.48850469"><ele>1600.732422</ele><time>2007-08-18T07:09:02Z</time></trkpt>
<trkpt lat="46.12396753" lon="7.48892857"><ele>1604.097168</ele><time>2007-08-18T07:09:18Z</time></trkpt>
<trkpt lat="46.12405177" lon="7.48904658"><ele>1605.05835</ele><time>2007-08-18T07:09:24Z</time></trkpt>
<trkpt lat="46.12427775" lon="7.48931967"><ele>1607.942383</ele><time>2007-08-18T07:09:40Z</time></trkpt>
<trkpt lat="46.12440524" lon="7.48972937"><ele>1611.306885</ele><time>2007-08-18T07:09:57Z</time></trkpt>
<trkpt lat="46.12453138" lon="7.49005996"><ele>1615.152344</ele><time>2007-08-18T07:10:11Z</time></trkpt>
<trkpt lat="46.12472392" lon="7.49044184"><ele>1617.55542</ele><time>2007-08-18T07:10:29Z</time></trkpt>
<trkpt lat="46.12487102" lon="7.49072732"><ele>1620.920166</ele><time>2007-08-18T07:10:43Z</time></trkpt>
<trkpt lat="46.12493154" lon="7.49048299"><ele>1622.842773</ele><time>2007-08-18T07:10:54Z</time></trkpt>
<trkpt lat="46.12485702" lon="7.49023849"><ele>1626.687988</ele><time>2007-08-18T07:11:04Z</time></trkpt>
<trkpt lat="46.12478469" lon="7.48987354"><ele>1630.052734</ele><time>2007-08-18T07:11:19Z</time></trkpt>
<trkpt lat="46.12471897" lon="7.48949208"><ele>1632.936523</ele><time>2007-08-18T07:11:34Z</time></trkpt>
<trkpt lat="46.12459970" lon="7.48895925"><ele>1634.859375</ele><time>2007-08-18T07:11:55Z</time></trkpt>
<trkpt lat="46.12454488" lon="7.48856697"><ele>1638.223877</ele><time>2007-08-18T07:12:12Z</time></trkpt>
<trkpt lat="46.12466156" lon="7.48831778"><ele>1641.107666</ele><time>2007-08-18T07:12:23Z</time></trkpt>
<trkpt lat="46.12484730" lon="7.48810127"><ele>1643.510986</ele><time>2007-08-18T07:12:36Z</time></trkpt>
<trkpt lat="46.12485367" lon="7.48829297"><ele>1644.472412</ele><time>2007-08-18T07:12:44Z</time></trkpt>
<trkpt lat="46.12467748" lon="7.48850604"><ele>1648.317627</ele><time>2007-08-18T07:12:55Z</time></trkpt>
<trkpt lat="46.12469215" lon="7.48874282"><ele>1648.317627</ele><time>2007-08-18T07:13:04Z</time></trkpt>
<trkpt lat="46.12478737" lon="7.48869798"><ele>1649.279053</ele><time>2007-08-18T07:13:09Z</time></trkpt>
<trkpt lat="46.12485182" lon="7.48853914"><ele>1651.20166</ele><time>2007-08-18T07:13:15Z</time></trkpt>
<trkpt lat="46.12503958" lon="7.48826900"><ele>1655.046875</ele><time>2007-08-18T07:13:28Z</time></trkpt>
<trkpt lat="46.12505299" lon="7.48824846"><ele>1655.046875</ele><time>2007-08-18T07:13:29Z</time></trkpt>
<trkpt lat="46.12533135" lon="7.48790212"><ele>1657.930908</ele><time>2007-08-18T07:13:48Z</time></trkpt>
<trkpt lat="46.12556890" lon="7.48759962"><ele>1661.295654</ele><time>2007-08-18T07:14:06Z</time></trkpt>
<trkpt lat="46.12558172" lon="7.48758034"><ele>1661.295654</ele><time>2007-08-18T07:14:07Z</time></trkpt>
<trkpt lat="46.12576713" lon="7.48744757"><ele>1665.140869</ele><time>2007-08-18T07:14:18Z</time></trkpt>
<trkpt lat="46.12609738" lon="7.48742276"><ele>1668.024658</ele><time>2007-08-18T07:14:35Z</time></trkpt>
<trkpt lat="46.12633282" lon="7.48714766"><ele>1670.427979</ele><time>2007-08-18T07:14:48Z</time></trkpt>
<trkpt lat="46.12666173" lon="7.48661902"><ele>1670.427979</ele><time>2007-08-18T07:15:04Z</time></trkpt>
<trkpt lat="46.12700363" lon="7.48628106"><ele>1673.79248</ele><time>2007-08-18T07:15:19Z</time></trkpt>
<trkpt lat="46.12727160" lon="7.48617553"><ele>1676.676758</ele><time>2007-08-18T07:15:31Z</time></trkpt>
<trkpt lat="46.12752297" lon="7.48609557"><ele>1680.04126</ele><time>2007-08-18T07:15:43Z</time></trkpt>
<trkpt lat="46.12761970" lon="7.48604855"><ele>1681.483154</ele><time>2007-08-18T07:15:48Z</time></trkpt>
<trkpt lat="46.12779857" lon="7.48566365"><ele>1684.8479</ele><time>2007-08-18T07:16:05Z</time></trkpt>
<trkpt lat="46.12787216" lon="7.48508345"><ele>1688.212402</ele><time>2007-08-18T07:16:26Z</time></trkpt>
<trkpt lat="46.12814398" lon="7.48475924"><ele>1691.576904</ele><time>2007-08-18T07:16:44Z</time></trkpt>
<trkpt lat="46.12827139" lon="7.48456956"><ele>1693.980469</ele><time>2007-08-18T07:16:54Z</time></trkpt>
<trkpt lat="46.12845026" lon="7.48415373"><ele>1696.864258</ele><time>2007-08-18T07:17:12Z</time></trkpt>
<trkpt lat="46.12846468" lon="7.48381150"><ele>1700.229004</ele><time>2007-08-18T07:17:26Z</time></trkpt>
<trkpt lat="46.12870968" lon="7.48356532"><ele>1703.593506</ele><time>2007-08-18T07:17:45Z</time></trkpt>
<trkpt lat="46.12883256" lon="7.48341998"><ele>1706.477295</ele><time>2007-08-18T07:17:55Z</time></trkpt>
<trkpt lat="46.12897136" lon="7.48308512"><ele>1709.842041</ele><time>2007-08-18T07:18:11Z</time></trkpt>
<trkpt lat="46.12908477" lon="7.48274725"><ele>1712.726074</ele><time>2007-08-18T07:18:27Z</time></trkpt>
<trkpt lat="46.12917747" lon="7.48251298"><ele>1715.610107</ele><time>2007-08-18T07:18:38Z</time></trkpt>
<trkpt lat="46.12935668" lon="7.48236252"><ele>1717.532471</ele><time>2007-08-18T07:18:52Z</time></trkpt>
<trkpt lat="46.12934293" lon="7.48252228"><ele>1718.013184</ele><time>2007-08-18T07:18:58Z</time></trkpt>
<trkpt lat="46.12921553" lon="7.48298496"><ele>1722.339111</ele><time>2007-08-18T07:19:16Z</time></trkpt>
<trkpt lat="46.12928770" lon="7.48347497"><ele>1725.703857</ele><time>2007-08-18T07:19:36Z</time></trkpt>
<trkpt lat="46.12932499" lon="7.48372005"><ele>1729.068359</ele><time>2007-08-18T07:19:46Z</time></trkpt>
<trkpt lat="46.12935374" lon="7.48421693"><ele>1731.47168</ele><time>2007-08-18T07:20:07Z</time></trkpt>
<trkpt lat="46.12937344" lon="7.48472328"><ele>1734.836426</ele><time>2007-08-18T07:20:28Z</time></trkpt>
<trkpt lat="46.12936900" lon="7.48501522"><ele>1739.162109</ele><time>2007-08-18T07:20:40Z</time></trkpt>
<trkpt lat="46.12936632" lon="7.48503987"><ele>1739.162109</ele><time>2007-08-18T07:20:41Z</time></trkpt>
<trkpt lat="46.12934452" lon="7.48513207"><ele>1739.162109</ele><time>2007-08-18T07:20:45Z</time></trkpt>
<trkpt lat="46.12922869" lon="7.48546433"><ele>1742.046387</ele><time>2007-08-18T07:21:00Z</time></trkpt>
<trkpt lat="46.12923455" lon="7.48548578"><ele>1742.5271</ele><time>2007-08-18T07:21:01Z</time></trkpt>
<trkpt lat="46.12938962" lon="7.48543055"><ele>1743.007568</ele><time>2007-08-18T07:21:11Z</time></trkpt>
<trkpt lat="46.12949800" lon="7.48508044"><ele>1746.372314</ele><time>2007-08-18T07:21:24Z</time></trkpt>
<trkpt lat="46.12959062" lon="7.48477466"><ele>1748.775391</ele><time>2007-08-18T07:21:35Z</time></trkpt>
<trkpt lat="46.12972682" lon="7.48433763"><ele>1751.659424</ele><time>2007-08-18T07:21:51Z</time></trkpt>
<trkpt lat="46.12995883" lon="7.48374042"><ele>1754.543213</ele><time>2007-08-18T07:22:13Z</time></trkpt>
<trkpt lat="46.13021239" lon="7.48343934"><ele>1757.908203</ele><time>2007-08-18T07:22:28Z</time></trkpt>
<trkpt lat="46.13041464" lon="7.48309275"><ele>1760.791992</ele><time>2007-08-18T07:22:43Z</time></trkpt>
<trkpt lat="46.13042537" lon="7.48306886"><ele>1760.791992</ele><time>2007-08-18T07:22:44Z</time></trkpt>
<trkpt lat="46.13062126" lon="7.48262286"><ele>1764.637207</ele><time>2007-08-18T07:23:05Z</time></trkpt>
<trkpt lat="46.13073575" lon="7.48237208"><ele>1767.520996</ele><time>2007-08-18T07:23:18Z</time></trkpt>
<trkpt lat="46.13081194" lon="7.48224207"><ele>1768.482422</ele><time>2007-08-18T07:23:25Z</time></trkpt>
<trkpt lat="46.13086157" lon="7.48225599"><ele>1768.001709</ele><time>2007-08-18T07:23:38Z</time></trkpt>
<trkpt lat="46.13085880" lon="7.48225766"><ele>1767.520996</ele><time>2007-08-18T07:23:44Z</time></trkpt>
<trkpt lat="46.13090423" lon="7.48222967"><ele>1768.001709</ele><time>2007-08-18T07:23:48Z</time></trkpt>
<trkpt lat="46.13117798" lon="7.48227770"><ele>1768.482422</ele><time>2007-08-18T07:24:01Z</time></trkpt>
<trkpt lat="46.13125728" lon="7.48226068"><ele>1771.366211</ele><time>2007-08-18T07:24:08Z</time></trkpt>
<trkpt lat="46.13137756" lon="7.48220284"><ele>1769.924316</ele><time>2007-08-18T07:24:13Z</time></trkpt>
<trkpt lat="46.13146934" lon="7.48216772"><ele>1768.482422</ele><time>2007-08-18T07:24:15Z</time></trkpt>
<trkpt lat="46.13156162" lon="7.48210486"><ele>1768.963135</ele><time>2007-08-18T07:24:17Z</time></trkpt>
<trkpt lat="46.13170277" lon="7.48204820"><ele>1768.963135</ele><time>2007-08-18T07:24:23Z</time></trkpt>
<trkpt lat="46.13201424" lon="7.48196002"><ele>1770.405029</ele><time>2007-08-18T07:24:35Z</time></trkpt>
<trkpt lat="46.13230149" lon="7.48196455"><ele>1771.846924</ele><time>2007-08-18T07:24:48Z</time></trkpt>
<trkpt lat="46.13247659" lon="7.48200285"><ele>1775.692383</ele><time>2007-08-18T07:24:59Z</time></trkpt>
<trkpt lat="46.13270508" lon="7.48205004"><ele>1773.289307</ele><time>2007-08-18T07:25:11Z</time></trkpt>
<trkpt lat="46.13280147" lon="7.48201752"><ele>1770.405029</ele><time>2007-08-18T07:25:14Z</time></trkpt>
<trkpt lat="46.13291362" lon="7.48188484"><ele>1766.079102</ele><time>2007-08-18T07:25:18Z</time></trkpt>
<trkpt lat="46.13316315" lon="7.48177277"><ele>1761.753418</ele><time>2007-08-18T07:25:25Z</time></trkpt>
<trkpt lat="46.13324848" lon="7.48176254"><ele>1761.753418</ele><time>2007-08-18T07:25:27Z</time></trkpt>
<trkpt lat="46.13358677" lon="7.48162240"><ele>1759.350098</ele><time>2007-08-18T07:25:37Z</time></trkpt>
<trkpt lat="46.13369993" lon="7.48153523"><ele>1758.869385</ele><time>2007-08-18T07:25:45Z</time></trkpt>
<trkpt lat="46.13374687" lon="7.48153439"><ele>1755.504639</ele><time>2007-08-18T07:25:55Z</time></trkpt>
<trkpt lat="46.13386388" lon="7.48148133"><ele>1753.101318</ele><time>2007-08-18T07:26:03Z</time></trkpt>
<trkpt lat="46.13396036" lon="7.48138435"><ele>1750.217529</ele><time>2007-08-18T07:26:10Z</time></trkpt>
<trkpt lat="46.13398768" lon="7.48126516"><ele>1747.333496</ele><time>2007-08-18T07:26:16Z</time></trkpt>
<trkpt lat="46.13419195" lon="7.48104933"><ele>1744.930176</ele><time>2007-08-18T07:26:20Z</time></trkpt>
<trkpt lat="46.13429337" lon="7.48091849"><ele>1743.488281</ele><time>2007-08-18T07:26:22Z</time></trkpt>
<trkpt lat="46.13437735" lon="7.48072335"><ele>1742.046387</ele><time>2007-08-18T07:26:25Z</time></trkpt>
<trkpt lat="46.13444307" lon="7.48061573"><ele>1741.084961</ele><time>2007-08-18T07:26:27Z</time></trkpt>
<trkpt lat="46.13457165" lon="7.48045572"><ele>1740.123779</ele><time>2007-08-18T07:26:30Z</time></trkpt>
<trkpt lat="46.13463325" lon="7.48034835"><ele>1739.162109</ele><time>2007-08-18T07:26:32Z</time></trkpt>
<trkpt lat="46.13489896" lon="7.48005247"><ele>1738.200928</ele><time>2007-08-18T07:26:43Z</time></trkpt>
<trkpt lat="46.13517833" lon="7.47986622"><ele>1737.239502</ele><time>2007-08-18T07:26:53Z</time></trkpt>
<trkpt lat="46.13544362" lon="7.47980889"><ele>1738.200928</ele><time>2007-08-18T07:27:04Z</time></trkpt>
<trkpt lat="46.13573154" lon="7.47977444"><ele>1740.123779</ele><time>2007-08-18T07:27:16Z</time></trkpt>
<trkpt lat="46.13580722" lon="7.47979422"><ele>1741.084961</ele><time>2007-08-18T07:27:20Z</time></trkpt>
<trkpt lat="46.13606170" lon="7.47973974"><ele>1743.488281</ele><time>2007-08-18T07:27:33Z</time></trkpt>
<trkpt lat="46.13618835" lon="7.47969439"><ele>1746.372314</ele><time>2007-08-18T07:27:43Z</time></trkpt>
<trkpt lat="46.13636303" lon="7.47969959"><ele>1746.852783</ele><time>2007-08-18T07:27:54Z</time></trkpt>
<trkpt lat="46.13655279" lon="7.47963429"><ele>1746.852783</ele><time>2007-08-18T07:28:04Z</time></trkpt>
<trkpt lat="46.13675094" lon="7.47951284"><ele>1749.736816</ele><time>2007-08-18T07:28:14Z</time></trkpt>
<trkpt lat="46.13679553" lon="7.47946699"><ele>1750.217529</ele><time>2007-08-18T07:28:18Z</time></trkpt>
<trkpt lat="46.13699947" lon="7.47939147"><ele>1751.659424</ele><time>2007-08-18T07:28:30Z</time></trkpt>
<trkpt lat="46.13725293" lon="7.47937244"><ele>1751.659424</ele><time>2007-08-18T07:28:41Z</time></trkpt>
<trkpt lat="46.13745628" lon="7.47934856"><ele>1748.294678</ele><time>2007-08-18T07:28:50Z</time></trkpt>
<trkpt lat="46.13752048" lon="7.47933305"><ele>1746.852783</ele><time>2007-08-18T07:28:53Z</time></trkpt>
<trkpt lat="46.13754714" lon="7.47935627"><ele>1748.294678</ele><time>2007-08-18T07:28:55Z</time></trkpt>
<trkpt lat="46.13769315" lon="7.47931788"><ele>1748.775391</ele><time>2007-08-18T07:29:03Z</time></trkpt>
<trkpt lat="46.13780547" lon="7.47928150"><ele>1751.178711</ele><time>2007-08-18T07:29:11Z</time></trkpt>
<trkpt lat="46.13789423" lon="7.47930539"><ele>1751.178711</ele><time>2007-08-18T07:29:16Z</time></trkpt>
<trkpt lat="46.13815977" lon="7.47924630"><ele>1746.852783</ele><time>2007-08-18T07:29:23Z</time></trkpt>
<trkpt lat="46.13820244" lon="7.47922543"><ele>1747.333496</ele><time>2007-08-18T07:29:24Z</time></trkpt>
<trkpt lat="46.13833034" lon="7.47909894"><ele>1743.488281</ele><time>2007-08-18T07:29:29Z</time></trkpt>
<trkpt lat="46.13836664" lon="7.47892242"><ele>1739.162109</ele><time>2007-08-18T07:29:32Z</time></trkpt>
<trkpt lat="46.13838952" lon="7.47877867"><ele>1737.720215</ele><time>2007-08-18T07:29:34Z</time></trkpt>
<trkpt lat="46.13841073" lon="7.47861765"><ele>1733.394287</ele><time>2007-08-18T07:29:36Z</time></trkpt>
<trkpt lat="46.13846244" lon="7.47844038"><ele>1732.913574</ele><time>2007-08-18T07:29:38Z</time></trkpt>
<trkpt lat="46.13853034" lon="7.47832487"><ele>1730.029785</ele><time>2007-08-18T07:29:40Z</time></trkpt>
<trkpt lat="46.13864257" lon="7.47815874"><ele>1726.18457</ele><time>2007-08-18T07:29:43Z</time></trkpt>
<trkpt lat="46.13884198" lon="7.47795716"><ele>1723.781006</ele><time>2007-08-18T07:29:47Z</time></trkpt>
<trkpt lat="46.13898690" lon="7.47784249"><ele>1719.935791</ele><time>2007-08-18T07:29:50Z</time></trkpt>
<trkpt lat="46.13916367" lon="7.47775859"><ele>1717.532471</ele><time>2007-08-18T07:29:54Z</time></trkpt>
<trkpt lat="46.13921447" lon="7.47771316"><ele>1715.610107</ele><time>2007-08-18T07:29:56Z</time></trkpt>
<trkpt lat="46.13897818" lon="7.47780017"><ele>1713.687256</ele><time>2007-08-18T07:30:00Z</time></trkpt>
<trkpt lat="46.13884600" lon="7.47781794"><ele>1711.764893</ele><time>2007-08-18T07:30:02Z</time></trkpt>
<trkpt lat="46.13857912" lon="7.47790754"><ele>1709.361572</ele><time>2007-08-18T07:30:06Z</time></trkpt>
<trkpt lat="46.13822834" lon="7.47795833"><ele>1703.593506</ele><time>2007-08-18T07:30:11Z</time></trkpt>
<trkpt lat="46.13818358" lon="7.47798256"><ele>1702.63208</ele><time>2007-08-18T07:30:12Z</time></trkpt>
<trkpt lat="46.13812272" lon="7.47801147"><ele>1701.670898</ele><time>2007-08-18T07:30:14Z</time></trkpt>
<trkpt lat="46.13821484" lon="7.47783990"><ele>1696.864258</ele><time>2007-08-18T07:30:18Z</time></trkpt>
<trkpt lat="46.13835406" lon="7.47768433"><ele>1693.499756</ele><time>2007-08-18T07:30:21Z</time></trkpt>
<trkpt lat="46.13846865" lon="7.47758307"><ele>1691.576904</ele><time>2007-08-18T07:30:23Z</time></trkpt>
<trkpt lat="46.13864215" lon="7.47735576"><ele>1688.212402</ele><time>2007-08-18T07:30:26Z</time></trkpt>
<trkpt lat="46.13884809" lon="7.47717538"><ele>1683.886475</ele><time>2007-08-18T07:30:29Z</time></trkpt>
<trkpt lat="46.13890006" lon="7.47712970"><ele>1682.925049</ele><time>2007-08-18T07:30:30Z</time></trkpt>
<trkpt lat="46.13913543" lon="7.47684664"><ele>1678.599365</ele><time>2007-08-18T07:30:35Z</time></trkpt>
<trkpt lat="46.13922419" lon="7.47674824"><ele>1675.715088</ele><time>2007-08-18T07:30:37Z</time></trkpt>
<trkpt lat="46.13933709" lon="7.47662913"><ele>1670.427979</ele><time>2007-08-18T07:30:40Z</time></trkpt>
<trkpt lat="46.13940524" lon="7.47657104"><ele>1668.986084</ele><time>2007-08-18T07:30:42Z</time></trkpt>
<trkpt lat="46.13943768" lon="7.47654942"><ele>1668.505371</ele><time>2007-08-18T07:30:43Z</time></trkpt>
<trkpt lat="46.13953667" lon="7.47641439"><ele>1665.140869</ele><time>2007-08-18T07:30:48Z</time></trkpt>
<trkpt lat="46.13962778" lon="7.47632168"><ele>1663.218262</ele><time>2007-08-18T07:30:51Z</time></trkpt>
<trkpt lat="46.13977882" lon="7.47613485"><ele>1658.89209</ele><time>2007-08-18T07:30:57Z</time></trkpt>
<trkpt lat="46.13994906" lon="7.47593989"><ele>1656.48877</ele><time>2007-08-18T07:31:01Z</time></trkpt>
<trkpt lat="46.14005014" lon="7.47586445"><ele>1654.085693</ele><time>2007-08-18T07:31:03Z</time></trkpt>
<trkpt lat="46.14015064" lon="7.47583159"><ele>1652.162842</ele><time>2007-08-18T07:31:05Z</time></trkpt>
<trkpt lat="46.14026447" lon="7.47574509"><ele>1648.79834</ele><time>2007-08-18T07:31:09Z</time></trkpt>
<trkpt lat="46.14026707" lon="7.47573034"><ele>1648.317627</ele><time>2007-08-18T07:31:10Z</time></trkpt>
<trkpt lat="46.14027143" lon="7.47571894"><ele>1647.356445</ele><time>2007-08-18T07:31:12Z</time></trkpt>
<trkpt lat="46.14030680" lon="7.47557502"><ele>1644.472412</ele><time>2007-08-18T07:31:16Z</time></trkpt>
<trkpt lat="46.14032239" lon="7.47551006"><ele>1643.510986</ele><time>2007-08-18T07:31:17Z</time></trkpt>
<trkpt lat="46.14036069" lon="7.47533346"><ele>1640.146484</ele><time>2007-08-18T07:31:20Z</time></trkpt>
<trkpt lat="46.14043378" lon="7.47516984"><ele>1637.262451</ele><time>2007-08-18T07:31:23Z</time></trkpt>
<trkpt lat="46.14053562" lon="7.47499483"><ele>1634.378662</ele><time>2007-08-18T07:31:26Z</time></trkpt>
<trkpt lat="46.14057393" lon="7.47490422"><ele>1631.975342</ele><time>2007-08-18T07:31:27Z</time></trkpt>
<trkpt lat="46.14078448" lon="7.47450323"><ele>1627.168701</ele><time>2007-08-18T07:31:33Z</time></trkpt>
<trkpt lat="46.14086277" lon="7.47441103"><ele>1625.726563</ele><time>2007-08-18T07:31:35Z</time></trkpt>
<trkpt lat="46.14094122" lon="7.47435395"><ele>1623.803955</ele><time>2007-08-18T07:31:37Z</time></trkpt>
<trkpt lat="46.14109218" lon="7.47432805"><ele>1622.362061</ele><time>2007-08-18T07:31:41Z</time></trkpt>
<trkpt lat="46.14116049" lon="7.47440206"><ele>1622.842773</ele><time>2007-08-18T07:31:45Z</time></trkpt>
<trkpt lat="46.14141949" lon="7.47450935"><ele>1622.842773</ele><time>2007-08-18T07:31:54Z</time></trkpt>
<trkpt lat="46.14172686" lon="7.47444497"><ele>1623.803955</ele><time>2007-08-18T07:32:03Z</time></trkpt>
<trkpt lat="46.14175804" lon="7.47442570"><ele>1624.284668</ele><time>2007-08-18T07:32:04Z</time></trkpt>
<trkpt lat="46.14209172" lon="7.47425009"><ele>1625.24585</ele><time>2007-08-18T07:32:14Z</time></trkpt>
<trkpt lat="46.14232072" lon="7.47409075"><ele>1621.881348</ele><time>2007-08-18T07:32:20Z</time></trkpt>
<trkpt lat="46.14252792" lon="7.47387718"><ele>1618.036133</ele><time>2007-08-18T07:32:24Z</time></trkpt>
<trkpt lat="46.14269807" lon="7.47362774"><ele>1614.190918</ele><time>2007-08-18T07:32:28Z</time></trkpt>
<trkpt lat="46.14279924" lon="7.47351928"><ele>1612.268311</ele><time>2007-08-18T07:32:30Z</time></trkpt>
<trkpt lat="46.14308422" lon="7.47339154"><ele>1607.942383</ele><time>2007-08-18T07:32:36Z</time></trkpt>
<trkpt lat="46.14315832" lon="7.47336178"><ele>1606.980957</ele><time>2007-08-18T07:32:38Z</time></trkpt>
<trkpt lat="46.14319596" lon="7.47332884"><ele>1604.577637</ele><time>2007-08-18T07:32:39Z</time></trkpt>
<trkpt lat="46.14343534" lon="7.47295316"><ele>1599.77124</ele><time>2007-08-18T07:32:44Z</time></trkpt>
<trkpt lat="46.14359024" lon="7.47266416"><ele>1595.925781</ele><time>2007-08-18T07:32:47Z</time></trkpt>
<trkpt lat="46.14373592" lon="7.47246676"><ele>1595.925781</ele><time>2007-08-18T07:32:50Z</time></trkpt>
<trkpt lat="46.14384413" lon="7.47236777"><ele>1594.483643</ele><time>2007-08-18T07:32:52Z</time></trkpt>
<trkpt lat="46.14396374" lon="7.47219829"><ele>1589.677246</ele><time>2007-08-18T07:32:55Z</time></trkpt>
<trkpt lat="46.14409533" lon="7.47203736"><ele>1586.312744</ele><time>2007-08-18T07:32:58Z</time></trkpt>
<trkpt lat="46.14416658" lon="7.47199025"><ele>1584.87085</ele><time>2007-08-18T07:32:59Z</time></trkpt>
<trkpt lat="46.14492657" lon="7.47168456"><ele>1581.025635</ele><time>2007-08-18T07:33:09Z</time></trkpt>
<trkpt lat="46.14507954" lon="7.47161893"><ele>1580.064209</ele><time>2007-08-18T07:33:11Z</time></trkpt>
<trkpt lat="46.14527752" lon="7.47149102"><ele>1580.544922</ele><time>2007-08-18T07:33:14Z</time></trkpt>
<trkpt lat="46.14569686" lon="7.47162396"><ele>1579.583252</ele><time>2007-08-18T07:33:21Z</time></trkpt>
<trkpt lat="46.14581480" lon="7.47186687"><ele>1580.544922</ele><time>2007-08-18T07:33:24Z</time></trkpt>
<trkpt lat="46.14595737" lon="7.47222276"><ele>1581.986816</ele><time>2007-08-18T07:33:29Z</time></trkpt>
<trkpt lat="46.14609542" lon="7.47242955"><ele>1582.947998</ele><time>2007-08-18T07:33:33Z</time></trkpt>
<trkpt lat="46.14617304" lon="7.47252778"><ele>1583.428711</ele><time>2007-08-18T07:33:35Z</time></trkpt>
<trkpt lat="46.14641326" lon="7.47275149"><ele>1581.986816</ele><time>2007-08-18T07:33:40Z</time></trkpt>
<trkpt lat="46.14652273" lon="7.47303329"><ele>1581.986816</ele><time>2007-08-18T07:33:44Z</time></trkpt>
<trkpt lat="46.14658769" lon="7.47350939"><ele>1581.025635</ele><time>2007-08-18T07:33:50Z</time></trkpt>
<trkpt lat="46.14664259" lon="7.47373695"><ele>1583.428711</ele><time>2007-08-18T07:33:53Z</time></trkpt>
<trkpt lat="46.14693236" lon="7.47414809"><ele>1585.351318</ele><time>2007-08-18T07:34:01Z</time></trkpt>
<trkpt lat="46.14730979" lon="7.47444137"><ele>1588.235352</ele><time>2007-08-18T07:34:14Z</time></trkpt>
<trkpt lat="46.14752278" lon="7.47484412"><ele>1590.157959</ele><time>2007-08-18T07:34:25Z</time></trkpt>
<trkpt lat="46.14775454" lon="7.47477329"><ele>1589.196533</ele><time>2007-08-18T07:34:32Z</time></trkpt>
<trkpt lat="46.14780718" lon="7.47435068"><ele>1589.677246</ele><time>2007-08-18T07:34:39Z</time></trkpt>
<trkpt lat="46.14785688" lon="7.47389445"><ele>1590.157959</ele><time>2007-08-18T07:34:46Z</time></trkpt>
<trkpt lat="46.14790055" lon="7.47361366"><ele>1589.196533</ele><time>2007-08-18T07:34:50Z</time></trkpt>
<trkpt lat="46.14823189" lon="7.47275786"><ele>1588.716064</ele><time>2007-08-18T07:35:02Z</time></trkpt>
<trkpt lat="46.14830540" lon="7.47233693"><ele>1588.235352</ele><time>2007-08-18T07:35:07Z</time></trkpt>
<trkpt lat="46.14836876" lon="7.47208547"><ele>1586.793213</ele><time>2007-08-18T07:35:10Z</time></trkpt>
<trkpt lat="46.14842425" lon="7.47191657"><ele>1586.793213</ele><time>2007-08-18T07:35:12Z</time></trkpt>
<trkpt lat="46.14853749" lon="7.47146244"><ele>1585.832031</ele><time>2007-08-18T07:35:17Z</time></trkpt>
<trkpt lat="46.14906488" lon="7.47038847"><ele>1587.273926</ele><time>2007-08-18T07:35:32Z</time></trkpt>
<trkpt lat="46.14916429" lon="7.47024455"><ele>1588.716064</ele><time>2007-08-18T07:35:35Z</time></trkpt>
<trkpt lat="46.14927007" lon="7.47006903"><ele>1589.677246</ele><time>2007-08-18T07:35:39Z</time></trkpt>
<trkpt lat="46.14950049" lon="7.46945003"><ele>1592.561279</ele><time>2007-08-18T07:35:55Z</time></trkpt>
<trkpt lat="46.14952798" lon="7.46895483"><ele>1595.925781</ele><time>2007-08-18T07:36:08Z</time></trkpt>
<trkpt lat="46.14968397" lon="7.46824815"><ele>1597.848633</ele><time>2007-08-18T07:36:25Z</time></trkpt>
<trkpt lat="46.15014732" lon="7.46770014"><ele>1600.732422</ele><time>2007-08-18T07:36:43Z</time></trkpt>
<trkpt lat="46.15065258" lon="7.46719966"><ele>1602.655029</ele><time>2007-08-18T07:37:00Z</time></trkpt>
<trkpt lat="46.15064043" lon="7.46729555"><ele>1603.135742</ele><time>2007-08-18T07:37:07Z</time></trkpt>
<trkpt lat="46.15056574" lon="7.46740677"><ele>1606.500244</ele><time>2007-08-18T07:37:20Z</time></trkpt>
<trkpt lat="46.15042677" lon="7.46763258"><ele>1609.864746</ele><time>2007-08-18T07:37:34Z</time></trkpt>
<trkpt lat="46.15023424" lon="7.46797272"><ele>1611.306885</ele><time>2007-08-18T07:37:50Z</time></trkpt>
<trkpt lat="46.14994548" lon="7.46838234"><ele>1613.710205</ele><time>2007-08-18T07:38:08Z</time></trkpt>
<trkpt lat="46.14979704" lon="7.46886807"><ele>1614.671631</ele><time>2007-08-18T07:38:22Z</time></trkpt>
<trkpt lat="46.14983593" lon="7.46971414"><ele>1614.671631</ele><time>2007-08-18T07:38:40Z</time></trkpt>
<trkpt lat="46.14977692" lon="7.47033156"><ele>1617.074951</ele><time>2007-08-18T07:38:57Z</time></trkpt>
<trkpt lat="46.14977122" lon="7.47051294"><ele>1620.439453</ele><time>2007-08-18T07:39:04Z</time></trkpt>
<trkpt lat="46.14976854" lon="7.47066742"><ele>1623.323486</ele><time>2007-08-18T07:39:15Z</time></trkpt>
<trkpt lat="46.14976418" lon="7.47080605"><ele>1624.765381</ele><time>2007-08-18T07:39:25Z</time></trkpt>
<trkpt lat="46.14968380" lon="7.47106774"><ele>1628.61084</ele><time>2007-08-18T07:39:44Z</time></trkpt>
<trkpt lat="46.14965304" lon="7.47122674"><ele>1631.01416</ele><time>2007-08-18T07:39:56Z</time></trkpt>
<trkpt lat="46.14958649" lon="7.47149304"><ele>1632.936523</ele><time>2007-08-18T07:40:15Z</time></trkpt>
<trkpt lat="46.14956813" lon="7.47152874"><ele>1632.936523</ele><time>2007-08-18T07:40:18Z</time></trkpt>
<trkpt lat="46.14944232" lon="7.47177199"><ele>1637.262451</ele><time>2007-08-18T07:40:33Z</time></trkpt>
<trkpt lat="46.14935749" lon="7.47190207"><ele>1639.185059</ele><time>2007-08-18T07:40:42Z</time></trkpt>
<trkpt lat="46.14939672" lon="7.47192923"><ele>1640.626953</ele><time>2007-08-18T07:40:47Z</time></trkpt>
<trkpt lat="46.14944835" lon="7.47189294"><ele>1640.146484</ele><time>2007-08-18T07:40:50Z</time></trkpt>
<trkpt lat="46.14964692" lon="7.47177064"><ele>1643.030273</ele><time>2007-08-18T07:41:03Z</time></trkpt>
<trkpt lat="46.14978245" lon="7.47158859"><ele>1645.914551</ele><time>2007-08-18T07:41:17Z</time></trkpt>
<trkpt lat="46.14991950" lon="7.47136362"><ele>1648.317627</ele><time>2007-08-18T07:41:33Z</time></trkpt>
<trkpt lat="46.15008513" lon="7.47121057"><ele>1651.20166</ele><time>2007-08-18T07:41:49Z</time></trkpt>
<trkpt lat="46.15026508" lon="7.47097193"><ele>1652.643555</ele><time>2007-08-18T07:42:05Z</time></trkpt>
<trkpt lat="46.15045007" lon="7.47068016"><ele>1656.008057</ele><time>2007-08-18T07:42:23Z</time></trkpt>
<trkpt lat="46.15049835" lon="7.47024874"><ele>1659.372803</ele><time>2007-08-18T07:42:40Z</time></trkpt>
<trkpt lat="46.15055937" lon="7.46986980"><ele>1660.814941</ele><time>2007-08-18T07:42:54Z</time></trkpt>
<trkpt lat="46.15069038" lon="7.46967249"><ele>1660.814941</ele><time>2007-08-18T07:43:01Z</time></trkpt>
<trkpt lat="46.15081234" lon="7.46960593"><ele>1657.930908</ele><time>2007-08-18T07:43:04Z</time></trkpt>
<trkpt lat="46.15089909" lon="7.46962454"><ele>1656.008057</ele><time>2007-08-18T07:43:06Z</time></trkpt>
<trkpt lat="46.15124770" lon="7.46964776"><ele>1655.527588</ele><time>2007-08-18T07:43:14Z</time></trkpt>
<trkpt lat="46.15173443" lon="7.46942556"><ele>1656.969482</ele><time>2007-08-18T07:43:28Z</time></trkpt>
<trkpt lat="46.15184708" lon="7.46938113"><ele>1656.969482</ele><time>2007-08-18T07:43:32Z</time></trkpt>
<trkpt lat="46.15193845" lon="7.46937895"><ele>1656.48877</ele><time>2007-08-18T07:43:34Z</time></trkpt>
<trkpt lat="46.15227004" lon="7.46917586"><ele>1656.969482</ele><time>2007-08-18T07:43:44Z</time></trkpt>
<trkpt lat="46.15259534" lon="7.46859868"><ele>1657.450195</ele><time>2007-08-18T07:43:57Z</time></trkpt>
<trkpt lat="46.15266373" lon="7.46834085"><ele>1659.853271</ele><time>2007-08-18T07:44:04Z</time></trkpt>
<trkpt lat="46.15275593" lon="7.46810205"><ele>1662.737549</ele><time>2007-08-18T07:44:16Z</time></trkpt>
<trkpt lat="46.15277337" lon="7.46820146"><ele>1665.140869</ele><time>2007-08-18T07:44:25Z</time></trkpt>
<trkpt lat="46.15285870" lon="7.46814966"><ele>1667.063477</ele><time>2007-08-18T07:44:32Z</time></trkpt>
<trkpt lat="46.15288116" lon="7.46815402"><ele>1667.543945</ele><time>2007-08-18T07:44:34Z</time></trkpt>
<trkpt lat="46.15311074" lon="7.46810758"><ele>1667.543945</ele><time>2007-08-18T07:44:43Z</time></trkpt>
<trkpt lat="46.15342322" lon="7.46781128"><ele>1666.582764</ele><time>2007-08-18T07:44:50Z</time></trkpt>
<trkpt lat="46.15359236" lon="7.46731306"><ele>1665.621582</ele><time>2007-08-18T07:44:56Z</time></trkpt>
<trkpt lat="46.15362489" lon="7.46702179"><ele>1665.621582</ele><time>2007-08-18T07:44:59Z</time></trkpt>
<trkpt lat="46.15398673" lon="7.46662273"><ele>1663.69873</ele><time>2007-08-18T07:45:06Z</time></trkpt>
<trkpt lat="46.15427725" lon="7.46653573"><ele>1661.776367</ele><time>2007-08-18T07:45:10Z</time></trkpt>
<trkpt lat="46.15433827" lon="7.46634705"><ele>1661.295654</ele><time>2007-08-18T07:45:12Z</time></trkpt>
<trkpt lat="46.15436115" lon="7.46612543"><ele>1659.853271</ele><time>2007-08-18T07:45:15Z</time></trkpt>
<trkpt lat="46.15436803" lon="7.46609593"><ele>1658.89209</ele><time>2007-08-18T07:45:16Z</time></trkpt>
<trkpt lat="46.15438496" lon="7.46607313"><ele>1658.89209</ele><time>2007-08-18T07:45:18Z</time></trkpt>
<trkpt lat="46.15443156" lon="7.46604715"><ele>1660.814941</ele><time>2007-08-18T07:45:23Z</time></trkpt>
<trkpt lat="46.15444053" lon="7.46604295"><ele>1661.776367</ele><time>2007-08-18T07:45:24Z</time></trkpt>
<trkpt lat="46.15452167" lon="7.46605637"><ele>1665.140869</ele><time>2007-08-18T07:45:31Z</time></trkpt>
<trkpt lat="46.15453986" lon="7.46605888"><ele>1665.621582</ele><time>2007-08-18T07:45:32Z</time></trkpt>
<trkpt lat="46.15484236" lon="7.46590390"><ele>1667.063477</ele><time>2007-08-18T07:45:46Z</time></trkpt>
<trkpt lat="46.15509968" lon="7.46565185"><ele>1668.505371</ele><time>2007-08-18T07:45:59Z</time></trkpt>
<trkpt lat="46.15519423" lon="7.46557097"><ele>1670.908691</ele><time>2007-08-18T07:46:04Z</time></trkpt>
<trkpt lat="46.15539959" lon="7.46543887"><ele>1674.273193</ele><time>2007-08-18T07:46:15Z</time></trkpt>
<trkpt lat="46.15565356" lon="7.46542789"><ele>1676.676758</ele><time>2007-08-18T07:46:31Z</time></trkpt>
<trkpt lat="46.15581189" lon="7.46531448"><ele>1679.560547</ele><time>2007-08-18T07:46:45Z</time></trkpt>
<trkpt lat="46.15583033" lon="7.46528649"><ele>1680.521973</ele><time>2007-08-18T07:46:47Z</time></trkpt>
<trkpt lat="46.15598917" lon="7.46498507"><ele>1682.925049</ele><time>2007-08-18T07:47:04Z</time></trkpt>
<trkpt lat="46.15621112" lon="7.46490444"><ele>1683.886475</ele><time>2007-08-18T07:47:16Z</time></trkpt>
<trkpt lat="46.15628287" lon="7.46487343"><ele>1685.809082</ele><time>2007-08-18T07:47:24Z</time></trkpt>
<trkpt lat="46.15636024" lon="7.46481308"><ele>1688.212402</ele><time>2007-08-18T07:47:34Z</time></trkpt>
<trkpt lat="46.15637960" lon="7.46481593"><ele>1688.693115</ele><time>2007-08-18T07:47:37Z</time></trkpt>
<trkpt lat="46.15650935" lon="7.46478223"><ele>1690.615479</ele><time>2007-08-18T07:47:46Z</time></trkpt>
<trkpt lat="46.15669082" lon="7.46451292"><ele>1693.499756</ele><time>2007-08-18T07:48:04Z</time></trkpt>
<trkpt lat="46.15693859" lon="7.46428418"><ele>1695.422363</ele><time>2007-08-18T07:48:19Z</time></trkpt>
<trkpt lat="46.15710388" lon="7.46425853"><ele>1696.864258</ele><time>2007-08-18T07:48:27Z</time></trkpt>
<trkpt lat="46.15726012" lon="7.46412618"><ele>1698.786865</ele><time>2007-08-18T07:48:36Z</time></trkpt>
<trkpt lat="46.15737797" lon="7.46402694"><ele>1698.306152</ele><time>2007-08-18T07:48:40Z</time></trkpt>
<trkpt lat="46.15773043" lon="7.46394262"><ele>1696.864258</ele><time>2007-08-18T07:48:51Z</time></trkpt>
<trkpt lat="46.15802689" lon="7.46383709"><ele>1698.786865</ele><time>2007-08-18T07:49:02Z</time></trkpt>
<trkpt lat="46.15817366" lon="7.46377682"><ele>1699.267578</ele><time>2007-08-18T07:49:08Z</time></trkpt>
<trkpt lat="46.15842965" lon="7.46383499"><ele>1699.267578</ele><time>2007-08-18T07:49:18Z</time></trkpt>
<trkpt lat="46.15856325" lon="7.46376215"><ele>1701.670898</ele><time>2007-08-18T07:49:25Z</time></trkpt>
<trkpt lat="46.15873693" lon="7.46351204"><ele>1704.554688</ele><time>2007-08-18T07:49:39Z</time></trkpt>
<trkpt lat="46.15874975" lon="7.46350005"><ele>1705.516113</ele><time>2007-08-18T07:49:40Z</time></trkpt>
<trkpt lat="46.15892510" lon="7.46331565"><ele>1707.438721</ele><time>2007-08-18T07:49:52Z</time></trkpt>
<trkpt lat="46.15894094" lon="7.46329662"><ele>1707.919434</ele><time>2007-08-18T07:49:53Z</time></trkpt>
<trkpt lat="46.15910087" lon="7.46315463"><ele>1708.880859</ele><time>2007-08-18T07:50:02Z</time></trkpt>
<trkpt lat="46.15915149" lon="7.46311616"><ele>1709.842041</ele><time>2007-08-18T07:50:05Z</time></trkpt>
<trkpt lat="46.15919114" lon="7.46310392"><ele>1710.322754</ele><time>2007-08-18T07:50:08Z</time></trkpt>
<trkpt lat="46.15925032" lon="7.46304525"><ele>1711.764893</ele><time>2007-08-18T07:50:12Z</time></trkpt>
<trkpt lat="46.15959289" lon="7.46287694"><ele>1712.245361</ele><time>2007-08-18T07:50:26Z</time></trkpt>
<trkpt lat="46.15976237" lon="7.46283629"><ele>1713.206787</ele><time>2007-08-18T07:50:35Z</time></trkpt>
<trkpt lat="46.15989782" lon="7.46284425"><ele>1716.571289</ele><time>2007-08-18T07:50:43Z</time></trkpt>
<trkpt lat="46.15996974" lon="7.46287652"><ele>1718.013184</ele><time>2007-08-18T07:50:49Z</time></trkpt>
<trkpt lat="46.16014509" lon="7.46303595"><ele>1718.974609</ele><time>2007-08-18T07:51:02Z</time></trkpt>
<trkpt lat="46.16033519" lon="7.46308942"><ele>1720.897217</ele><time>2007-08-18T07:51:13Z</time></trkpt>
<trkpt lat="46.16047734" lon="7.46316218"><ele>1722.819824</ele><time>2007-08-18T07:51:25Z</time></trkpt>
<trkpt lat="46.16057063" lon="7.46324155"><ele>1726.665283</ele><time>2007-08-18T07:51:38Z</time></trkpt>
<trkpt lat="46.16067222" lon="7.46328782"><ele>1729.549072</ele><time>2007-08-18T07:51:52Z</time></trkpt>
<trkpt lat="46.16065227" lon="7.46329905"><ele>1729.549072</ele><time>2007-08-18T07:51:54Z</time></trkpt>
<trkpt lat="46.16061942" lon="7.46334038"><ele>1730.029785</ele><time>2007-08-18T07:51:57Z</time></trkpt>
<trkpt lat="46.16043602" lon="7.46337407"><ele>1732.913574</ele><time>2007-08-18T07:52:09Z</time></trkpt>
<trkpt lat="46.16030233" lon="7.46341850"><ele>1734.355713</ele><time>2007-08-18T07:52:17Z</time></trkpt>
<trkpt lat="46.16005766" lon="7.46359033"><ele>1738.200928</ele><time>2007-08-18T07:52:31Z</time></trkpt>
<trkpt lat="46.15985222" lon="7.46360877"><ele>1740.123779</ele><time>2007-08-18T07:52:43Z</time></trkpt>
<trkpt lat="46.15956766" lon="7.46367306"><ele>1743.968994</ele><time>2007-08-18T07:52:59Z</time></trkpt>
<trkpt lat="46.15934897" lon="7.46390574"><ele>1746.852783</ele><time>2007-08-18T07:53:14Z</time></trkpt>
<trkpt lat="46.15917530" lon="7.46424126"><ele>1750.217529</ele><time>2007-08-18T07:53:30Z</time></trkpt>
<trkpt lat="46.15902233" lon="7.46453907"><ele>1754.062744</ele><time>2007-08-18T07:53:44Z</time></trkpt>
<trkpt lat="46.15888026" lon="7.46486119"><ele>1756.946777</ele><time>2007-08-18T07:53:59Z</time></trkpt>
<trkpt lat="46.15881974" lon="7.46514165"><ele>1759.830566</ele><time>2007-08-18T07:54:11Z</time></trkpt>
<trkpt lat="46.15873810" lon="7.46545220"><ele>1763.195313</ele><time>2007-08-18T07:54:25Z</time></trkpt>
<trkpt lat="46.15853928" lon="7.46574984"><ele>1766.559814</ele><time>2007-08-18T07:54:43Z</time></trkpt>
<trkpt lat="46.15827835" lon="7.46593248"><ele>1769.443848</ele><time>2007-08-18T07:54:59Z</time></trkpt>
<trkpt lat="46.15790527" lon="7.46615963"><ele>1772.808594</ele><time>2007-08-18T07:55:17Z</time></trkpt>
<trkpt lat="46.15754368" lon="7.46660504"><ele>1776.173096</ele><time>2007-08-18T07:55:37Z</time></trkpt>
<trkpt lat="46.15735022" lon="7.46698692"><ele>1780.018311</ele><time>2007-08-18T07:55:53Z</time></trkpt>
<trkpt lat="46.15735140" lon="7.46754860"><ele>1781.460205</ele><time>2007-08-18T07:56:10Z</time></trkpt>
<trkpt lat="46.15743170" lon="7.46782956"><ele>1782.421631</ele><time>2007-08-18T07:56:18Z</time></trkpt>
<trkpt lat="46.15748777" lon="7.46774817"><ele>1783.382813</ele><time>2007-08-18T07:56:24Z</time></trkpt>
<trkpt lat="46.15746137" lon="7.46764624"><ele>1784.824951</ele><time>2007-08-18T07:56:27Z</time></trkpt>
<trkpt lat="46.15747134" lon="7.46712313"><ele>1786.747314</ele><time>2007-08-18T07:56:43Z</time></trkpt>
<trkpt lat="46.15771953" lon="7.46690394"><ele>1790.112305</ele><time>2007-08-18T07:56:55Z</time></trkpt>
<trkpt lat="46.15793285" lon="7.46677863"><ele>1793.476807</ele><time>2007-08-18T07:57:06Z</time></trkpt>
<trkpt lat="46.15794919" lon="7.46676757"><ele>1793.476807</ele><time>2007-08-18T07:57:07Z</time></trkpt>
<trkpt lat="46.15814407" lon="7.46666548"><ele>1795.880127</ele><time>2007-08-18T07:57:18Z</time></trkpt>
<trkpt lat="46.15847290" lon="7.46669163"><ele>1799.244629</ele><time>2007-08-18T07:57:35Z</time></trkpt>
<trkpt lat="46.15877967" lon="7.46673505"><ele>1801.647949</ele><time>2007-08-18T07:57:49Z</time></trkpt>
<trkpt lat="46.15903742" lon="7.46676045"><ele>1804.051514</ele><time>2007-08-18T07:58:02Z</time></trkpt>
<trkpt lat="46.15908855" lon="7.46676028"><ele>1804.531982</ele><time>2007-08-18T07:58:05Z</time></trkpt>
<trkpt lat="46.15915166" lon="7.46675634"><ele>1805.012695</ele><time>2007-08-18T07:58:09Z</time></trkpt>
<trkpt lat="46.15945819" lon="7.46663036"><ele>1808.377197</ele><time>2007-08-18T07:58:24Z</time></trkpt>
<trkpt lat="46.15962029" lon="7.46627547"><ele>1811.26123</ele><time>2007-08-18T07:58:39Z</time></trkpt>
<trkpt lat="46.15982607" lon="7.46611185"><ele>1813.664307</ele><time>2007-08-18T07:58:53Z</time></trkpt>
<trkpt lat="46.16015732" lon="7.46604824"><ele>1816.54834</ele><time>2007-08-18T07:59:09Z</time></trkpt>
<trkpt lat="46.16041356" lon="7.46580600"><ele>1819.912842</ele><time>2007-08-18T07:59:25Z</time></trkpt>
<trkpt lat="46.16066652" lon="7.46572335"><ele>1821.835693</ele><time>2007-08-18T07:59:38Z</time></trkpt>
<trkpt lat="46.16065219" lon="7.46584707"><ele>1823.277832</ele><time>2007-08-18T07:59:45Z</time></trkpt>
<trkpt lat="46.16040476" lon="7.46608092"><ele>1826.642334</ele><time>2007-08-18T08:00:02Z</time></trkpt>
<trkpt lat="46.16021466" lon="7.46633858"><ele>1830.006836</ele><time>2007-08-18T08:00:17Z</time></trkpt>
<trkpt lat="46.15992313" lon="7.46660186"><ele>1832.410156</ele><time>2007-08-18T08:00:33Z</time></trkpt>
<trkpt lat="46.15985247" lon="7.46702699"><ele>1835.774658</ele><time>2007-08-18T08:00:48Z</time></trkpt>
<trkpt lat="46.15973186" lon="7.46735053"><ele>1837.216797</ele><time>2007-08-18T08:01:00Z</time></trkpt>
<trkpt lat="46.15943355" lon="7.46743737"><ele>1839.620117</ele><time>2007-08-18T08:01:14Z</time></trkpt>
<trkpt lat="46.15920388" lon="7.46761029"><ele>1842.984619</ele><time>2007-08-18T08:01:26Z</time></trkpt>
<trkpt lat="46.15893893" lon="7.46783123"><ele>1846.349365</ele><time>2007-08-18T08:01:40Z</time></trkpt>
<trkpt lat="46.15873642" lon="7.46809619"><ele>1849.233154</ele><time>2007-08-18T08:01:54Z</time></trkpt>
<trkpt lat="46.15880624" lon="7.46847999"><ele>1852.5979</ele><time>2007-08-18T08:02:08Z</time></trkpt>
<trkpt lat="46.15876978" lon="7.46882482"><ele>1854.040039</ele><time>2007-08-18T08:02:22Z</time></trkpt>
<trkpt lat="46.15867297" lon="7.46918634"><ele>1857.404541</ele><time>2007-08-18T08:02:36Z</time></trkpt>
<trkpt lat="46.15857608" lon="7.46958230"><ele>1859.327148</ele><time>2007-08-18T08:02:49Z</time></trkpt>
<trkpt lat="46.15849226" lon="7.46987918"><ele>1862.210938</ele><time>2007-08-18T08:03:00Z</time></trkpt>
<trkpt lat="46.15827953" lon="7.46993836"><ele>1863.652832</ele><time>2007-08-18T08:03:12Z</time></trkpt>
<trkpt lat="46.15786772" lon="7.46991246"><ele>1865.575684</ele><time>2007-08-18T08:03:28Z</time></trkpt>
<trkpt lat="46.15764552" lon="7.47013156"><ele>1868.94043</ele><time>2007-08-18T08:03:40Z</time></trkpt>
<trkpt lat="46.15735148" lon="7.47027263"><ele>1870.382324</ele><time>2007-08-18T08:03:53Z</time></trkpt>
<trkpt lat="46.15720287" lon="7.47049433"><ele>1873.746826</ele><time>2007-08-18T08:04:03Z</time></trkpt>
<trkpt lat="46.15696692" lon="7.47086984"><ele>1876.630859</ele><time>2007-08-18T08:04:19Z</time></trkpt>
<trkpt lat="46.15671043" lon="7.47122305"><ele>1879.995361</ele><time>2007-08-18T08:04:36Z</time></trkpt>
<trkpt lat="46.15657113" lon="7.47157015"><ele>1881.917969</ele><time>2007-08-18T08:04:51Z</time></trkpt>
<trkpt lat="46.15653148" lon="7.47198489"><ele>1884.321533</ele><time>2007-08-18T08:05:04Z</time></trkpt>
<trkpt lat="46.15636543" lon="7.47241957"><ele>1886.244141</ele><time>2007-08-18T08:05:18Z</time></trkpt>
<trkpt lat="46.15605606" lon="7.47259056"><ele>1888.166748</ele><time>2007-08-18T08:05:31Z</time></trkpt>
<trkpt lat="46.15578306" lon="7.47281277"><ele>1891.050537</ele><time>2007-08-18T08:05:45Z</time></trkpt>
<trkpt lat="46.15566487" lon="7.47320605"><ele>1894.415039</ele><time>2007-08-18T08:05:58Z</time></trkpt>
<trkpt lat="46.15558483" lon="7.47351626"><ele>1897.299072</ele><time>2007-08-18T08:06:11Z</time></trkpt>
<trkpt lat="46.15546119" lon="7.47395824"><ele>1900.663818</ele><time>2007-08-18T08:06:27Z</time></trkpt>
<trkpt lat="46.15528182" lon="7.47426929"><ele>1902.105713</ele><time>2007-08-18T08:06:39Z</time></trkpt>
<trkpt lat="46.15496138" lon="7.47429670"><ele>1902.586426</ele><time>2007-08-18T08:06:51Z</time></trkpt>
<trkpt lat="46.15462384" lon="7.47442293"><ele>1904.989746</ele><time>2007-08-18T08:07:03Z</time></trkpt>
<trkpt lat="46.15468562" lon="7.47451019"><ele>1905.950928</ele><time>2007-08-18T08:07:09Z</time></trkpt>
<trkpt lat="46.15472409" lon="7.47449418"><ele>1907.393066</ele><time>2007-08-18T08:07:11Z</time></trkpt>
<trkpt lat="46.15500949" lon="7.47446920"><ele>1910.276855</ele><time>2007-08-18T08:07:26Z</time></trkpt>
<trkpt lat="46.15530445" lon="7.47452368"><ele>1912.199463</ele><time>2007-08-18T08:07:41Z</time></trkpt>
<trkpt lat="46.15551283" lon="7.47446383"><ele>1915.083496</ele><time>2007-08-18T08:07:53Z</time></trkpt>
<trkpt lat="46.15559765" lon="7.47428563"><ele>1917.486816</ele><time>2007-08-18T08:08:01Z</time></trkpt>
<trkpt lat="46.15581717" lon="7.47390543"><ele>1919.890137</ele><time>2007-08-18T08:08:18Z</time></trkpt>
<trkpt lat="46.15601448" lon="7.47355247"><ele>1922.77417</ele><time>2007-08-18T08:08:35Z</time></trkpt>
<trkpt lat="46.15610048" lon="7.47345868"><ele>1924.216064</ele><time>2007-08-18T08:08:41Z</time></trkpt>
<trkpt lat="46.15629335" lon="7.47331233"><ele>1926.138672</ele><time>2007-08-18T08:08:54Z</time></trkpt>
<trkpt lat="46.15655973" lon="7.47338307"><ele>1928.061279</ele><time>2007-08-18T08:09:09Z</time></trkpt>
<trkpt lat="46.15679056" lon="7.47332758"><ele>1931.425781</ele><time>2007-08-18T08:09:25Z</time></trkpt>
<trkpt lat="46.15698435" lon="7.47308618"><ele>1935.27124</ele><time>2007-08-18T08:09:40Z</time></trkpt>
<trkpt lat="46.15718476" lon="7.47263809"><ele>1937.193848</ele><time>2007-08-18T08:09:59Z</time></trkpt>
<trkpt lat="46.15734494" lon="7.47213115"><ele>1940.55835</ele><time>2007-08-18T08:10:19Z</time></trkpt>
<trkpt lat="46.15753496" lon="7.47199260"><ele>1943.923096</ele><time>2007-08-18T08:10:32Z</time></trkpt>
<trkpt lat="46.15773562" lon="7.47217272"><ele>1946.806885</ele><time>2007-08-18T08:10:45Z</time></trkpt>
<trkpt lat="46.15792933" lon="7.47239283"><ele>1949.691162</ele><time>2007-08-18T08:11:00Z</time></trkpt>
<trkpt lat="46.15794618" lon="7.47240323"><ele>1950.171875</ele><time>2007-08-18T08:11:01Z</time></trkpt>
<trkpt lat="46.15797635" lon="7.47240147"><ele>1950.171875</ele><time>2007-08-18T08:11:03Z</time></trkpt>
<trkpt lat="46.15804944" lon="7.47235495"><ele>1950.652344</ele><time>2007-08-18T08:11:07Z</time></trkpt>
<trkpt lat="46.15835203" lon="7.47213098"><ele>1954.01709</ele><time>2007-08-18T08:11:26Z</time></trkpt>
<trkpt lat="46.15861539" lon="7.47217574"><ele>1956.900879</ele><time>2007-08-18T08:11:42Z</time></trkpt>
<trkpt lat="46.15879426" lon="7.47224238"><ele>1959.784668</ele><time>2007-08-18T08:11:53Z</time></trkpt>
<trkpt lat="46.15903406" lon="7.47245134"><ele>1963.149414</ele><time>2007-08-18T08:12:09Z</time></trkpt>
<trkpt lat="46.15930027" lon="7.47246986"><ele>1965.072266</ele><time>2007-08-18T08:12:24Z</time></trkpt>
<trkpt lat="46.15960998" lon="7.47227808"><ele>1967.956055</ele><time>2007-08-18T08:12:41Z</time></trkpt>
<trkpt lat="46.15986085" lon="7.47203736"><ele>1971.320557</ele><time>2007-08-18T08:12:57Z</time></trkpt>
<trkpt lat="46.16015900" lon="7.47205932"><ele>1973.243408</ele><time>2007-08-18T08:13:13Z</time></trkpt>
<trkpt lat="46.16039235" lon="7.47192127"><ele>1974.685303</ele><time>2007-08-18T08:13:27Z</time></trkpt>
<trkpt lat="46.16048086" lon="7.47165757"><ele>1978.049805</ele><time>2007-08-18T08:13:38Z</time></trkpt>
<trkpt lat="46.16054909" lon="7.47127905"><ele>1980.934082</ele><time>2007-08-18T08:13:52Z</time></trkpt>
<trkpt lat="46.16060123" lon="7.47115927"><ele>1981.895264</ele><time>2007-08-18T08:13:57Z</time></trkpt>
<trkpt lat="46.16070106" lon="7.47110177"><ele>1983.817871</ele><time>2007-08-18T08:14:03Z</time></trkpt>
<trkpt lat="46.16087859" lon="7.47103689"><ele>1987.182373</ele><time>2007-08-18T08:14:14Z</time></trkpt>
<trkpt lat="46.16099359" lon="7.47102725"><ele>1988.143799</ele><time>2007-08-18T08:14:21Z</time></trkpt>
<trkpt lat="46.16121906" lon="7.47108593"><ele>1990.066406</ele><time>2007-08-18T08:14:36Z</time></trkpt>
<trkpt lat="46.16140472" lon="7.47087839"><ele>1993.430908</ele><time>2007-08-18T08:14:50Z</time></trkpt>
<trkpt lat="46.16171183" lon="7.47081343"><ele>1995.834229</ele><time>2007-08-18T08:15:07Z</time></trkpt>
<trkpt lat="46.16201299" lon="7.47080136"><ele>1997.75708</ele><time>2007-08-18T08:15:24Z</time></trkpt>
<trkpt lat="46.16219404" lon="7.47057505"><ele>1999.679688</ele><time>2007-08-18T08:15:38Z</time></trkpt>
<trkpt lat="46.16241574" lon="7.47054068"><ele>2003.524902</ele><time>2007-08-18T08:15:51Z</time></trkpt>
<trkpt lat="46.16253904" lon="7.47042904"><ele>2006.408691</ele><time>2007-08-18T08:16:00Z</time></trkpt>
<trkpt lat="46.16277097" lon="7.47031672"><ele>2009.292725</ele><time>2007-08-18T08:16:15Z</time></trkpt>
<trkpt lat="46.16298546" lon="7.47015378"><ele>2012.657471</ele><time>2007-08-18T08:16:30Z</time></trkpt>
<trkpt lat="46.16323709" lon="7.47000533"><ele>2016.021973</ele><time>2007-08-18T08:16:48Z</time></trkpt>
<trkpt lat="46.16348653" lon="7.46989318"><ele>2018.906006</ele><time>2007-08-18T08:17:03Z</time></trkpt>
<trkpt lat="46.16375852" lon="7.46979729"><ele>2022.270508</ele><time>2007-08-18T08:17:19Z</time></trkpt>
<trkpt lat="46.16384679" lon="7.46976477"><ele>2022.270508</ele><time>2007-08-18T08:17:24Z</time></trkpt>
<trkpt lat="46.16412196" lon="7.46956713"><ele>2025.63501</ele><time>2007-08-18T08:17:41Z</time></trkpt>
<trkpt lat="46.16422540" lon="7.46955874"><ele>2026.115723</ele><time>2007-08-18T08:17:47Z</time></trkpt>
<trkpt lat="46.16432749" lon="7.46959269"><ele>2028.038574</ele><time>2007-08-18T08:17:54Z</time></trkpt>
<trkpt lat="46.16449093" lon="7.46954215"><ele>2030.922607</ele><time>2007-08-18T08:18:07Z</time></trkpt>
<trkpt lat="46.16466033" lon="7.46953167"><ele>2032.844971</ele><time>2007-08-18T08:18:18Z</time></trkpt>
<trkpt lat="46.16471305" lon="7.46956193"><ele>2034.287109</ele><time>2007-08-18T08:18:23Z</time></trkpt>
<trkpt lat="46.16490483" lon="7.46965832"><ele>2036.209717</ele><time>2007-08-18T08:18:35Z</time></trkpt>
<trkpt lat="46.16493995" lon="7.46966318"><ele>2035.248291</ele><time>2007-08-18T08:18:37Z</time></trkpt>
<trkpt lat="46.16498882" lon="7.46966427"><ele>2036.690186</ele><time>2007-08-18T08:18:40Z</time></trkpt>
<trkpt lat="46.16506509" lon="7.46967450"><ele>2037.170898</ele><time>2007-08-18T08:18:45Z</time></trkpt>
<trkpt lat="46.16501589" lon="7.46976846"><ele>2039.093506</ele><time>2007-08-18T08:18:56Z</time></trkpt>
<trkpt lat="46.16500047" lon="7.46976133"><ele>2039.093506</ele><time>2007-08-18T08:18:57Z</time></trkpt>
<trkpt lat="46.16468422" lon="7.46977097"><ele>2041.977539</ele><time>2007-08-18T08:19:15Z</time></trkpt>
<trkpt lat="46.16444559" lon="7.46993786"><ele>2044.380859</ele><time>2007-08-18T08:19:30Z</time></trkpt>
<trkpt lat="46.16420813" lon="7.47007289"><ele>2047.745605</ele><time>2007-08-18T08:19:44Z</time></trkpt>
<trkpt lat="46.16404166" lon="7.47032217"><ele>2050.148926</ele><time>2007-08-18T08:19:58Z</time></trkpt>
<trkpt lat="46.16386053" lon="7.47055334"><ele>2053.513428</ele><time>2007-08-18T08:20:11Z</time></trkpt>
<trkpt lat="46.16368267" lon="7.47076146"><ele>2055.916504</ele><time>2007-08-18T08:20:25Z</time></trkpt>
<trkpt lat="46.16350950" lon="7.47102323"><ele>2058.800537</ele><time>2007-08-18T08:20:39Z</time></trkpt>
<trkpt lat="46.16324874" lon="7.47117192"><ele>2061.204102</ele><time>2007-08-18T08:20:52Z</time></trkpt>
<trkpt lat="46.16301119" lon="7.47145674"><ele>2063.126709</ele><time>2007-08-18T08:21:07Z</time></trkpt>
<trkpt lat="46.16281204" lon="7.47178766"><ele>2066.491211</ele><time>2007-08-18T08:21:24Z</time></trkpt>
<trkpt lat="46.16265329" lon="7.47211263"><ele>2068.894531</ele><time>2007-08-18T08:21:40Z</time></trkpt>
<trkpt lat="46.16249437" lon="7.47238453"><ele>2072.259033</ele><time>2007-08-18T08:21:53Z</time></trkpt>
<trkpt lat="46.16226495" lon="7.47273088"><ele>2075.142822</ele><time>2007-08-18T08:22:11Z</time></trkpt>
<trkpt lat="46.16214962" lon="7.47297060"><ele>2077.065918</ele><time>2007-08-18T08:22:24Z</time></trkpt>
<trkpt lat="46.16205172" lon="7.47327553"><ele>2079.949707</ele><time>2007-08-18T08:22:37Z</time></trkpt>
<trkpt lat="46.16186178" lon="7.47356236"><ele>2083.314209</ele><time>2007-08-18T08:22:53Z</time></trkpt>
<trkpt lat="46.16162189" lon="7.47367082"><ele>2085.717529</ele><time>2007-08-18T08:23:08Z</time></trkpt>
<trkpt lat="46.16135728" lon="7.47373603"><ele>2088.12085</ele><time>2007-08-18T08:23:24Z</time></trkpt>
<trkpt lat="46.16131679" lon="7.47374919"><ele>2088.601563</ele><time>2007-08-18T08:23:26Z</time></trkpt>
<trkpt lat="46.16120892" lon="7.47382790"><ele>2090.523926</ele><time>2007-08-18T08:23:33Z</time></trkpt>
<trkpt lat="46.16101395" lon="7.47411850"><ele>2093.408203</ele><time>2007-08-18T08:23:50Z</time></trkpt>
<trkpt lat="46.16078253" lon="7.47438932"><ele>2095.330811</ele><time>2007-08-18T08:24:07Z</time></trkpt>
<trkpt lat="46.16061715" lon="7.47470163"><ele>2097.253418</ele><time>2007-08-18T08:24:23Z</time></trkpt>
<trkpt lat="46.16058086" lon="7.47478763"><ele>2098.695313</ele><time>2007-08-18T08:24:27Z</time></trkpt>
<trkpt lat="46.16046628" lon="7.47507303"><ele>2102.059814</ele><time>2007-08-18T08:24:42Z</time></trkpt>
<trkpt lat="46.16046133" lon="7.47509692"><ele>2102.059814</ele><time>2007-08-18T08:24:55Z</time></trkpt>
<trkpt lat="46.16039973" lon="7.47527168"><ele>2103.501953</ele><time>2007-08-18T08:25:15Z</time></trkpt>
<trkpt lat="46.16031348" lon="7.47549682"><ele>2106.866455</ele><time>2007-08-18T08:25:27Z</time></trkpt>
<trkpt lat="46.16019865" lon="7.47589169"><ele>2109.750488</ele><time>2007-08-18T08:25:47Z</time></trkpt>
<trkpt lat="46.16013427" lon="7.47617894"><ele>2113.115234</ele><time>2007-08-18T08:26:01Z</time></trkpt>
<trkpt lat="46.16004040" lon="7.47651933"><ele>2115.999023</ele><time>2007-08-18T08:26:17Z</time></trkpt>
<trkpt lat="46.15983630" lon="7.47671454"><ele>2117.921631</ele><time>2007-08-18T08:26:33Z</time></trkpt>
<trkpt lat="46.15960445" lon="7.47667909"><ele>2121.766846</ele><time>2007-08-18T08:26:48Z</time></trkpt>
<trkpt lat="46.15938795" lon="7.47647222"><ele>2125.131592</ele><time>2007-08-18T08:27:07Z</time></trkpt>
<trkpt lat="46.15925367" lon="7.47638295"><ele>2126.57373</ele><time>2007-08-18T08:27:19Z</time></trkpt>
<trkpt lat="46.15919198" lon="7.47636795"><ele>2127.534912</ele><time>2007-08-18T08:27:24Z</time></trkpt>
<trkpt lat="46.15911210" lon="7.47639226"><ele>2128.015625</ele><time>2007-08-18T08:27:29Z</time></trkpt>
<trkpt lat="46.15897983" lon="7.47643014"><ele>2128.976807</ele><time>2007-08-18T08:27:36Z</time></trkpt>
<trkpt lat="46.15888344" lon="7.47649267"><ele>2130.418945</ele><time>2007-08-18T08:27:43Z</time></trkpt>
<trkpt lat="46.15882167" lon="7.47653609"><ele>2131.380127</ele><time>2007-08-18T08:27:48Z</time></trkpt>
<trkpt lat="46.15856124" lon="7.47664556"><ele>2133.302734</ele><time>2007-08-18T08:28:03Z</time></trkpt>
<trkpt lat="46.15829612" lon="7.47683214"><ele>2135.706055</ele><time>2007-08-18T08:28:20Z</time></trkpt>
<trkpt lat="46.15808775" lon="7.47699022"><ele>2138.109375</ele><time>2007-08-18T08:28:35Z</time></trkpt>
<trkpt lat="46.15806118" lon="7.47701059"><ele>2139.070557</ele><time>2007-08-18T08:28:37Z</time></trkpt>
<trkpt lat="46.15782908" lon="7.47721218"><ele>2142.435547</ele><time>2007-08-18T08:28:54Z</time></trkpt>
<trkpt lat="46.15782036" lon="7.47765935"><ele>2145.319336</ele><time>2007-08-18T08:29:13Z</time></trkpt>
<trkpt lat="46.15776362" lon="7.47799588"><ele>2148.203125</ele><time>2007-08-18T08:29:28Z</time></trkpt>
<trkpt lat="46.15763085" lon="7.47844247"><ele>2151.567871</ele><time>2007-08-18T08:29:46Z</time></trkpt>
<trkpt lat="46.15745349" lon="7.47881739"><ele>2153.490479</ele><time>2007-08-18T08:30:02Z</time></trkpt>
<trkpt lat="46.15726674" lon="7.47929868"><ele>2155.413086</ele><time>2007-08-18T08:30:20Z</time></trkpt>
<trkpt lat="46.15706507" lon="7.47971895"><ele>2156.855225</ele><time>2007-08-18T08:30:35Z</time></trkpt>
<trkpt lat="46.15675243" lon="7.48013696"><ele>2160.219727</ele><time>2007-08-18T08:30:52Z</time></trkpt>
<trkpt lat="46.15655160" lon="7.48069712"><ele>2163.10376</ele><time>2007-08-18T08:31:11Z</time></trkpt>
<trkpt lat="46.15633844" lon="7.48123314"><ele>2165.026367</ele><time>2007-08-18T08:31:29Z</time></trkpt>
<trkpt lat="46.15623468" lon="7.48162106"><ele>2166.948975</ele><time>2007-08-18T08:31:41Z</time></trkpt>
<trkpt lat="46.15593653" lon="7.48195608"><ele>2169.352295</ele><time>2007-08-18T08:31:56Z</time></trkpt>
<trkpt lat="46.15571315" lon="7.48208835"><ele>2171.274658</ele><time>2007-08-18T08:32:06Z</time></trkpt>
<trkpt lat="46.15548994" lon="7.48253418"><ele>2174.639648</ele><time>2007-08-18T08:32:23Z</time></trkpt>
<trkpt lat="46.15527746" lon="7.48291405"><ele>2177.523438</ele><time>2007-08-18T08:32:38Z</time></trkpt>
<trkpt lat="46.15524905" lon="7.48332367"><ele>2179.446045</ele><time>2007-08-18T08:32:54Z</time></trkpt>
<trkpt lat="46.15524997" lon="7.48370622"><ele>2181.368652</ele><time>2007-08-18T08:33:10Z</time></trkpt>
<trkpt lat="46.15522600" lon="7.48402214"><ele>2184.733398</ele><time>2007-08-18T08:33:25Z</time></trkpt>
<trkpt lat="46.15524762" lon="7.48435473"><ele>2187.617188</ele><time>2007-08-18T08:33:40Z</time></trkpt>
<trkpt lat="46.15530269" lon="7.48477726"><ele>2190.981934</ele><time>2007-08-18T08:34:00Z</time></trkpt>
<trkpt lat="46.15530118" lon="7.48479185"><ele>2190.981934</ele><time>2007-08-18T08:34:16Z</time></trkpt>
<trkpt lat="46.15531828" lon="7.48484784"><ele>2191.462646</ele><time>2007-08-18T08:34:23Z</time></trkpt>
<trkpt lat="46.15531585" lon="7.48524279"><ele>2194.346436</ele><time>2007-08-18T08:34:40Z</time></trkpt>
<trkpt lat="46.15514277" lon="7.48567857"><ele>2197.230469</ele><time>2007-08-18T08:35:01Z</time></trkpt>
<trkpt lat="46.15524159" lon="7.48604293"><ele>2199.633789</ele><time>2007-08-18T08:35:16Z</time></trkpt>
<trkpt lat="46.15528895" lon="7.48644945"><ele>2202.517578</ele><time>2007-08-18T08:35:35Z</time></trkpt>
<trkpt lat="46.15513346" lon="7.48681214"><ele>2205.882324</ele><time>2007-08-18T08:35:52Z</time></trkpt>
<trkpt lat="46.15495132" lon="7.48727323"><ele>2208.766357</ele><time>2007-08-18T08:36:09Z</time></trkpt>
<trkpt lat="46.15493992" lon="7.48746567"><ele>2210.208252</ele><time>2007-08-18T08:36:15Z</time></trkpt>
<trkpt lat="46.15502324" lon="7.48814503"><ele>2212.130859</ele><time>2007-08-18T08:36:34Z</time></trkpt>
<trkpt lat="46.15487245" lon="7.48851333"><ele>2212.611572</ele><time>2007-08-18T08:36:47Z</time></trkpt>
<trkpt lat="46.15449694" lon="7.48865825"><ele>2215.014893</ele><time>2007-08-18T08:37:03Z</time></trkpt>
<trkpt lat="46.15425697" lon="7.48890359"><ele>2218.379395</ele><time>2007-08-18T08:37:17Z</time></trkpt>
<trkpt lat="46.15407349" lon="7.48957356"><ele>2220.782959</ele><time>2007-08-18T08:37:37Z</time></trkpt>
<trkpt lat="46.15403099" lon="7.49013305"><ele>2224.147461</ele><time>2007-08-18T08:37:56Z</time></trkpt>
<trkpt lat="46.15381105" lon="7.49041376"><ele>2227.031494</ele><time>2007-08-18T08:38:12Z</time></trkpt>
<trkpt lat="46.15359337" lon="7.49064803"><ele>2230.395996</ele><time>2007-08-18T08:38:28Z</time></trkpt>
<trkpt lat="46.15344518" lon="7.49096026"><ele>2233.760498</ele><time>2007-08-18T08:38:45Z</time></trkpt>
<trkpt lat="46.15323253" lon="7.49122873"><ele>2235.683105</ele><time>2007-08-18T08:39:04Z</time></trkpt>
<trkpt lat="46.15301779" lon="7.49149645"><ele>2238.567383</ele><time>2007-08-18T08:39:23Z</time></trkpt>
<trkpt lat="46.15280153" lon="7.49178143"><ele>2240.970459</ele><time>2007-08-18T08:39:42Z</time></trkpt>
<trkpt lat="46.15265770" lon="7.49194790"><ele>2245.296387</ele><time>2007-08-18T08:39:55Z</time></trkpt>
<trkpt lat="46.15243566" lon="7.49219483"><ele>2248.180176</ele><time>2007-08-18T08:40:15Z</time></trkpt>
<trkpt lat="46.15233726" lon="7.49253413"><ele>2251.064209</ele><time>2007-08-18T08:40:33Z</time></trkpt>
<trkpt lat="46.15223575" lon="7.49295783"><ele>2253.948486</ele><time>2007-08-18T08:40:54Z</time></trkpt>
<trkpt lat="46.15217180" lon="7.49326905"><ele>2257.312988</ele><time>2007-08-18T08:41:09Z</time></trkpt>
<trkpt lat="46.15215688" lon="7.49365395"><ele>2260.67749</ele><time>2007-08-18T08:41:27Z</time></trkpt>
<trkpt lat="46.15216702" lon="7.49398193"><ele>2263.080811</ele><time>2007-08-18T08:41:43Z</time></trkpt>
<trkpt lat="46.15222586" lon="7.49431805"><ele>2265.9646</ele><time>2007-08-18T08:42:00Z</time></trkpt>
<trkpt lat="46.15224497" lon="7.49481434"><ele>2267.887207</ele><time>2007-08-18T08:42:23Z</time></trkpt>
<trkpt lat="46.15229988" lon="7.49510603"><ele>2271.251953</ele><time>2007-08-18T08:42:37Z</time></trkpt>
<trkpt lat="46.15214355" lon="7.49545153"><ele>2273.655273</ele><time>2007-08-18T08:42:56Z</time></trkpt>
<trkpt lat="46.15197809" lon="7.49557215"><ele>2277.02002</ele><time>2007-08-18T08:43:08Z</time></trkpt>
<trkpt lat="46.15188916" lon="7.49582964"><ele>2278.942383</ele><time>2007-08-18T08:43:23Z</time></trkpt>
<trkpt lat="46.15194029" lon="7.49620532"><ele>2282.307129</ele><time>2007-08-18T08:43:41Z</time></trkpt>
<trkpt lat="46.15198212" lon="7.49670547"><ele>2284.22998</ele><time>2007-08-18T08:44:02Z</time></trkpt>
<trkpt lat="46.15200383" lon="7.49719195"><ele>2287.11377</ele><time>2007-08-18T08:44:22Z</time></trkpt>
<trkpt lat="46.15203920" lon="7.49776376"><ele>2290.478271</ele><time>2007-08-18T08:44:45Z</time></trkpt>
<trkpt lat="46.15193484" lon="7.49805789"><ele>2293.362305</ele><time>2007-08-18T08:44:58Z</time></trkpt>
<trkpt lat="46.15192546" lon="7.49826576"><ele>2295.284912</ele><time>2007-08-18T08:45:07Z</time></trkpt>
<trkpt lat="46.15199536" lon="7.49824287"><ele>2296.246338</ele><time>2007-08-18T08:45:13Z</time></trkpt>
<trkpt lat="46.15211019" lon="7.49803383"><ele>2299.61084</ele><time>2007-08-18T08:45:24Z</time></trkpt>
<trkpt lat="46.15222016" lon="7.49758238"><ele>2301.052979</ele><time>2007-08-18T08:45:44Z</time></trkpt>
<trkpt lat="46.15227926" lon="7.49714292"><ele>2304.898193</ele><time>2007-08-18T08:46:02Z</time></trkpt>
<trkpt lat="46.15235989" lon="7.49664746"><ele>2307.782227</ele><time>2007-08-18T08:46:22Z</time></trkpt>
<trkpt lat="46.15240272" lon="7.49626156"><ele>2311.146729</ele><time>2007-08-18T08:46:37Z</time></trkpt>
<trkpt lat="46.15260925" lon="7.49604874"><ele>2313.549805</ele><time>2007-08-18T08:46:51Z</time></trkpt>
<trkpt lat="46.15280388" lon="7.49571087"><ele>2315.953125</ele><time>2007-08-18T08:47:08Z</time></trkpt>
<trkpt lat="46.15301854" lon="7.49523226"><ele>2319.318115</ele><time>2007-08-18T08:47:31Z</time></trkpt>
<trkpt lat="46.15310026" lon="7.49489925"><ele>2322.201904</ele><time>2007-08-18T08:47:46Z</time></trkpt>
<trkpt lat="46.15312767" lon="7.49479556"><ele>2323.643799</ele><time>2007-08-18T08:47:51Z</time></trkpt>
<trkpt lat="46.15318408" lon="7.49433775"><ele>2326.527832</ele><time>2007-08-18T08:48:09Z</time></trkpt>
<trkpt lat="46.15324628" lon="7.49388479"><ele>2329.411621</ele><time>2007-08-18T08:48:28Z</time></trkpt>
<trkpt lat="46.15354685" lon="7.49363048"><ele>2331.814941</ele><time>2007-08-18T08:48:47Z</time></trkpt>
<trkpt lat="46.15382873" lon="7.49345337"><ele>2335.179688</ele><time>2007-08-18T08:49:03Z</time></trkpt>
<trkpt lat="46.15404658" lon="7.49332496"><ele>2338.544434</ele><time>2007-08-18T08:49:17Z</time></trkpt>
<trkpt lat="46.15440616" lon="7.49309069"><ele>2341.908936</ele><time>2007-08-18T08:49:39Z</time></trkpt>
<trkpt lat="46.15479106" lon="7.49293227"><ele>2345.273438</ele><time>2007-08-18T08:50:01Z</time></trkpt>
<trkpt lat="46.15480732" lon="7.49292397"><ele>2345.273438</ele><time>2007-08-18T08:50:02Z</time></trkpt>
<trkpt lat="46.15487589" lon="7.49288885"><ele>2346.234863</ele><time>2007-08-18T08:50:06Z</time></trkpt>
<trkpt lat="46.15528978" lon="7.49268048"><ele>2348.157471</ele><time>2007-08-18T08:50:30Z</time></trkpt>
<trkpt lat="46.15552599" lon="7.49255626"><ele>2351.522217</ele><time>2007-08-18T08:50:42Z</time></trkpt>
<trkpt lat="46.15579848" lon="7.49248409"><ele>2353.925537</ele><time>2007-08-18T08:50:57Z</time></trkpt>
<trkpt lat="46.15581374" lon="7.49255022"><ele>2354.886719</ele><time>2007-08-18T08:51:00Z</time></trkpt>
<trkpt lat="46.15576286" lon="7.49265156"><ele>2356.328613</ele><time>2007-08-18T08:51:05Z</time></trkpt>
<trkpt lat="46.15542733" lon="7.49284845"><ele>2357.770752</ele><time>2007-08-18T08:51:26Z</time></trkpt>
<trkpt lat="46.15531275" lon="7.49297258"><ele>2361.135254</ele><time>2007-08-18T08:51:36Z</time></trkpt>
<trkpt lat="46.15519959" lon="7.49311139"><ele>2363.057861</ele><time>2007-08-18T08:51:46Z</time></trkpt>
<trkpt lat="46.15511125" lon="7.49322513"><ele>2365.941895</ele><time>2007-08-18T08:51:54Z</time></trkpt>
<trkpt lat="46.15500807" lon="7.49333485"><ele>2366.90332</ele><time>2007-08-18T08:52:03Z</time></trkpt>
<trkpt lat="46.15478050" lon="7.49365035"><ele>2370.748535</ele><time>2007-08-18T08:52:24Z</time></trkpt>
<trkpt lat="46.15459794" lon="7.49404966"><ele>2372.671143</ele><time>2007-08-18T08:52:42Z</time></trkpt>
<trkpt lat="46.15441714" lon="7.49458468"><ele>2375.074219</ele><time>2007-08-18T08:53:02Z</time></trkpt>
<trkpt lat="46.15435713" lon="7.49472415"><ele>2375.074219</ele><time>2007-08-18T08:53:07Z</time></trkpt>
<trkpt lat="46.15427096" lon="7.49523276"><ele>2375.074219</ele><time>2007-08-18T08:53:20Z</time></trkpt>
<trkpt lat="46.15430634" lon="7.49565102"><ele>2375.074219</ele><time>2007-08-18T08:53:33Z</time></trkpt>
<trkpt lat="46.15431623" lon="7.49572026"><ele>2375.074219</ele><time>2007-08-18T08:53:43Z</time></trkpt>
<trkpt lat="46.15429963" lon="7.49572126"><ele>2374.59375</ele><time>2007-08-18T08:53:57Z</time></trkpt>
<trkpt lat="46.15429628" lon="7.49571766"><ele>2374.59375</ele><time>2007-08-18T08:54:13Z</time></trkpt>
<trkpt lat="46.15429519" lon="7.49572202"><ele>2374.113037</ele><time>2007-08-18T08:54:38Z</time></trkpt>
<trkpt lat="46.15428764" lon="7.49571724"><ele>2374.59375</ele><time>2007-08-18T08:55:05Z</time></trkpt>
<trkpt lat="46.15430558" lon="7.49573543"><ele>2375.074219</ele><time>2007-08-18T08:55:11Z</time></trkpt>
<trkpt lat="46.15433123" lon="7.49578832"><ele>2376.516357</ele><time>2007-08-18T08:55:15Z</time></trkpt>
<trkpt lat="46.15436610" lon="7.49595847"><ele>2378.919434</ele><time>2007-08-18T08:55:26Z</time></trkpt>
<trkpt lat="46.15437414" lon="7.49603785"><ele>2379.400146</ele><time>2007-08-18T08:55:33Z</time></trkpt>
<trkpt lat="46.15434799" lon="7.49612594"><ele>2379.880859</ele><time>2007-08-18T08:55:37Z</time></trkpt>
<trkpt lat="46.15439912" lon="7.49619802"><ele>2380.842529</ele><time>2007-08-18T08:55:42Z</time></trkpt>
<trkpt lat="46.15446215" lon="7.49628142"><ele>2382.764893</ele><time>2007-08-18T08:55:48Z</time></trkpt>
<trkpt lat="46.15440063" lon="7.49659298"><ele>2384.687744</ele><time>2007-08-18T08:56:05Z</time></trkpt>
<trkpt lat="46.15435302" lon="7.49693722"><ele>2387.571533</ele><time>2007-08-18T08:56:25Z</time></trkpt>
<trkpt lat="46.15435026" lon="7.49720075"><ele>2390.455322</ele><time>2007-08-18T08:56:40Z</time></trkpt>
<trkpt lat="46.15430474" lon="7.49754248"><ele>2393.820068</ele><time>2007-08-18T08:56:59Z</time></trkpt>
<trkpt lat="46.15426577" lon="7.49781204"><ele>2394.300537</ele><time>2007-08-18T08:57:13Z</time></trkpt>
<trkpt lat="46.15426954" lon="7.49783208"><ele>2394.78125</ele><time>2007-08-18T08:57:14Z</time></trkpt>
<trkpt lat="46.15426158" lon="7.49791154"><ele>2394.78125</ele><time>2007-08-18T08:57:18Z</time></trkpt>
<trkpt lat="46.15423216" lon="7.49813533"><ele>2395.261963</ele><time>2007-08-18T08:57:31Z</time></trkpt>
<trkpt lat="46.15421908" lon="7.49820683"><ele>2395.261963</ele><time>2007-08-18T08:57:36Z</time></trkpt>
<trkpt lat="46.15421095" lon="7.49829317"><ele>2395.742676</ele><time>2007-08-18T08:57:41Z</time></trkpt>
<trkpt lat="46.15422185" lon="7.49834388"><ele>2396.223633</ele><time>2007-08-18T08:57:45Z</time></trkpt>
<trkpt lat="46.15420718" lon="7.49852509"><ele>2397.184814</ele><time>2007-08-18T08:57:57Z</time></trkpt>
<trkpt lat="46.15418346" lon="7.49877940"><ele>2399.107422</ele><time>2007-08-18T08:58:13Z</time></trkpt>
<trkpt lat="46.15418497" lon="7.49879155"><ele>2399.588135</ele><time>2007-08-18T08:58:14Z</time></trkpt>
<trkpt lat="46.15416233" lon="7.49897562"><ele>2401.510742</ele><time>2007-08-18T08:58:29Z</time></trkpt>
<trkpt lat="46.15422092" lon="7.49921585"><ele>2401.030029</ele><time>2007-08-18T08:58:37Z</time></trkpt>
<trkpt lat="46.15419293" lon="7.49933269"><ele>2400.549316</ele><time>2007-08-18T08:58:42Z</time></trkpt>
<trkpt lat="46.15407709" lon="7.49951893"><ele>2402.952637</ele><time>2007-08-18T08:58:52Z</time></trkpt>
<trkpt lat="46.15404909" lon="7.49966059"><ele>2403.914063</ele><time>2007-08-18T08:58:59Z</time></trkpt>
<trkpt lat="46.15398573" lon="7.49993149"><ele>2405.836426</ele><time>2007-08-18T08:59:12Z</time></trkpt>
<trkpt lat="46.15397022" lon="7.50000257"><ele>2405.836426</ele><time>2007-08-18T08:59:16Z</time></trkpt>
<trkpt lat="46.15390493" lon="7.50047824"><ele>2407.278564</ele><time>2007-08-18T08:59:35Z</time></trkpt>
<trkpt lat="46.15386117" lon="7.50082777"><ele>2410.643066</ele><time>2007-08-18T08:59:49Z</time></trkpt>
<trkpt lat="46.15374483" lon="7.50120286"><ele>2412.565918</ele><time>2007-08-18T09:00:05Z</time></trkpt>
<trkpt lat="46.15371399" lon="7.50131132"><ele>2413.046631</ele><time>2007-08-18T09:00:09Z</time></trkpt>
<trkpt lat="46.15365649" lon="7.50171189"><ele>2414.007813</ele><time>2007-08-18T09:00:24Z</time></trkpt>
<trkpt lat="46.15359974" lon="7.50196746"><ele>2414.488525</ele><time>2007-08-18T09:00:35Z</time></trkpt>
<trkpt lat="46.15359312" lon="7.50198933"><ele>2414.488525</ele><time>2007-08-18T09:00:42Z</time></trkpt>
<trkpt lat="46.15353344" lon="7.50227625"><ele>2415.93042</ele><time>2007-08-18T09:00:59Z</time></trkpt>
<trkpt lat="46.15350469" lon="7.50254505"><ele>2416.891846</ele><time>2007-08-18T09:01:16Z</time></trkpt>
<trkpt lat="46.15349958" lon="7.50261320"><ele>2418.33374</ele><time>2007-08-18T09:01:20Z</time></trkpt>
<trkpt lat="46.15347938" lon="7.50284177"><ele>2421.217529</ele><time>2007-08-18T09:01:35Z</time></trkpt>
<trkpt lat="46.15349949" lon="7.50290346"><ele>2421.217529</ele><time>2007-08-18T09:01:41Z</time></trkpt>
<trkpt lat="46.15346412" lon="7.50319088"><ele>2424.582275</ele><time>2007-08-18T09:02:02Z</time></trkpt>
<trkpt lat="46.15350486" lon="7.50333614"><ele>2427.946777</ele><time>2007-08-18T09:02:17Z</time></trkpt>
<trkpt lat="46.15353176" lon="7.50349908"><ele>2429.869629</ele><time>2007-08-18T09:02:32Z</time></trkpt>
<trkpt lat="46.15354224" lon="7.50365306"><ele>2432.272949</ele><time>2007-08-18T09:02:45Z</time></trkpt>
<trkpt lat="46.15347762" lon="7.50382514"><ele>2434.195557</ele><time>2007-08-18T09:03:02Z</time></trkpt>
<trkpt lat="46.15345155" lon="7.50395330"><ele>2437.560059</ele><time>2007-08-18T09:03:16Z</time></trkpt>
<trkpt lat="46.15342959" lon="7.50405044"><ele>2440.443848</ele><time>2007-08-18T09:03:29Z</time></trkpt>
<trkpt lat="46.15337812" lon="7.50416284"><ele>2442.366699</ele><time>2007-08-18T09:03:44Z</time></trkpt>
<trkpt lat="46.15328919" lon="7.50424038"><ele>2445.250732</ele><time>2007-08-18T09:04:00Z</time></trkpt>
<trkpt lat="46.15320437" lon="7.50431900"><ele>2448.615234</ele><time>2007-08-18T09:04:14Z</time></trkpt>
<trkpt lat="46.15308853" lon="7.50441698"><ele>2451.499268</ele><time>2007-08-18T09:04:30Z</time></trkpt>
<trkpt lat="46.15300546" lon="7.50461404"><ele>2452.460449</ele><time>2007-08-18T09:04:47Z</time></trkpt>
<trkpt lat="46.15293656" lon="7.50474907"><ele>2455.344482</ele><time>2007-08-18T09:05:04Z</time></trkpt>
<trkpt lat="46.15292324" lon="7.50480440"><ele>2456.786377</ele><time>2007-08-18T09:05:10Z</time></trkpt>
<trkpt lat="46.15288896" lon="7.50495326"><ele>2458.708984</ele><time>2007-08-18T09:05:26Z</time></trkpt>
<trkpt lat="46.15288753" lon="7.50518334"><ele>2461.593262</ele><time>2007-08-18T09:05:45Z</time></trkpt>
<trkpt lat="46.15292827" lon="7.50539046"><ele>2463.996338</ele><time>2007-08-18T09:06:02Z</time></trkpt>
<trkpt lat="46.15293422" lon="7.50542533"><ele>2465.438477</ele><time>2007-08-18T09:06:05Z</time></trkpt>
<trkpt lat="46.15292952" lon="7.50544888"><ele>2465.918945</ele><time>2007-08-18T09:06:07Z</time></trkpt>
<trkpt lat="46.15291796" lon="7.50552457"><ele>2466.399658</ele><time>2007-08-18T09:06:13Z</time></trkpt>
<trkpt lat="46.15291008" lon="7.50578944"><ele>2470.725586</ele><time>2007-08-18T09:06:33Z</time></trkpt>
<trkpt lat="46.15292835" lon="7.50583755"><ele>2471.206055</ele><time>2007-08-18T09:06:37Z</time></trkpt>
<trkpt lat="46.15300563" lon="7.50607903"><ele>2474.090088</ele><time>2007-08-18T09:06:57Z</time></trkpt>
<trkpt lat="46.15308476" lon="7.50633166"><ele>2476.974365</ele><time>2007-08-18T09:07:16Z</time></trkpt>
<trkpt lat="46.15310093" lon="7.50647139"><ele>2477.935547</ele><time>2007-08-18T09:07:25Z</time></trkpt>
<trkpt lat="46.15310496" lon="7.50673659"><ele>2480.81958</ele><time>2007-08-18T09:07:45Z</time></trkpt>
<trkpt lat="46.15309364" lon="7.50686450"><ele>2484.184082</ele><time>2007-08-18T09:07:57Z</time></trkpt>
<trkpt lat="46.15312449" lon="7.50708662"><ele>2486.587158</ele><time>2007-08-18T09:08:16Z</time></trkpt>
<trkpt lat="46.15319188" lon="7.50722819"><ele>2489.951904</ele><time>2007-08-18T09:08:30Z</time></trkpt>
<trkpt lat="46.15326446" lon="7.50741083"><ele>2492.835938</ele><time>2007-08-18T09:08:45Z</time></trkpt>
<trkpt lat="46.15329984" lon="7.50766313"><ele>2496.200684</ele><time>2007-08-18T09:09:02Z</time></trkpt>
<trkpt lat="46.15331316" lon="7.50792892"><ele>2496.681152</ele><time>2007-08-18T09:09:13Z</time></trkpt>
<trkpt lat="46.15331316" lon="7.50795968"><ele>2497.161865</ele><time>2007-08-18T09:09:14Z</time></trkpt>
<trkpt lat="46.15325583" lon="7.50812832"><ele>2497.161865</ele><time>2007-08-18T09:09:24Z</time></trkpt>
<trkpt lat="46.15325768" lon="7.50813846"><ele>2497.161865</ele><time>2007-08-18T09:09:25Z</time></trkpt>
<trkpt lat="46.15326019" lon="7.50814785"><ele>2496.681152</ele><time>2007-08-18T09:09:26Z</time></trkpt>
<trkpt lat="46.15327595" lon="7.50833636"><ele>2501.00708</ele><time>2007-08-18T09:09:40Z</time></trkpt>
<trkpt lat="46.15334393" lon="7.50862847"><ele>2502.448975</ele><time>2007-08-18T09:10:00Z</time></trkpt>
<trkpt lat="46.15340444" lon="7.50896852"><ele>2504.852295</ele><time>2007-08-18T09:10:21Z</time></trkpt>
<trkpt lat="46.15351718" lon="7.50921319"><ele>2508.217041</ele><time>2007-08-18T09:10:41Z</time></trkpt>
<trkpt lat="46.15359253" lon="7.50944462"><ele>2510.620361</ele><time>2007-08-18T09:10:59Z</time></trkpt>
<trkpt lat="46.15365783" lon="7.50971368"><ele>2511.581787</ele><time>2007-08-18T09:11:13Z</time></trkpt>
<trkpt lat="46.15374374" lon="7.50994476"><ele>2515.427002</ele><time>2007-08-18T09:11:26Z</time></trkpt>
<trkpt lat="46.15382957" lon="7.51028440"><ele>2518.310791</ele><time>2007-08-18T09:11:44Z</time></trkpt>
<trkpt lat="46.15393150" lon="7.51055136"><ele>2521.675293</ele><time>2007-08-18T09:12:00Z</time></trkpt>
<trkpt lat="46.15397844" lon="7.51070383"><ele>2522.636719</ele><time>2007-08-18T09:12:12Z</time></trkpt>
<trkpt lat="46.15402856" lon="7.51094288"><ele>2524.55957</ele><time>2007-08-18T09:12:30Z</time></trkpt>
<trkpt lat="46.15407466" lon="7.51117908"><ele>2526.962891</ele><time>2007-08-18T09:12:48Z</time></trkpt>
<trkpt lat="46.15415764" lon="7.51141487"><ele>2530.327393</ele><time>2007-08-18T09:13:09Z</time></trkpt>
<trkpt lat="46.15421925" lon="7.51158477"><ele>2533.691895</ele><time>2007-08-18T09:13:24Z</time></trkpt>
<trkpt lat="46.15426543" lon="7.51172818"><ele>2535.614502</ele><time>2007-08-18T09:13:38Z</time></trkpt>
<trkpt lat="46.15429879" lon="7.51185140"><ele>2538.979004</ele><time>2007-08-18T09:13:50Z</time></trkpt>
<trkpt lat="46.15436526" lon="7.51206606"><ele>2540.901855</ele><time>2007-08-18T09:14:10Z</time></trkpt>
<trkpt lat="46.15439476" lon="7.51217879"><ele>2544.266357</ele><time>2007-08-18T09:14:23Z</time></trkpt>
<trkpt lat="46.15441807" lon="7.51235724"><ele>2546.189209</ele><time>2007-08-18T09:14:44Z</time></trkpt>
<trkpt lat="46.15447766" lon="7.51241466"><ele>2548.592285</ele><time>2007-08-18T09:15:01Z</time></trkpt>
<trkpt lat="46.15454388" lon="7.51244626"><ele>2551.476318</ele><time>2007-08-18T09:15:18Z</time></trkpt>
<trkpt lat="46.15458160" lon="7.51247409"><ele>2553.398926</ele><time>2007-08-18T09:15:26Z</time></trkpt>
<trkpt lat="46.15463457" lon="7.51252363"><ele>2556.763672</ele><time>2007-08-18T09:15:38Z</time></trkpt>
<trkpt lat="46.15463457" lon="7.51261666"><ele>2559.166992</ele><time>2007-08-18T09:15:56Z</time></trkpt>
<trkpt lat="46.15461714" lon="7.51269730"><ele>2560.128174</ele><time>2007-08-18T09:16:10Z</time></trkpt>
<trkpt lat="46.15458872" lon="7.51279453"><ele>2563.492676</ele><time>2007-08-18T09:16:24Z</time></trkpt>
<trkpt lat="46.15458068" lon="7.51284432"><ele>2565.415527</ele><time>2007-08-18T09:16:40Z</time></trkpt>
<trkpt lat="46.15462778" lon="7.51291900"><ele>2568.780029</ele><time>2007-08-18T09:16:55Z</time></trkpt>
<trkpt lat="46.15464429" lon="7.51299628"><ele>2570.702637</ele><time>2007-08-18T09:17:12Z</time></trkpt>
<trkpt lat="46.15466106" lon="7.51305596"><ele>2573.106201</ele><time>2007-08-18T09:17:26Z</time></trkpt>
<trkpt lat="46.15470389" lon="7.51313014"><ele>2575.509277</ele><time>2007-08-18T09:17:40Z</time></trkpt>
<trkpt lat="46.15475477" lon="7.51318923"><ele>2577.431885</ele><time>2007-08-18T09:17:56Z</time></trkpt>
<trkpt lat="46.15479508" lon="7.51322938"><ele>2579.354492</ele><time>2007-08-18T09:18:07Z</time></trkpt>
<trkpt lat="46.15485359" lon="7.51327196"><ele>2582.718994</ele><time>2007-08-18T09:18:20Z</time></trkpt>
<trkpt lat="46.15491059" lon="7.51330792"><ele>2583.68042</ele><time>2007-08-18T09:18:36Z</time></trkpt>
<trkpt lat="46.15497555" lon="7.51338487"><ele>2586.08374</ele><time>2007-08-18T09:18:55Z</time></trkpt>
<trkpt lat="46.15498720" lon="7.51342057"><ele>2588.006592</ele><time>2007-08-18T09:19:01Z</time></trkpt>
<trkpt lat="46.15503489" lon="7.51346366"><ele>2590.890381</ele><time>2007-08-18T09:19:18Z</time></trkpt>
<trkpt lat="46.15503908" lon="7.51346810"><ele>2590.890381</ele><time>2007-08-18T09:19:19Z</time></trkpt>
<trkpt lat="46.15502760" lon="7.51354219"><ele>2594.254883</ele><time>2007-08-18T09:19:30Z</time></trkpt>
<trkpt lat="46.15492660" lon="7.51362509"><ele>2595.697021</ele><time>2007-08-18T09:19:49Z</time></trkpt>
<trkpt lat="46.15486650" lon="7.51370153"><ele>2598.100098</ele><time>2007-08-18T09:20:05Z</time></trkpt>
<trkpt lat="46.15481017" lon="7.51378443"><ele>2600.984375</ele><time>2007-08-18T09:20:21Z</time></trkpt>
<trkpt lat="46.15481780" lon="7.51385283"><ele>2603.387207</ele><time>2007-08-18T09:20:36Z</time></trkpt>
<trkpt lat="46.15490237" lon="7.51389029"><ele>2605.310059</ele><time>2007-08-18T09:20:54Z</time></trkpt>
<trkpt lat="46.15494847" lon="7.51395416"><ele>2608.674805</ele><time>2007-08-18T09:21:07Z</time></trkpt>
<trkpt lat="46.15499994" lon="7.51403673"><ele>2611.558594</ele><time>2007-08-18T09:21:24Z</time></trkpt>
<trkpt lat="46.15505367" lon="7.51412926"><ele>2614.442871</ele><time>2007-08-18T09:21:38Z</time></trkpt>
<trkpt lat="46.15504738" lon="7.51422825"><ele>2616.365723</ele><time>2007-08-18T09:21:55Z</time></trkpt>
<trkpt lat="46.15498167" lon="7.51426899"><ele>2619.249512</ele><time>2007-08-18T09:22:10Z</time></trkpt>
<trkpt lat="46.15490413" lon="7.51433638"><ele>2620.691406</ele><time>2007-08-18T09:22:22Z</time></trkpt>
<trkpt lat="46.15481218" lon="7.51444878"><ele>2624.056152</ele><time>2007-08-18T09:22:37Z</time></trkpt>
<trkpt lat="46.15485183" lon="7.51459873"><ele>2625.498047</ele><time>2007-08-18T09:22:54Z</time></trkpt>
<trkpt lat="46.15488544" lon="7.51472932"><ele>2627.900879</ele><time>2007-08-18T09:23:11Z</time></trkpt>
<trkpt lat="46.15490120" lon="7.51481817"><ele>2631.265625</ele><time>2007-08-18T09:23:25Z</time></trkpt>
<trkpt lat="46.15493179" lon="7.51490735"><ele>2634.149414</ele><time>2007-08-18T09:23:42Z</time></trkpt>
<trkpt lat="46.15495778" lon="7.51500735"><ele>2636.552734</ele><time>2007-08-18T09:24:00Z</time></trkpt>
<trkpt lat="46.15497027" lon="7.51507843"><ele>2639.437012</ele><time>2007-08-18T09:24:11Z</time></trkpt>
<trkpt lat="46.15500245" lon="7.51517558"><ele>2642.80127</ele><time>2007-08-18T09:24:27Z</time></trkpt>
<trkpt lat="46.15503766" lon="7.51527423"><ele>2645.685547</ele><time>2007-08-18T09:24:44Z</time></trkpt>
<trkpt lat="46.15505635" lon="7.51537842"><ele>2648.569824</ele><time>2007-08-18T09:25:02Z</time></trkpt>
<trkpt lat="46.15507345" lon="7.51544690"><ele>2649.530762</ele><time>2007-08-18T09:25:18Z</time></trkpt>
<trkpt lat="46.15509088" lon="7.51553273"><ele>2650.972656</ele><time>2007-08-18T09:25:34Z</time></trkpt>
<trkpt lat="46.15510304" lon="7.51561152"><ele>2653.856934</ele><time>2007-08-18T09:25:47Z</time></trkpt>
<trkpt lat="46.15511745" lon="7.51569710"><ele>2655.779297</ele><time>2007-08-18T09:26:05Z</time></trkpt>
<trkpt lat="46.15514352" lon="7.51577488"><ele>2658.182617</ele><time>2007-08-18T09:26:20Z</time></trkpt>
<trkpt lat="46.15517252" lon="7.51586339"><ele>2660.105469</ele><time>2007-08-18T09:26:36Z</time></trkpt>
<trkpt lat="46.15519767" lon="7.51590857"><ele>2662.508789</ele><time>2007-08-18T09:26:44Z</time></trkpt>
<trkpt lat="46.15525047" lon="7.51599407"><ele>2663.469727</ele><time>2007-08-18T09:27:00Z</time></trkpt>
<trkpt lat="46.15528526" lon="7.51607034"><ele>2666.353516</ele><time>2007-08-18T09:27:15Z</time></trkpt>
<trkpt lat="46.15532792" lon="7.51608736"><ele>2668.276367</ele><time>2007-08-18T09:27:27Z</time></trkpt>
<trkpt lat="46.15536279" lon="7.51613690"><ele>2671.641113</ele><time>2007-08-18T09:27:42Z</time></trkpt>
<trkpt lat="46.15539556" lon="7.51621854"><ele>2674.043945</ele><time>2007-08-18T09:28:01Z</time></trkpt>
<trkpt lat="46.15540227" lon="7.51631266"><ele>2677.40918</ele><time>2007-08-18T09:28:19Z</time></trkpt>
<trkpt lat="46.15533479" lon="7.51635164"><ele>2679.8125</ele><time>2007-08-18T09:28:37Z</time></trkpt>
<trkpt lat="46.15529322" lon="7.51641057"><ele>2682.696289</ele><time>2007-08-18T09:28:54Z</time></trkpt>
<trkpt lat="46.15527646" lon="7.51647444"><ele>2686.061035</ele><time>2007-08-18T09:29:07Z</time></trkpt>
<trkpt lat="46.15525089" lon="7.51661374"><ele>2688.464355</ele><time>2007-08-18T09:29:27Z</time></trkpt>
<trkpt lat="46.15521384" lon="7.51667309"><ele>2690.386719</ele><time>2007-08-18T09:29:41Z</time></trkpt>
<trkpt lat="46.15521108" lon="7.51670192"><ele>2692.30957</ele><time>2007-08-18T09:29:45Z</time></trkpt>
<trkpt lat="46.15518459" lon="7.51678415"><ele>2695.193359</ele><time>2007-08-18T09:30:01Z</time></trkpt>
<trkpt lat="46.15516917" lon="7.51687828"><ele>2697.59668</ele><time>2007-08-18T09:30:19Z</time></trkpt>
<trkpt lat="46.15510865" lon="7.51691700"><ele>2700</ele><time>2007-08-18T09:30:34Z</time></trkpt>
<trkpt lat="46.15499835" lon="7.51687752"><ele>2701.441895</ele><time>2007-08-18T09:30:53Z</time></trkpt>
<trkpt lat="46.15490656" lon="7.51688113"><ele>2704.806152</ele><time>2007-08-18T09:31:11Z</time></trkpt>
<trkpt lat="46.15484764" lon="7.51690962"><ele>2707.209473</ele><time>2007-08-18T09:31:28Z</time></trkpt>
<trkpt lat="46.15483942" lon="7.51700367"><ele>2709.132813</ele><time>2007-08-18T09:31:46Z</time></trkpt>
<trkpt lat="46.15480330" lon="7.51708405"><ele>2711.055176</ele><time>2007-08-18T09:32:02Z</time></trkpt>
<trkpt lat="46.15478855" lon="7.51715463"><ele>2714.419922</ele><time>2007-08-18T09:32:15Z</time></trkpt>
<trkpt lat="46.15476935" lon="7.51724666"><ele>2715.381348</ele><time>2007-08-18T09:32:32Z</time></trkpt>
<trkpt lat="46.15475778" lon="7.51734129"><ele>2716.823242</ele><time>2007-08-18T09:32:47Z</time></trkpt>
<trkpt lat="46.15477027" lon="7.51739586"><ele>2718.265137</ele><time>2007-08-18T09:32:56Z</time></trkpt>
<trkpt lat="46.15476382" lon="7.51745679"><ele>2721.629883</ele><time>2007-08-18T09:33:07Z</time></trkpt>
<trkpt lat="46.15476952" lon="7.51758286"><ele>2724.513672</ele><time>2007-08-18T09:33:27Z</time></trkpt>
<trkpt lat="46.15478176" lon="7.51767833"><ele>2727.87793</ele><time>2007-08-18T09:33:46Z</time></trkpt>
<trkpt lat="46.15479626" lon="7.51777388"><ele>2731.723633</ele><time>2007-08-18T09:33:58Z</time></trkpt>
<trkpt lat="46.15481470" lon="7.51785158"><ele>2734.126465</ele><time>2007-08-18T09:34:15Z</time></trkpt>
<trkpt lat="46.15482325" lon="7.51791989"><ele>2736.049316</ele><time>2007-08-18T09:34:30Z</time></trkpt>
<trkpt lat="46.15484554" lon="7.51801436"><ele>2739.414063</ele><time>2007-08-18T09:34:46Z</time></trkpt>
<trkpt lat="46.15488846" lon="7.51809323"><ele>2740.856445</ele><time>2007-08-18T09:35:06Z</time></trkpt>
<trkpt lat="46.15491210" lon="7.51816506"><ele>2743.259277</ele><time>2007-08-18T09:35:23Z</time></trkpt>
<trkpt lat="46.15494076" lon="7.51824134"><ele>2746.624023</ele><time>2007-08-18T09:35:39Z</time></trkpt>
<trkpt lat="46.15496482" lon="7.51832759"><ele>2749.027344</ele><time>2007-08-18T09:35:59Z</time></trkpt>
<trkpt lat="46.15497647" lon="7.51839657"><ele>2752.39209</ele><time>2007-08-18T09:36:12Z</time></trkpt>
<trkpt lat="46.15499642" lon="7.51848022"><ele>2755.756348</ele><time>2007-08-18T09:36:28Z</time></trkpt>
<trkpt lat="46.15504746" lon="7.51856253"><ele>2758.640137</ele><time>2007-08-18T09:36:44Z</time></trkpt>
<trkpt lat="46.15513774" lon="7.51868307"><ele>2761.043457</ele><time>2007-08-18T09:37:06Z</time></trkpt>
<trkpt lat="46.15521410" lon="7.51879874"><ele>2762.966309</ele><time>2007-08-18T09:37:27Z</time></trkpt>
<trkpt lat="46.15529154" lon="7.51889924"><ele>2766.330566</ele><time>2007-08-18T09:37:48Z</time></trkpt>
<trkpt lat="46.15533899" lon="7.51898725"><ele>2768.733887</ele><time>2007-08-18T09:38:06Z</time></trkpt>
<trkpt lat="46.15536363" lon="7.51904776"><ele>2771.137207</ele><time>2007-08-18T09:38:21Z</time></trkpt>
<trkpt lat="46.15539573" lon="7.51913058"><ele>2774.021484</ele><time>2007-08-18T09:38:35Z</time></trkpt>
<trkpt lat="46.15548106" lon="7.51921188"><ele>2776.424805</ele><time>2007-08-18T09:38:52Z</time></trkpt>
<trkpt lat="46.15555356" lon="7.51930752"><ele>2778.828125</ele><time>2007-08-18T09:39:12Z</time></trkpt>
<trkpt lat="46.15557435" lon="7.51938170"><ele>2782.192871</ele><time>2007-08-18T09:39:23Z</time></trkpt>
<trkpt lat="46.15564794" lon="7.51950776"><ele>2784.115234</ele><time>2007-08-18T09:39:45Z</time></trkpt>
<trkpt lat="46.15570318" lon="7.51961119"><ele>2786.999512</ele><time>2007-08-18T09:40:01Z</time></trkpt>
<trkpt lat="46.15573805" lon="7.51971907"><ele>2790.36377</ele><time>2007-08-18T09:40:17Z</time></trkpt>
<trkpt lat="46.15577099" lon="7.51982963"><ele>2793.248047</ele><time>2007-08-18T09:40:29Z</time></trkpt>
<trkpt lat="46.15577308" lon="7.51985695"><ele>2793.248047</ele><time>2007-08-18T09:40:31Z</time></trkpt>
<trkpt lat="46.15572455" lon="7.52005946"><ele>2794.689941</ele><time>2007-08-18T09:40:41Z</time></trkpt>
<trkpt lat="46.15562825" lon="7.52047839"><ele>2792.76709</ele><time>2007-08-18T09:40:47Z</time></trkpt>
<trkpt lat="46.15545290" lon="7.52088013"><ele>2790.36377</ele><time>2007-08-18T09:40:52Z</time></trkpt>
<trkpt lat="46.15531485" lon="7.52113913"><ele>2789.883301</ele><time>2007-08-18T09:40:55Z</time></trkpt>
<trkpt lat="46.15520395" lon="7.52142018"><ele>2788.441406</ele><time>2007-08-18T09:40:58Z</time></trkpt>
<trkpt lat="46.15499893" lon="7.52176593"><ele>2785.07666</ele><time>2007-08-18T09:41:02Z</time></trkpt>
<trkpt lat="46.15489642" lon="7.52191379"><ele>2783.154297</ele><time>2007-08-18T09:41:04Z</time></trkpt>
<trkpt lat="46.15479785" lon="7.52211856"><ele>2781.711914</ele><time>2007-08-18T09:41:07Z</time></trkpt>
<trkpt lat="46.15474387" lon="7.52228787"><ele>2780.750977</ele><time>2007-08-18T09:41:09Z</time></trkpt>
<trkpt lat="46.15469827" lon="7.52251938"><ele>2776.424805</ele><time>2007-08-18T09:41:12Z</time></trkpt>
<trkpt lat="46.15469065" lon="7.52259716"><ele>2774.502441</ele><time>2007-08-18T09:41:13Z</time></trkpt>
<trkpt lat="46.15465184" lon="7.52303428"><ele>2769.695313</ele><time>2007-08-18T09:41:17Z</time></trkpt>
<trkpt lat="46.15468645" lon="7.52340828"><ele>2765.850098</ele><time>2007-08-18T09:41:20Z</time></trkpt>
<trkpt lat="46.15470498" lon="7.52353024"><ele>2763.446777</ele><time>2007-08-18T09:41:21Z</time></trkpt>
<trkpt lat="46.15468679" lon="7.52385822"><ele>2759.121094</ele><time>2007-08-18T09:41:25Z</time></trkpt>
<trkpt lat="46.15450373" lon="7.52389519"><ele>2755.756348</ele><time>2007-08-18T09:41:29Z</time></trkpt>
<trkpt lat="46.15441186" lon="7.52385370"><ele>2754.314453</ele><time>2007-08-18T09:41:31Z</time></trkpt>
<trkpt lat="46.15422285" lon="7.52379083"><ele>2750.949707</ele><time>2007-08-18T09:41:36Z</time></trkpt>
<trkpt lat="46.15413979" lon="7.52378362"><ele>2748.546875</ele><time>2007-08-18T09:41:38Z</time></trkpt>
<trkpt lat="46.15396234" lon="7.52369234"><ele>2743.259277</ele><time>2007-08-18T09:41:42Z</time></trkpt>
<trkpt lat="46.15385958" lon="7.52360693"><ele>2742.778809</ele><time>2007-08-18T09:41:44Z</time></trkpt>
<trkpt lat="46.15373427" lon="7.52354189"><ele>2741.336914</ele><time>2007-08-18T09:41:46Z</time></trkpt>
<trkpt lat="46.15362355" lon="7.52351683"><ele>2739.414063</ele><time>2007-08-18T09:41:48Z</time></trkpt>
<trkpt lat="46.15350494" lon="7.52350677"><ele>2737.491211</ele><time>2007-08-18T09:41:50Z</time></trkpt>
<trkpt lat="46.15313379" lon="7.52357374"><ele>2734.126465</ele><time>2007-08-18T09:41:55Z</time></trkpt>
<trkpt lat="46.15264630" lon="7.52367759"><ele>2731.723633</ele><time>2007-08-18T09:42:03Z</time></trkpt>
<trkpt lat="46.15261948" lon="7.52376686"><ele>2730.762207</ele><time>2007-08-18T09:42:05Z</time></trkpt>
<trkpt lat="46.15264923" lon="7.52390164"><ele>2730.28125</ele><time>2007-08-18T09:42:07Z</time></trkpt>
<trkpt lat="46.15273003" lon="7.52414094"><ele>2728.839355</ele><time>2007-08-18T09:42:10Z</time></trkpt>
<trkpt lat="46.15283389" lon="7.52438695"><ele>2725.955566</ele><time>2007-08-18T09:42:13Z</time></trkpt>
<trkpt lat="46.15293497" lon="7.52475919"><ele>2721.629883</ele><time>2007-08-18T09:42:17Z</time></trkpt>
<trkpt lat="46.15301276" lon="7.52505918"><ele>2717.784668</ele><time>2007-08-18T09:42:21Z</time></trkpt>
<trkpt lat="46.15302944" lon="7.52518139"><ele>2715.861816</ele><time>2007-08-18T09:42:23Z</time></trkpt>
<trkpt lat="46.15315634" lon="7.52548683"><ele>2714.900391</ele><time>2007-08-18T09:42:28Z</time></trkpt>
<trkpt lat="46.15326857" lon="7.52586527"><ele>2711.536133</ele><time>2007-08-18T09:42:34Z</time></trkpt>
<trkpt lat="46.15326949" lon="7.52592528"><ele>2712.016602</ele><time>2007-08-18T09:42:35Z</time></trkpt>
<trkpt lat="46.15327528" lon="7.52598236"><ele>2712.016602</ele><time>2007-08-18T09:42:36Z</time></trkpt>
<trkpt lat="46.15333412" lon="7.52628160"><ele>2709.132813</ele><time>2007-08-18T09:42:42Z</time></trkpt>
<trkpt lat="46.15347192" lon="7.52648955"><ele>2706.248535</ele><time>2007-08-18T09:42:46Z</time></trkpt>
<trkpt lat="46.15351014" lon="7.52654647"><ele>2705.287109</ele><time>2007-08-18T09:42:47Z</time></trkpt>
<trkpt lat="46.15368373" lon="7.52675199"><ele>2702.883789</ele><time>2007-08-18T09:42:51Z</time></trkpt>
<trkpt lat="46.15379428" lon="7.52694125"><ele>2698.077148</ele><time>2007-08-18T09:42:54Z</time></trkpt>
<trkpt lat="46.15382496" lon="7.52698702"><ele>2698.077148</ele><time>2007-08-18T09:42:55Z</time></trkpt>
<trkpt lat="46.15385757" lon="7.52701635"><ele>2696.635254</ele><time>2007-08-18T09:42:56Z</time></trkpt>
<trkpt lat="46.15401087" lon="7.52714049"><ele>2693.751465</ele><time>2007-08-18T09:43:00Z</time></trkpt>
<trkpt lat="46.15403024" lon="7.52718206"><ele>2693.751465</ele><time>2007-08-18T09:43:01Z</time></trkpt>
<trkpt lat="46.15407474" lon="7.52726840"><ele>2691.828613</ele><time>2007-08-18T09:43:03Z</time></trkpt>
<trkpt lat="46.15414247" lon="7.52744492"><ele>2687.983398</ele><time>2007-08-18T09:43:07Z</time></trkpt>
<trkpt lat="46.15415144" lon="7.52754995"><ele>2686.061035</ele><time>2007-08-18T09:43:09Z</time></trkpt>
<trkpt lat="46.15417155" lon="7.52772303"><ele>2685.099609</ele><time>2007-08-18T09:43:12Z</time></trkpt>
<trkpt lat="46.15416938" lon="7.52799503"><ele>2679.8125</ele><time>2007-08-18T09:43:16Z</time></trkpt>
<trkpt lat="46.15416175" lon="7.52815797"><ele>2678.370605</ele><time>2007-08-18T09:43:19Z</time></trkpt>
<trkpt lat="46.15417683" lon="7.52832142"><ele>2675.005371</ele><time>2007-08-18T09:43:22Z</time></trkpt>
<trkpt lat="46.15419016" lon="7.52856625"><ele>2672.121582</ele><time>2007-08-18T09:43:26Z</time></trkpt>
<trkpt lat="46.15411959" lon="7.52870648"><ele>2669.718262</ele><time>2007-08-18T09:43:29Z</time></trkpt>
<trkpt lat="46.15408698" lon="7.52875317"><ele>2669.237793</ele><time>2007-08-18T09:43:30Z</time></trkpt>
<trkpt lat="46.15394164" lon="7.52891988"><ele>2665.392578</ele><time>2007-08-18T09:43:34Z</time></trkpt>
<trkpt lat="46.15377107" lon="7.52897076"><ele>2663.469727</ele><time>2007-08-18T09:43:38Z</time></trkpt>
<trkpt lat="46.15364366" lon="7.52898510"><ele>2661.547363</ele><time>2007-08-18T09:43:41Z</time></trkpt>
<trkpt lat="46.15349480" lon="7.52914527"><ele>2657.702148</ele><time>2007-08-18T09:43:45Z</time></trkpt>
<trkpt lat="46.15340805" lon="7.52925105"><ele>2657.702148</ele><time>2007-08-18T09:43:47Z</time></trkpt>
<trkpt lat="46.15328349" lon="7.52941852"><ele>2656.260254</ele><time>2007-08-18T09:43:50Z</time></trkpt>
<trkpt lat="46.15316162" lon="7.52964710"><ele>2656.260254</ele><time>2007-08-18T09:43:53Z</time></trkpt>
<trkpt lat="46.15308358" lon="7.53010207"><ele>2655.298828</ele><time>2007-08-18T09:43:58Z</time></trkpt>
<trkpt lat="46.15305768" lon="7.53025169"><ele>2655.779297</ele><time>2007-08-18T09:44:00Z</time></trkpt>
<trkpt lat="46.15304444" lon="7.53049375"><ele>2655.779297</ele><time>2007-08-18T09:44:04Z</time></trkpt>
<trkpt lat="46.15313136" lon="7.53109197"><ele>2655.779297</ele><time>2007-08-18T09:44:16Z</time></trkpt>
<trkpt lat="46.15334149" lon="7.53152238"><ele>2654.818359</ele><time>2007-08-18T09:44:27Z</time></trkpt>
<trkpt lat="46.15348885" lon="7.53190384"><ele>2654.337402</ele><time>2007-08-18T09:44:35Z</time></trkpt>
<trkpt lat="46.15353872" lon="7.53203334"><ele>2654.337402</ele><time>2007-08-18T09:44:37Z</time></trkpt>
<trkpt lat="46.15367208" lon="7.53237977"><ele>2653.856934</ele><time>2007-08-18T09:44:46Z</time></trkpt>
<trkpt lat="46.15375657" lon="7.53255696"><ele>2653.856934</ele><time>2007-08-18T09:44:51Z</time></trkpt>
<trkpt lat="46.15364785" lon="7.53306130"><ele>2653.856934</ele><time>2007-08-18T09:45:05Z</time></trkpt>
<trkpt lat="46.15358398" lon="7.53339733"><ele>2655.779297</ele><time>2007-08-18T09:45:21Z</time></trkpt>
<trkpt lat="46.15357577" lon="7.53347939"><ele>2657.221191</ele><time>2007-08-18T09:45:26Z</time></trkpt>
<trkpt lat="46.15358147" lon="7.53355793"><ele>2658.182617</ele><time>2007-08-18T09:45:30Z</time></trkpt>
<trkpt lat="46.15357325" lon="7.53362373"><ele>2660.105469</ele><time>2007-08-18T09:45:34Z</time></trkpt>
<trkpt lat="46.15350067" lon="7.53368475"><ele>2662.027832</ele><time>2007-08-18T09:45:41Z</time></trkpt>
<trkpt lat="46.15354040" lon="7.53386202"><ele>2663.469727</ele><time>2007-08-18T09:45:51Z</time></trkpt>
<trkpt lat="46.15347225" lon="7.53396864"><ele>2663.950684</ele><time>2007-08-18T09:45:59Z</time></trkpt>
<trkpt lat="46.15321149" lon="7.53426913"><ele>2663.950684</ele><time>2007-08-18T09:46:13Z</time></trkpt>
<trkpt lat="46.15308543" lon="7.53456719"><ele>2666.834473</ele><time>2007-08-18T09:46:25Z</time></trkpt>
<trkpt lat="46.15294428" lon="7.53501856"><ele>2664.431152</ele><time>2007-08-18T09:46:36Z</time></trkpt>
<trkpt lat="46.15267086" lon="7.53531436"><ele>2662.027832</ele><time>2007-08-18T09:46:42Z</time></trkpt>
<trkpt lat="46.15250247" lon="7.53557210"><ele>2661.547363</ele><time>2007-08-18T09:46:47Z</time></trkpt>
<trkpt lat="46.15224204" lon="7.53619655"><ele>2660.585938</ele><time>2007-08-18T09:47:00Z</time></trkpt>
<trkpt lat="46.15208195" lon="7.53631717"><ele>2660.105469</ele><time>2007-08-18T09:47:04Z</time></trkpt>
<trkpt lat="46.15191062" lon="7.53649126"><ele>2659.144043</ele><time>2007-08-18T09:47:08Z</time></trkpt>
<trkpt lat="46.15183543" lon="7.53663417"><ele>2658.182617</ele><time>2007-08-18T09:47:10Z</time></trkpt>
<trkpt lat="46.15180895" lon="7.53678429"><ele>2658.182617</ele><time>2007-08-18T09:47:12Z</time></trkpt>
<trkpt lat="46.15178187" lon="7.53693097"><ele>2657.702148</ele><time>2007-08-18T09:47:14Z</time></trkpt>
<trkpt lat="46.15173276" lon="7.53710959"><ele>2656.260254</ele><time>2007-08-18T09:47:17Z</time></trkpt>
<trkpt lat="46.15166344" lon="7.53742282"><ele>2654.818359</ele><time>2007-08-18T09:47:22Z</time></trkpt>
<trkpt lat="46.15163326" lon="7.53764695"><ele>2653.856934</ele><time>2007-08-18T09:47:25Z</time></trkpt>
<trkpt lat="46.15161315" lon="7.53815993"><ele>2653.375977</ele><time>2007-08-18T09:47:36Z</time></trkpt>
<trkpt lat="46.15172119" lon="7.53871699"><ele>2656.260254</ele><time>2007-08-18T09:47:50Z</time></trkpt>
<trkpt lat="46.15172504" lon="7.53886904"><ele>2654.337402</ele><time>2007-08-18T09:47:53Z</time></trkpt>
<trkpt lat="46.15170593" lon="7.53911329"><ele>2652.895508</ele><time>2007-08-18T09:47:57Z</time></trkpt>
<trkpt lat="46.15180149" lon="7.53919467"><ele>2652.895508</ele><time>2007-08-18T09:48:02Z</time></trkpt>
<trkpt lat="46.15208765" lon="7.53932392"><ele>2657.221191</ele><time>2007-08-18T09:48:17Z</time></trkpt>
<trkpt lat="46.15223735" lon="7.53974243"><ele>2658.663086</ele><time>2007-08-18T09:48:31Z</time></trkpt>
<trkpt lat="46.15214280" lon="7.54009397"><ele>2661.066406</ele><time>2007-08-18T09:48:43Z</time></trkpt>
<trkpt lat="46.15191204" lon="7.54051650"><ele>2662.989258</ele><time>2007-08-18T09:49:01Z</time></trkpt>
<trkpt lat="46.15168054" lon="7.54073979"><ele>2666.353516</ele><time>2007-08-18T09:49:16Z</time></trkpt>
<trkpt lat="46.15140687" lon="7.54085580"><ele>2669.237793</ele><time>2007-08-18T09:49:32Z</time></trkpt>
<trkpt lat="46.15110110" lon="7.54107289"><ele>2671.641113</ele><time>2007-08-18T09:49:52Z</time></trkpt>
<trkpt lat="46.15091393" lon="7.54116635"><ele>2675.005371</ele><time>2007-08-18T09:50:04Z</time></trkpt>
<trkpt lat="46.15067136" lon="7.54121153"><ele>2677.890137</ele><time>2007-08-18T09:50:19Z</time></trkpt>
<trkpt lat="46.15054898" lon="7.54128026"><ele>2679.8125</ele><time>2007-08-18T09:50:28Z</time></trkpt>
<trkpt lat="46.15028344" lon="7.54142686"><ele>2682.21582</ele><time>2007-08-18T09:50:46Z</time></trkpt>
<trkpt lat="46.15000625" lon="7.54155183"><ele>2685.099609</ele><time>2007-08-18T09:51:02Z</time></trkpt>
<trkpt lat="46.14974113" lon="7.54183489"><ele>2687.983398</ele><time>2007-08-18T09:51:19Z</time></trkpt>
<trkpt lat="46.14956134" lon="7.54211007"><ele>2689.90625</ele><time>2007-08-18T09:51:32Z</time></trkpt>
<trkpt lat="46.14966963" lon="7.54214795"><ele>2690.386719</ele><time>2007-08-18T09:51:40Z</time></trkpt>
<trkpt lat="46.15002838" lon="7.54195307"><ele>2693.270996</ele><time>2007-08-18T09:51:58Z</time></trkpt>
<trkpt lat="46.15017397" lon="7.54191988"><ele>2693.751465</ele><time>2007-08-18T09:52:05Z</time></trkpt>
<trkpt lat="46.15019216" lon="7.54203304"><ele>2695.673828</ele><time>2007-08-18T09:52:11Z</time></trkpt>
<trkpt lat="46.15015402" lon="7.54247325"><ele>2698.558105</ele><time>2007-08-18T09:52:29Z</time></trkpt>
<trkpt lat="46.15020826" lon="7.54259588"><ele>2698.558105</ele><time>2007-08-18T09:52:33Z</time></trkpt>
<trkpt lat="46.15018227" lon="7.54285614"><ele>2698.558105</ele><time>2007-08-18T09:52:39Z</time></trkpt>
<trkpt lat="46.15042912" lon="7.54311129"><ele>2700.961426</ele><time>2007-08-18T09:52:51Z</time></trkpt>
<trkpt lat="46.15071938" lon="7.54326224"><ele>2703.364258</ele><time>2007-08-18T09:53:07Z</time></trkpt>
<trkpt lat="46.15068326" lon="7.54352736"><ele>2706.729004</ele><time>2007-08-18T09:53:20Z</time></trkpt>
<trkpt lat="46.15066918" lon="7.54357355"><ele>2707.209473</ele><time>2007-08-18T09:53:23Z</time></trkpt>
<trkpt lat="46.15062458" lon="7.54357380"><ele>2707.209473</ele><time>2007-08-18T09:53:27Z</time></trkpt>
<trkpt lat="46.15060304" lon="7.54354714"><ele>2708.652344</ele><time>2007-08-18T09:53:29Z</time></trkpt>
<trkpt lat="46.15050766" lon="7.54343240"><ele>2709.613281</ele><time>2007-08-18T09:53:41Z</time></trkpt>
<trkpt lat="46.15049835" lon="7.54350222"><ele>2709.613281</ele><time>2007-08-18T09:53:45Z</time></trkpt>
<trkpt lat="46.15060078" lon="7.54375225"><ele>2713.458496</ele><time>2007-08-18T09:53:59Z</time></trkpt>
<trkpt lat="46.15062970" lon="7.54387362"><ele>2714.900391</ele><time>2007-08-18T09:54:06Z</time></trkpt>
<trkpt lat="46.15051864" lon="7.54398158"><ele>2716.342773</ele><time>2007-08-18T09:54:15Z</time></trkpt>
<trkpt lat="46.15013785" lon="7.54397412"><ele>2719.707031</ele><time>2007-08-18T09:54:33Z</time></trkpt>
<trkpt lat="46.14984926" lon="7.54408007"><ele>2722.59082</ele><time>2007-08-18T09:54:52Z</time></trkpt>
<trkpt lat="46.14970945" lon="7.54423848"><ele>2725.955566</ele><time>2007-08-18T09:55:07Z</time></trkpt>
<trkpt lat="46.14970325" lon="7.54445608"><ele>2728.839355</ele><time>2007-08-18T09:55:21Z</time></trkpt>
<trkpt lat="46.14974826" lon="7.54477258"><ele>2729.800781</ele><time>2007-08-18T09:55:37Z</time></trkpt>
<trkpt lat="46.14951013" lon="7.54493393"><ele>2730.28125</ele><time>2007-08-18T09:55:50Z</time></trkpt>
<trkpt lat="46.14950686" lon="7.54499319"><ele>2731.723633</ele><time>2007-08-18T09:55:53Z</time></trkpt>
<trkpt lat="46.14958866" lon="7.54503242"><ele>2732.68457</ele><time>2007-08-18T09:55:59Z</time></trkpt>
<trkpt lat="46.14965136" lon="7.54502320"><ele>2734.126465</ele><time>2007-08-18T09:56:03Z</time></trkpt>
<trkpt lat="46.14992319" lon="7.54485237"><ele>2736.529785</ele><time>2007-08-18T09:56:22Z</time></trkpt>
<trkpt lat="46.15003735" lon="7.54466118"><ele>2739.894531</ele><time>2007-08-18T09:56:35Z</time></trkpt>
<trkpt lat="46.15006107" lon="7.54467124"><ele>2739.894531</ele><time>2007-08-18T09:56:37Z</time></trkpt>
<trkpt lat="46.15007917" lon="7.54475716"><ele>2740.375488</ele><time>2007-08-18T09:56:42Z</time></trkpt>
<trkpt lat="46.15003525" lon="7.54506896"><ele>2743.740234</ele><time>2007-08-18T09:57:00Z</time></trkpt>
<trkpt lat="46.15002905" lon="7.54524054"><ele>2746.624023</ele><time>2007-08-18T09:57:11Z</time></trkpt>
<trkpt lat="46.14989678" lon="7.54547926"><ele>2749.507813</ele><time>2007-08-18T09:57:29Z</time></trkpt>
<trkpt lat="46.14977743" lon="7.54564128"><ele>2752.39209</ele><time>2007-08-18T09:57:43Z</time></trkpt>
<trkpt lat="46.14966335" lon="7.54587455"><ele>2755.756348</ele><time>2007-08-18T09:58:01Z</time></trkpt>
<trkpt lat="46.14954986" lon="7.54600933"><ele>2759.601563</ele><time>2007-08-18T09:58:15Z</time></trkpt>
<trkpt lat="46.14953980" lon="7.54601578"><ele>2759.601563</ele><time>2007-08-18T09:58:16Z</time></trkpt>
<trkpt lat="46.14930066" lon="7.54615040"><ele>2762.48584</ele><time>2007-08-18T09:58:38Z</time></trkpt>
<trkpt lat="46.14908039" lon="7.54622776"><ele>2765.850098</ele><time>2007-08-18T09:58:56Z</time></trkpt>
<trkpt lat="46.14906723" lon="7.54622122"><ele>2765.850098</ele><time>2007-08-18T09:58:57Z</time></trkpt>
<trkpt lat="46.14889188" lon="7.54616557"><ele>2768.733887</ele><time>2007-08-18T09:59:10Z</time></trkpt>
<trkpt lat="46.14885382" lon="7.54615065"><ele>2770.17627</ele><time>2007-08-18T09:59:13Z</time></trkpt>
<trkpt lat="46.14861988" lon="7.54600438"><ele>2773.060547</ele><time>2007-08-18T09:59:32Z</time></trkpt>
<trkpt lat="46.14842492" lon="7.54600095"><ele>2776.424805</ele><time>2007-08-18T09:59:49Z</time></trkpt>
<trkpt lat="46.14826667" lon="7.54599835"><ele>2779.789551</ele><time>2007-08-18T10:00:03Z</time></trkpt>
<trkpt lat="46.14825502" lon="7.54600103"><ele>2779.789551</ele><time>2007-08-18T10:00:04Z</time></trkpt>
<trkpt lat="46.14824270" lon="7.54609172"><ele>2780.750977</ele><time>2007-08-18T10:00:10Z</time></trkpt>
<trkpt lat="46.14828478" lon="7.54616490"><ele>2781.711914</ele><time>2007-08-18T10:00:15Z</time></trkpt>
<trkpt lat="46.14831403" lon="7.54623363"><ele>2783.154297</ele><time>2007-08-18T10:00:19Z</time></trkpt>
<trkpt lat="46.14835929" lon="7.54633547"><ele>2784.115234</ele><time>2007-08-18T10:00:25Z</time></trkpt>
<trkpt lat="46.14864042" lon="7.54650797"><ele>2787.47998</ele><time>2007-08-18T10:00:43Z</time></trkpt>
<trkpt lat="46.14870848" lon="7.54688733"><ele>2790.36377</ele><time>2007-08-18T10:00:59Z</time></trkpt>
<trkpt lat="46.14858292" lon="7.54729687"><ele>2792.76709</ele><time>2007-08-18T10:01:16Z</time></trkpt>
<trkpt lat="46.14835342" lon="7.54761949"><ele>2796.131836</ele><time>2007-08-18T10:01:34Z</time></trkpt>
<trkpt lat="46.14820724" lon="7.54771865"><ele>2796.612305</ele><time>2007-08-18T10:01:49Z</time></trkpt>
<trkpt lat="46.14815067" lon="7.54776718"><ele>2798.054199</ele><time>2007-08-18T10:02:03Z</time></trkpt>
<trkpt lat="46.14813725" lon="7.54778026"><ele>2798.535156</ele><time>2007-08-18T10:02:04Z</time></trkpt>
<trkpt lat="46.14811907" lon="7.54801218"><ele>2797.57373</ele><time>2007-08-18T10:02:10Z</time></trkpt>
<trkpt lat="46.14805277" lon="7.54825702"><ele>2793.248047</ele><time>2007-08-18T10:02:15Z</time></trkpt>
<trkpt lat="46.14801563" lon="7.54814747"><ele>2791.805664</ele><time>2007-08-18T10:02:17Z</time></trkpt>
<trkpt lat="46.14776149" lon="7.54792124"><ele>2790.844727</ele><time>2007-08-18T10:02:23Z</time></trkpt>
<trkpt lat="46.14762043" lon="7.54787145"><ele>2788.441406</ele><time>2007-08-18T10:02:27Z</time></trkpt>
<trkpt lat="46.14769226" lon="7.54806323"><ele>2787.47998</ele><time>2007-08-18T10:02:30Z</time></trkpt>
<trkpt lat="46.14771456" lon="7.54836255"><ele>2786.518555</ele><time>2007-08-18T10:02:33Z</time></trkpt>
<trkpt lat="46.14772654" lon="7.54872716"><ele>2782.67334</ele><time>2007-08-18T10:02:37Z</time></trkpt>
<trkpt lat="46.14782193" lon="7.54903042"><ele>2779.309082</ele><time>2007-08-18T10:02:41Z</time></trkpt>
<trkpt lat="46.14779217" lon="7.54912463"><ele>2778.828125</ele><time>2007-08-18T10:02:42Z</time></trkpt>
<trkpt lat="46.14767793" lon="7.54941003"><ele>2775.463867</ele><time>2007-08-18T10:02:45Z</time></trkpt>
<trkpt lat="46.14766284" lon="7.54972519"><ele>2773.541016</ele><time>2007-08-18T10:02:48Z</time></trkpt>
<trkpt lat="46.14767047" lon="7.54994748"><ele>2769.695313</ele><time>2007-08-18T10:02:50Z</time></trkpt>
<trkpt lat="46.14765479" lon="7.55042056"><ele>2765.369629</ele><time>2007-08-18T10:02:55Z</time></trkpt>
<trkpt lat="46.14761364" lon="7.55077628"><ele>2760.562988</ele><time>2007-08-18T10:03:00Z</time></trkpt>
<trkpt lat="46.14749042" lon="7.55069808"><ele>2758.159668</ele><time>2007-08-18T10:03:05Z</time></trkpt>
<trkpt lat="46.14744005" lon="7.55043455"><ele>2759.121094</ele><time>2007-08-18T10:03:08Z</time></trkpt>
<trkpt lat="46.14726814" lon="7.55023238"><ele>2756.717773</ele><time>2007-08-18T10:03:14Z</time></trkpt>
<trkpt lat="46.14727132" lon="7.55037119"><ele>2757.679199</ele><time>2007-08-18T10:03:16Z</time></trkpt>
<trkpt lat="46.14730200" lon="7.55053639"><ele>2756.237305</ele><time>2007-08-18T10:03:18Z</time></trkpt>
<trkpt lat="46.14727853" lon="7.55107493"><ele>2751.430664</ele><time>2007-08-18T10:03:23Z</time></trkpt>
<trkpt lat="46.14727073" lon="7.55118809"><ele>2749.027344</ele><time>2007-08-18T10:03:24Z</time></trkpt>
<trkpt lat="46.14723897" lon="7.55147802"><ele>2746.143555</ele><time>2007-08-18T10:03:27Z</time></trkpt>
<trkpt lat="46.14703302" lon="7.55150517"><ele>2742.29834</ele><time>2007-08-18T10:03:33Z</time></trkpt>
<trkpt lat="46.14688022" lon="7.55104769"><ele>2738.933105</ele><time>2007-08-18T10:03:38Z</time></trkpt>
<trkpt lat="46.14683169" lon="7.55087326"><ele>2736.529785</ele><time>2007-08-18T10:03:40Z</time></trkpt>
<trkpt lat="46.14662088" lon="7.55094619"><ele>2733.165527</ele><time>2007-08-18T10:03:46Z</time></trkpt>
<trkpt lat="46.14662734" lon="7.55111198"><ele>2729.800781</ele><time>2007-08-18T10:03:48Z</time></trkpt>
<trkpt lat="46.14666590" lon="7.55146058"><ele>2726.916992</ele><time>2007-08-18T10:03:52Z</time></trkpt>
<trkpt lat="46.14644696" lon="7.55194380"><ele>2724.033203</ele><time>2007-08-18T10:03:58Z</time></trkpt>
<trkpt lat="46.14625862" lon="7.55196006"><ele>2720.668457</ele><time>2007-08-18T10:04:04Z</time></trkpt>
<trkpt lat="46.14618335" lon="7.55187674"><ele>2719.226563</ele><time>2007-08-18T10:04:06Z</time></trkpt>
<trkpt lat="46.14606433" lon="7.55216952"><ele>2715.381348</ele><time>2007-08-18T10:04:10Z</time></trkpt>
<trkpt lat="46.14603356" lon="7.55238393"><ele>2713.939453</ele><time>2007-08-18T10:04:12Z</time></trkpt>
<trkpt lat="46.14598436" lon="7.55261058"><ele>2710.574707</ele><time>2007-08-18T10:04:15Z</time></trkpt>
<trkpt lat="46.14587724" lon="7.55263397"><ele>2710.094238</ele><time>2007-08-18T10:04:17Z</time></trkpt>
<trkpt lat="46.14545538" lon="7.55272348"><ele>2709.132813</ele><time>2007-08-18T10:04:23Z</time></trkpt>
<trkpt lat="46.14544088" lon="7.55326940"><ele>2708.171387</ele><time>2007-08-18T10:04:28Z</time></trkpt>
<trkpt lat="46.14551707" lon="7.55379503"><ele>2709.613281</ele><time>2007-08-18T10:04:33Z</time></trkpt>
<trkpt lat="46.14545957" lon="7.55413609"><ele>2708.171387</ele><time>2007-08-18T10:04:37Z</time></trkpt>
<trkpt lat="46.14535555" lon="7.55413516"><ele>2705.767578</ele><time>2007-08-18T10:04:39Z</time></trkpt>
<trkpt lat="46.14524466" lon="7.55403408"><ele>2704.806152</ele><time>2007-08-18T10:04:41Z</time></trkpt>
<trkpt lat="46.14494693" lon="7.55362395"><ele>2703.845215</ele><time>2007-08-18T10:04:46Z</time></trkpt>
<trkpt lat="46.14480260" lon="7.55345816"><ele>2702.40332</ele><time>2007-08-18T10:04:48Z</time></trkpt>
<trkpt lat="46.14459657" lon="7.55312263"><ele>2699.038574</ele><time>2007-08-18T10:04:52Z</time></trkpt>
<trkpt lat="46.14456656" lon="7.55307678"><ele>2697.59668</ele><time>2007-08-18T10:04:53Z</time></trkpt>
<trkpt lat="46.14455382" lon="7.55325607"><ele>2694.231934</ele><time>2007-08-18T10:04:58Z</time></trkpt>
<trkpt lat="46.14458358" lon="7.55335263"><ele>2694.231934</ele><time>2007-08-18T10:04:59Z</time></trkpt>
<trkpt lat="46.14465734" lon="7.55358799"><ele>2692.790039</ele><time>2007-08-18T10:05:01Z</time></trkpt>
<trkpt lat="46.14469095" lon="7.55370878"><ele>2689.425293</ele><time>2007-08-18T10:05:02Z</time></trkpt>
<trkpt lat="46.14472238" lon="7.55381707"><ele>2689.425293</ele><time>2007-08-18T10:05:03Z</time></trkpt>
<trkpt lat="46.14486094" lon="7.55411052"><ele>2687.022461</ele><time>2007-08-18T10:05:06Z</time></trkpt>
<trkpt lat="46.14494869" lon="7.55467705"><ele>2681.734863</ele><time>2007-08-18T10:05:11Z</time></trkpt>
<trkpt lat="46.14487980" lon="7.55507444"><ele>2678.370605</ele><time>2007-08-18T10:05:15Z</time></trkpt>
<trkpt lat="46.14472272" lon="7.55503924"><ele>2673.563477</ele><time>2007-08-18T10:05:20Z</time></trkpt>
<trkpt lat="46.14466824" lon="7.55487939"><ele>2669.718262</ele><time>2007-08-18T10:05:22Z</time></trkpt>
<trkpt lat="46.14457746" lon="7.55481443"><ele>2668.756836</ele><time>2007-08-18T10:05:24Z</time></trkpt>
<trkpt lat="46.14427554" lon="7.55479608"><ele>2665.873047</ele><time>2007-08-18T10:05:28Z</time></trkpt>
<trkpt lat="46.14407614" lon="7.55493044"><ele>2662.989258</ele><time>2007-08-18T10:05:31Z</time></trkpt>
<trkpt lat="46.14398478" lon="7.55527854"><ele>2662.027832</ele><time>2007-08-18T10:05:34Z</time></trkpt>
<trkpt lat="46.14395753" lon="7.55590048"><ele>2660.585938</ele><time>2007-08-18T10:05:39Z</time></trkpt>
<trkpt lat="46.14393499" lon="7.55623927"><ele>2657.221191</ele><time>2007-08-18T10:05:42Z</time></trkpt>
<trkpt lat="46.14391018" lon="7.55660774"><ele>2653.856934</ele><time>2007-08-18T10:05:45Z</time></trkpt>
<trkpt lat="46.14391739" lon="7.55702994"><ele>2649.050293</ele><time>2007-08-18T10:05:48Z</time></trkpt>
<trkpt lat="46.14392099" lon="7.55715642"><ele>2648.088867</ele><time>2007-08-18T10:05:49Z</time></trkpt>
<trkpt lat="46.14396583" lon="7.55750209"><ele>2644.724609</ele><time>2007-08-18T10:05:52Z</time></trkpt>
<trkpt lat="46.14396013" lon="7.55776805"><ele>2640.397949</ele><time>2007-08-18T10:05:55Z</time></trkpt>
<trkpt lat="46.14382803" lon="7.55763813"><ele>2638.956055</ele><time>2007-08-18T10:05:59Z</time></trkpt>
<trkpt lat="46.14368579" lon="7.55720638"><ele>2637.033691</ele><time>2007-08-18T10:06:03Z</time></trkpt>
<trkpt lat="46.14334264" lon="7.55638579"><ele>2633.188477</ele><time>2007-08-18T10:06:11Z</time></trkpt>
<trkpt lat="46.14319587" lon="7.55604146"><ele>2631.746582</ele><time>2007-08-18T10:06:14Z</time></trkpt>
<trkpt lat="46.14308674" lon="7.55576268"><ele>2629.82373</ele><time>2007-08-18T10:06:17Z</time></trkpt>
<trkpt lat="46.14298096" lon="7.55589444"><ele>2625.978516</ele><time>2007-08-18T10:06:22Z</time></trkpt>
<trkpt lat="46.14296713" lon="7.55601212"><ele>2625.498047</ele><time>2007-08-18T10:06:23Z</time></trkpt>
<trkpt lat="46.14291298" lon="7.55625092"><ele>2622.61377</ele><time>2007-08-18T10:06:25Z</time></trkpt>
<trkpt lat="46.14284618" lon="7.55678720"><ele>2616.846191</ele><time>2007-08-18T10:06:30Z</time></trkpt>
<trkpt lat="46.14287208" lon="7.55698535"><ele>2613.481445</ele><time>2007-08-18T10:06:32Z</time></trkpt>
<trkpt lat="46.14285079" lon="7.55717386"><ele>2608.674805</ele><time>2007-08-18T10:06:35Z</time></trkpt>
<trkpt lat="46.14271726" lon="7.55703916"><ele>2607.232422</ele><time>2007-08-18T10:06:38Z</time></trkpt>
<trkpt lat="46.14258869" lon="7.55690983"><ele>2605.790527</ele><time>2007-08-18T10:06:40Z</time></trkpt>
<trkpt lat="46.14237470" lon="7.55685442"><ele>2601.464844</ele><time>2007-08-18T10:06:44Z</time></trkpt>
<trkpt lat="46.14232499" lon="7.55727544"><ele>2598.100098</ele><time>2007-08-18T10:06:48Z</time></trkpt>
<trkpt lat="46.14221980" lon="7.55759739"><ele>2594.254883</ele><time>2007-08-18T10:06:51Z</time></trkpt>
<trkpt lat="46.14216967" lon="7.55768683"><ele>2593.293701</ele><time>2007-08-18T10:06:52Z</time></trkpt>
<trkpt lat="46.14193909" lon="7.55813149"><ele>2585.603027</ele><time>2007-08-18T10:06:57Z</time></trkpt>
<trkpt lat="46.14184915" lon="7.55832947"><ele>2584.161133</ele><time>2007-08-18T10:06:59Z</time></trkpt>
<trkpt lat="46.14180062" lon="7.55844195"><ele>2582.238525</ele><time>2007-08-18T10:07:00Z</time></trkpt>
<trkpt lat="46.14169794" lon="7.55876197"><ele>2577.912598</ele><time>2007-08-18T10:07:03Z</time></trkpt>
<trkpt lat="46.14160457" lon="7.55890606"><ele>2575.028564</ele><time>2007-08-18T10:07:06Z</time></trkpt>
<trkpt lat="46.14155327" lon="7.55862158"><ele>2573.58667</ele><time>2007-08-18T10:07:10Z</time></trkpt>
<trkpt lat="46.14142276" lon="7.55849786"><ele>2573.58667</ele><time>2007-08-18T10:07:13Z</time></trkpt>
<trkpt lat="46.14095673" lon="7.55841572"><ele>2570.221924</ele><time>2007-08-18T10:07:19Z</time></trkpt>
<trkpt lat="46.14078457" lon="7.55844397"><ele>2569.260742</ele><time>2007-08-18T10:07:21Z</time></trkpt>
<trkpt lat="46.14060838" lon="7.55850239"><ele>2564.934814</ele><time>2007-08-18T10:07:23Z</time></trkpt>
<trkpt lat="46.14042649" lon="7.55855788"><ele>2563.012207</ele><time>2007-08-18T10:07:25Z</time></trkpt>
<trkpt lat="46.14002332" lon="7.55871294"><ele>2560.608887</ele><time>2007-08-18T10:07:29Z</time></trkpt>
<trkpt lat="46.13966357" lon="7.55902282"><ele>2557.725098</ele><time>2007-08-18T10:07:33Z</time></trkpt>
<trkpt lat="46.13947632" lon="7.55919934"><ele>2556.282959</ele><time>2007-08-18T10:07:35Z</time></trkpt>
<trkpt lat="46.13918287" lon="7.55984508"><ele>2551.956787</ele><time>2007-08-18T10:07:40Z</time></trkpt>
<trkpt lat="46.13906812" lon="7.56044975"><ele>2550.514893</ele><time>2007-08-18T10:07:44Z</time></trkpt>
<trkpt lat="46.13886829" lon="7.56074639"><ele>2549.072998</ele><time>2007-08-18T10:07:47Z</time></trkpt>
<trkpt lat="46.13858222" lon="7.56077598"><ele>2548.111572</ele><time>2007-08-18T10:07:50Z</time></trkpt>
<trkpt lat="46.13805542" lon="7.56070775"><ele>2545.227783</ele><time>2007-08-18T10:07:55Z</time></trkpt>
<trkpt lat="46.13769164" lon="7.56045319"><ele>2546.669678</ele><time>2007-08-18T10:07:59Z</time></trkpt>
<trkpt lat="46.13741353" lon="7.56031724"><ele>2547.631104</ele><time>2007-08-18T10:08:03Z</time></trkpt>
<trkpt lat="46.13687810" lon="7.56027315"><ele>2548.111572</ele><time>2007-08-18T10:08:11Z</time></trkpt>
<trkpt lat="46.13655925" lon="7.56041698"><ele>2548.111572</ele><time>2007-08-18T10:08:16Z</time></trkpt>
<trkpt lat="46.13644056" lon="7.56055302"><ele>2548.111572</ele><time>2007-08-18T10:08:18Z</time></trkpt>
<trkpt lat="46.13612775" lon="7.56070943"><ele>2546.189209</ele><time>2007-08-18T10:08:22Z</time></trkpt>
<trkpt lat="46.13595483" lon="7.56070750"><ele>2545.708496</ele><time>2007-08-18T10:08:24Z</time></trkpt>
<trkpt lat="46.13553188" lon="7.56102609"><ele>2541.863281</ele><time>2007-08-18T10:08:30Z</time></trkpt>
<trkpt lat="46.13544823" lon="7.56103473"><ele>2540.901855</ele><time>2007-08-18T10:08:31Z</time></trkpt>
<trkpt lat="46.13499275" lon="7.56145307"><ele>2538.498535</ele><time>2007-08-18T10:08:38Z</time></trkpt>
<trkpt lat="46.13477399" lon="7.56175054"><ele>2536.575684</ele><time>2007-08-18T10:08:43Z</time></trkpt>
<trkpt lat="46.13472554" lon="7.56170972"><ele>2536.575684</ele><time>2007-08-18T10:08:44Z</time></trkpt>
<trkpt lat="46.13420787" lon="7.56142046"><ele>2532.730469</ele><time>2007-08-18T10:08:51Z</time></trkpt>
<trkpt lat="46.13377285" lon="7.56118158"><ele>2534.172607</ele><time>2007-08-18T10:08:57Z</time></trkpt>
<trkpt lat="46.13335116" lon="7.56093155"><ele>2534.172607</ele><time>2007-08-18T10:09:03Z</time></trkpt>
<trkpt lat="46.13310205" lon="7.56072032"><ele>2533.211182</ele><time>2007-08-18T10:09:07Z</time></trkpt>
<trkpt lat="46.13269418" lon="7.56047364"><ele>2532.25</ele><time>2007-08-18T10:09:14Z</time></trkpt>
<trkpt lat="46.13264046" lon="7.56075167"><ele>2530.327393</ele><time>2007-08-18T10:09:17Z</time></trkpt>
<trkpt lat="46.13258933" lon="7.56106222"><ele>2527.924072</ele><time>2007-08-18T10:09:20Z</time></trkpt>
<trkpt lat="46.13245262" lon="7.56115333"><ele>2522.636719</ele><time>2007-08-18T10:09:22Z</time></trkpt>
<trkpt lat="46.13230049" lon="7.56112643"><ele>2521.19458</ele><time>2007-08-18T10:09:24Z</time></trkpt>
<trkpt lat="46.13213427" lon="7.56104294"><ele>2520.233398</ele><time>2007-08-18T10:09:26Z</time></trkpt>
<trkpt lat="46.13184954" lon="7.56072963"><ele>2516.388184</ele><time>2007-08-18T10:09:30Z</time></trkpt>
<trkpt lat="46.13165433" lon="7.56019444"><ele>2513.023682</ele><time>2007-08-18T10:09:34Z</time></trkpt>
<trkpt lat="46.13140857" lon="7.55912466"><ele>2510.139648</ele><time>2007-08-18T10:09:41Z</time></trkpt>
<trkpt lat="46.13134093" lon="7.55867363"><ele>2505.813477</ele><time>2007-08-18T10:09:44Z</time></trkpt>
<trkpt lat="46.13132735" lon="7.55854832"><ele>2504.852295</ele><time>2007-08-18T10:09:45Z</time></trkpt>
<trkpt lat="46.13134244" lon="7.55820357"><ele>2501.487793</ele><time>2007-08-18T10:09:49Z</time></trkpt>
<trkpt lat="46.13127437" lon="7.55778196"><ele>2501.00708</ele><time>2007-08-18T10:09:54Z</time></trkpt>
<trkpt lat="46.13115535" lon="7.55753227"><ele>2497.161865</ele><time>2007-08-18T10:10:01Z</time></trkpt>
<trkpt lat="46.13115787" lon="7.55754568"><ele>2496.681152</ele><time>2007-08-18T10:10:08Z</time></trkpt>
<trkpt lat="46.13116466" lon="7.55756252"><ele>2497.642578</ele><time>2007-08-18T10:10:25Z</time></trkpt>
<trkpt lat="46.13117178" lon="7.55756085"><ele>2496.681152</ele><time>2007-08-18T10:10:49Z</time></trkpt>
<trkpt lat="46.13117874" lon="7.55756496"><ele>2496.681152</ele><time>2007-08-18T10:11:36Z</time></trkpt>
<trkpt lat="46.13118217" lon="7.55756554"><ele>2496.200684</ele><time>2007-08-18T10:12:59Z</time></trkpt>
<trkpt lat="46.13118343" lon="7.55756143"><ele>2496.681152</ele><time>2007-08-18T10:13:15Z</time></trkpt>
<trkpt lat="46.13119240" lon="7.55757552"><ele>2495.719971</ele><time>2007-08-18T10:13:43Z</time></trkpt>
<trkpt lat="46.13119776" lon="7.55758029"><ele>2494.758545</ele><time>2007-08-18T10:14:28Z</time></trkpt>
<trkpt lat="46.13120824" lon="7.55758499"><ele>2496.681152</ele><time>2007-08-18T10:15:12Z</time></trkpt>
<trkpt lat="46.13120363" lon="7.55758708"><ele>2496.200684</ele><time>2007-08-18T10:15:28Z</time></trkpt>
<trkpt lat="46.13118829" lon="7.55758239"><ele>2496.200684</ele><time>2007-08-18T10:15:48Z</time></trkpt>
<trkpt lat="46.13117807" lon="7.55757778"><ele>2496.200684</ele><time>2007-08-18T10:15:56Z</time></trkpt>
<trkpt lat="46.13091605" lon="7.55775137"><ele>2493.797363</ele><time>2007-08-18T10:16:06Z</time></trkpt>
<trkpt lat="46.13091236" lon="7.55775749"><ele>2493.31665</ele><time>2007-08-18T10:16:08Z</time></trkpt>
<trkpt lat="46.13091362" lon="7.55780803"><ele>2491.874512</ele><time>2007-08-18T10:16:25Z</time></trkpt>
<trkpt lat="46.13091295" lon="7.55780895"><ele>2492.355469</ele><time>2007-08-18T10:16:33Z</time></trkpt>
<trkpt lat="46.13091035" lon="7.55781918"><ele>2493.31665</ele><time>2007-08-18T10:16:56Z</time></trkpt>
<trkpt lat="46.13089057" lon="7.55819578"><ele>2491.874512</ele><time>2007-08-18T10:17:04Z</time></trkpt>
<trkpt lat="46.13059997" lon="7.55840993"><ele>2488.51001</ele><time>2007-08-18T10:17:09Z</time></trkpt>
<trkpt lat="46.13052143" lon="7.55841614"><ele>2488.51001</ele><time>2007-08-18T10:17:10Z</time></trkpt>
<trkpt lat="46.13022806" lon="7.55858939"><ele>2484.664795</ele><time>2007-08-18T10:17:15Z</time></trkpt>
<trkpt lat="46.13019839" lon="7.55867229"><ele>2484.664795</ele><time>2007-08-18T10:17:16Z</time></trkpt>
<trkpt lat="46.13009068" lon="7.55917562"><ele>2481.300049</ele><time>2007-08-18T10:17:21Z</time></trkpt>
<trkpt lat="46.13008163" lon="7.55982254"><ele>2477.935547</ele><time>2007-08-18T10:17:26Z</time></trkpt>
<trkpt lat="46.13008968" lon="7.55994977"><ele>2474.570801</ele><time>2007-08-18T10:17:27Z</time></trkpt>
<trkpt lat="46.13012706" lon="7.56016796"><ele>2473.128906</ele><time>2007-08-18T10:17:29Z</time></trkpt>
<trkpt lat="46.13035874" lon="7.56055864"><ele>2470.244873</ele><time>2007-08-18T10:17:34Z</time></trkpt>
<trkpt lat="46.13044834" lon="7.56077866"><ele>2465.918945</ele><time>2007-08-18T10:17:39Z</time></trkpt>
<trkpt lat="46.13029369" lon="7.56074019"><ele>2464.477051</ele><time>2007-08-18T10:17:42Z</time></trkpt>
<trkpt lat="46.13014399" lon="7.56070683"><ele>2463.035156</ele><time>2007-08-18T10:17:44Z</time></trkpt>
<trkpt lat="46.12989035" lon="7.56044095"><ele>2460.631836</ele><time>2007-08-18T10:17:48Z</time></trkpt>
<trkpt lat="46.12959799" lon="7.56021422"><ele>2457.747803</ele><time>2007-08-18T10:17:52Z</time></trkpt>
<trkpt lat="46.12933673" lon="7.56016050"><ele>2454.383057</ele><time>2007-08-18T10:17:55Z</time></trkpt>
<trkpt lat="46.12904328" lon="7.56049678"><ele>2451.499268</ele><time>2007-08-18T10:18:01Z</time></trkpt>
<trkpt lat="46.12911846" lon="7.56083834"><ele>2448.615234</ele><time>2007-08-18T10:18:04Z</time></trkpt>
<trkpt lat="46.12922776" lon="7.56095493"><ele>2447.17334</ele><time>2007-08-18T10:18:06Z</time></trkpt>
<trkpt lat="46.12969900" lon="7.56129608"><ele>2444.289307</ele><time>2007-08-18T10:18:12Z</time></trkpt>
<trkpt lat="46.12990326" lon="7.56162574"><ele>2438.521484</ele><time>2007-08-18T10:18:15Z</time></trkpt>
<trkpt lat="46.12995246" lon="7.56175725"><ele>2436.598633</ele><time>2007-08-18T10:18:16Z</time></trkpt>
<trkpt lat="46.13006797" lon="7.56201943"><ele>2434.67627</ele><time>2007-08-18T10:18:18Z</time></trkpt>
<trkpt lat="46.13024826" lon="7.56243518"><ele>2429.869629</ele><time>2007-08-18T10:18:21Z</time></trkpt>
<trkpt lat="46.13044239" lon="7.56279225"><ele>2425.062744</ele><time>2007-08-18T10:18:24Z</time></trkpt>
<trkpt lat="46.13087674" lon="7.56313548"><ele>2418.814453</ele><time>2007-08-18T10:18:29Z</time></trkpt>
<trkpt lat="46.13108167" lon="7.56338476"><ele>2416.411133</ele><time>2007-08-18T10:18:32Z</time></trkpt>
<trkpt lat="46.13124344" lon="7.56357713"><ele>2412.565918</ele><time>2007-08-18T10:18:35Z</time></trkpt>
<trkpt lat="46.13132768" lon="7.56358526"><ele>2411.604492</ele><time>2007-08-18T10:18:36Z</time></trkpt>
<trkpt lat="46.13151443" lon="7.56359925"><ele>2410.162354</ele><time>2007-08-18T10:18:38Z</time></trkpt>
<trkpt lat="46.13171342" lon="7.56366665"><ele>2408.239746</ele><time>2007-08-18T10:18:40Z</time></trkpt>
<trkpt lat="46.13189707" lon="7.56377016"><ele>2404.394531</ele><time>2007-08-18T10:18:42Z</time></trkpt>
<trkpt lat="46.13215682" lon="7.56395356"><ele>2401.510742</ele><time>2007-08-18T10:18:45Z</time></trkpt>
<trkpt lat="46.13254666" lon="7.56415908"><ele>2397.665527</ele><time>2007-08-18T10:18:49Z</time></trkpt>
<trkpt lat="46.13283835" lon="7.56431096"><ele>2393.339355</ele><time>2007-08-18T10:18:52Z</time></trkpt>
<trkpt lat="46.13299903" lon="7.56437366"><ele>2389.013428</ele><time>2007-08-18T10:18:54Z</time></trkpt>
<trkpt lat="46.13331394" lon="7.56465127"><ele>2383.726318</ele><time>2007-08-18T10:18:59Z</time></trkpt>
<trkpt lat="46.13346959" lon="7.56471070"><ele>2381.322998</ele><time>2007-08-18T10:19:01Z</time></trkpt>
<trkpt lat="46.13376967" lon="7.56476652"><ele>2376.99707</ele><time>2007-08-18T10:19:04Z</time></trkpt>
<trkpt lat="46.13409924" lon="7.56486056"><ele>2372.671143</ele><time>2007-08-18T10:19:07Z</time></trkpt>
<trkpt lat="46.13430594" lon="7.56491203"><ele>2369.306641</ele><time>2007-08-18T10:19:09Z</time></trkpt>
<trkpt lat="46.13460719" lon="7.56500524"><ele>2366.90332</ele><time>2007-08-18T10:19:12Z</time></trkpt>
<trkpt lat="46.13478933" lon="7.56508159"><ele>2363.53833</ele><time>2007-08-18T10:19:14Z</time></trkpt>
<trkpt lat="46.13502117" lon="7.56520246"><ele>2360.654541</ele><time>2007-08-18T10:19:17Z</time></trkpt>
<trkpt lat="46.13526450" lon="7.56529148"><ele>2356.328613</ele><time>2007-08-18T10:19:20Z</time></trkpt>
<trkpt lat="46.13548544" lon="7.56536080"><ele>2353.925537</ele><time>2007-08-18T10:19:23Z</time></trkpt>
<trkpt lat="46.13555753" lon="7.56540639"><ele>2352.964111</ele><time>2007-08-18T10:19:25Z</time></trkpt>
<trkpt lat="46.13551428" lon="7.56546247"><ele>2351.041504</ele><time>2007-08-18T10:19:28Z</time></trkpt>
<trkpt lat="46.13545124" lon="7.56544436"><ele>2350.560791</ele><time>2007-08-18T10:19:29Z</time></trkpt>
<trkpt lat="46.13530297" lon="7.56541125"><ele>2350.080322</ele><time>2007-08-18T10:19:31Z</time></trkpt>
<trkpt lat="46.13498379" lon="7.56545518"><ele>2344.792725</ele><time>2007-08-18T10:19:35Z</time></trkpt>
<trkpt lat="46.13470232" lon="7.56550337"><ele>2341.908936</ele><time>2007-08-18T10:19:38Z</time></trkpt>
<trkpt lat="46.13445455" lon="7.56549424"><ele>2339.024902</ele><time>2007-08-18T10:19:41Z</time></trkpt>
<trkpt lat="46.13439806" lon="7.56548158"><ele>2337.102295</ele><time>2007-08-18T10:19:42Z</time></trkpt>
<trkpt lat="46.13433444" lon="7.56553707"><ele>2334.699219</ele><time>2007-08-18T10:19:45Z</time></trkpt>
<trkpt lat="46.13440225" lon="7.56559038"><ele>2333.737793</ele><time>2007-08-18T10:19:47Z</time></trkpt>
<trkpt lat="46.13475379" lon="7.56576120"><ele>2331.334229</ele><time>2007-08-18T10:19:52Z</time></trkpt>
<trkpt lat="46.13493676" lon="7.56586120"><ele>2328.930908</ele><time>2007-08-18T10:19:54Z</time></trkpt>
<trkpt lat="46.13512930" lon="7.56601660"><ele>2327.008545</ele><time>2007-08-18T10:19:56Z</time></trkpt>
<trkpt lat="46.13533239" lon="7.56616713"><ele>2325.085693</ele><time>2007-08-18T10:19:58Z</time></trkpt>
<trkpt lat="46.13551302" lon="7.56632606"><ele>2323.16333</ele><time>2007-08-18T10:20:00Z</time></trkpt>
<trkpt lat="46.13579172" lon="7.56648062"><ele>2318.356689</ele><time>2007-08-18T10:20:03Z</time></trkpt>
<trkpt lat="46.13590278" lon="7.56651498"><ele>2318.356689</ele><time>2007-08-18T10:20:04Z</time></trkpt>
<trkpt lat="46.13642958" lon="7.56684959"><ele>2315.472656</ele><time>2007-08-18T10:20:09Z</time></trkpt>
<trkpt lat="46.13684314" lon="7.56705017"><ele>2312.10791</ele><time>2007-08-18T10:20:13Z</time></trkpt>
<trkpt lat="46.13703676" lon="7.56712636"><ele>2306.340088</ele><time>2007-08-18T10:20:15Z</time></trkpt>
<trkpt lat="46.13716350" lon="7.56718327"><ele>2302.975586</ele><time>2007-08-18T10:20:17Z</time></trkpt>
<trkpt lat="46.13732259" lon="7.56728327"><ele>2299.61084</ele><time>2007-08-18T10:20:21Z</time></trkpt>
<trkpt lat="46.13715420" lon="7.56734295"><ele>2297.688232</ele><time>2007-08-18T10:20:26Z</time></trkpt>
<trkpt lat="46.13702293" lon="7.56730188"><ele>2296.726807</ele><time>2007-08-18T10:20:28Z</time></trkpt>
<trkpt lat="46.13694373" lon="7.56745468"><ele>2293.843018</ele><time>2007-08-18T10:20:34Z</time></trkpt>
<trkpt lat="46.13722519" lon="7.56754462"><ele>2292.401123</ele><time>2007-08-18T10:20:38Z</time></trkpt>
<trkpt lat="46.13736567" lon="7.56749282"><ele>2289.036377</ele><time>2007-08-18T10:20:40Z</time></trkpt>
<trkpt lat="46.13769332" lon="7.56733976"><ele>2285.191162</ele><time>2007-08-18T10:20:44Z</time></trkpt>
<trkpt lat="46.13788258" lon="7.56727606"><ele>2281.345703</ele><time>2007-08-18T10:20:46Z</time></trkpt>
<trkpt lat="46.13804284" lon="7.56720574"><ele>2277.500488</ele><time>2007-08-18T10:20:48Z</time></trkpt>
<trkpt lat="46.13830285" lon="7.56727120"><ele>2272.694092</ele><time>2007-08-18T10:20:53Z</time></trkpt>
<trkpt lat="46.13811225" lon="7.56743398"><ele>2269.32959</ele><time>2007-08-18T10:20:58Z</time></trkpt>
<trkpt lat="46.13809339" lon="7.56746884"><ele>2269.32959</ele><time>2007-08-18T10:20:59Z</time></trkpt>
<trkpt lat="46.13829698" lon="7.56746734"><ele>2269.32959</ele><time>2007-08-18T10:21:04Z</time></trkpt>
<trkpt lat="46.13845750" lon="7.56707422"><ele>2267.887207</ele><time>2007-08-18T10:21:10Z</time></trkpt>
<trkpt lat="46.13859789" lon="7.56702226"><ele>2263.080811</ele><time>2007-08-18T10:21:14Z</time></trkpt>
<trkpt lat="46.13863276" lon="7.56702879"><ele>2263.561279</ele><time>2007-08-18T10:21:15Z</time></trkpt>
<trkpt lat="46.13885899" lon="7.56709585"><ele>2259.235596</ele><time>2007-08-18T10:21:20Z</time></trkpt>
<trkpt lat="46.13889528" lon="7.56710666"><ele>2258.754883</ele><time>2007-08-18T10:21:21Z</time></trkpt>
<trkpt lat="46.13895136" lon="7.56715913"><ele>2255.87085</ele><time>2007-08-18T10:21:23Z</time></trkpt>
<trkpt lat="46.13901548" lon="7.56721077"><ele>2253.948486</ele><time>2007-08-18T10:21:25Z</time></trkpt>
<trkpt lat="46.13908740" lon="7.56723415"><ele>2251.544922</ele><time>2007-08-18T10:21:27Z</time></trkpt>
<trkpt lat="46.13924984" lon="7.56716165"><ele>2247.699707</ele><time>2007-08-18T10:21:30Z</time></trkpt>
<trkpt lat="46.13931597" lon="7.56711840"><ele>2247.699707</ele><time>2007-08-18T10:21:31Z</time></trkpt>
<trkpt lat="46.13943592" lon="7.56710214"><ele>2243.373779</ele><time>2007-08-18T10:21:33Z</time></trkpt>
<trkpt lat="46.13956919" lon="7.56712519"><ele>2240.009277</ele><time>2007-08-18T10:21:35Z</time></trkpt>
<trkpt lat="46.13990463" lon="7.56731956"><ele>2236.164063</ele><time>2007-08-18T10:21:40Z</time></trkpt>
<trkpt lat="46.13996264" lon="7.56734613"><ele>2236.164063</ele><time>2007-08-18T10:21:41Z</time></trkpt>
<trkpt lat="46.14007562" lon="7.56737379"><ele>2234.241211</ele><time>2007-08-18T10:21:43Z</time></trkpt>
<trkpt lat="46.14020043" lon="7.56738712"><ele>2232.799072</ele><time>2007-08-18T10:21:45Z</time></trkpt>
<trkpt lat="46.14041207" lon="7.56733566"><ele>2227.511963</ele><time>2007-08-18T10:21:49Z</time></trkpt>
<trkpt lat="46.14048139" lon="7.56731763"><ele>2227.031494</ele><time>2007-08-18T10:21:51Z</time></trkpt>
<trkpt lat="46.14040252" lon="7.56747236"><ele>2225.108643</ele><time>2007-08-18T10:21:56Z</time></trkpt>
<trkpt lat="46.14022817" lon="7.56763422"><ele>2219.821289</ele><time>2007-08-18T10:21:59Z</time></trkpt>
<trkpt lat="46.14016087" lon="7.56768568"><ele>2219.34082</ele><time>2007-08-18T10:22:00Z</time></trkpt>
<trkpt lat="46.13996716" lon="7.56777579"><ele>2214.53418</ele><time>2007-08-18T10:22:03Z</time></trkpt>
<trkpt lat="46.13973490" lon="7.56777436"><ele>2211.650391</ele><time>2007-08-18T10:22:07Z</time></trkpt>
<trkpt lat="46.13968218" lon="7.56776079"><ele>2210.688965</ele><time>2007-08-18T10:22:08Z</time></trkpt>
<trkpt lat="46.13976767" lon="7.56789414"><ele>2208.766357</ele><time>2007-08-18T10:22:14Z</time></trkpt>
<trkpt lat="46.13989382" lon="7.56796279"><ele>2207.805176</ele><time>2007-08-18T10:22:16Z</time></trkpt>
<trkpt lat="46.14019532" lon="7.56803454"><ele>2206.363037</ele><time>2007-08-18T10:22:20Z</time></trkpt>
<trkpt lat="46.14037972" lon="7.56800009"><ele>2201.075684</ele><time>2007-08-18T10:22:23Z</time></trkpt>
<trkpt lat="46.14044988" lon="7.56797763"><ele>2199.633789</ele><time>2007-08-18T10:22:25Z</time></trkpt>
<trkpt lat="46.14045465" lon="7.56803345"><ele>2198.19165</ele><time>2007-08-18T10:22:27Z</time></trkpt>
<trkpt lat="46.14031426" lon="7.56814644"><ele>2196.269287</ele><time>2007-08-18T10:22:30Z</time></trkpt>
<trkpt lat="46.14002466" lon="7.56830133"><ele>2193.385254</ele><time>2007-08-18T10:22:34Z</time></trkpt>
<trkpt lat="46.13975066" lon="7.56832447"><ele>2189.540039</ele><time>2007-08-18T10:22:38Z</time></trkpt>
<trkpt lat="46.13970045" lon="7.56831483"><ele>2189.059326</ele><time>2007-08-18T10:22:39Z</time></trkpt>
<trkpt lat="46.13962619" lon="7.56833008"><ele>2188.098145</ele><time>2007-08-18T10:22:41Z</time></trkpt>
<trkpt lat="46.13966256" lon="7.56838214"><ele>2187.136475</ele><time>2007-08-18T10:22:43Z</time></trkpt>
<trkpt lat="46.13991553" lon="7.56851214"><ele>2186.175293</ele><time>2007-08-18T10:22:47Z</time></trkpt>
<trkpt lat="46.14021242" lon="7.56860275"><ele>2181.368652</ele><time>2007-08-18T10:22:51Z</time></trkpt>
<trkpt lat="46.14036874" lon="7.56857215"><ele>2177.523438</ele><time>2007-08-18T10:22:54Z</time></trkpt>
<trkpt lat="46.14036513" lon="7.56865547"><ele>2174.639648</ele><time>2007-08-18T10:22:59Z</time></trkpt>
<trkpt lat="46.13981746" lon="7.56886980"><ele>2170.794189</ele><time>2007-08-18T10:23:07Z</time></trkpt>
<trkpt lat="46.13972778" lon="7.56888245"><ele>2169.832764</ele><time>2007-08-18T10:23:08Z</time></trkpt>
<trkpt lat="46.13939459" lon="7.56885437"><ele>2165.50708</ele><time>2007-08-18T10:23:12Z</time></trkpt>
<trkpt lat="46.13913274" lon="7.56895496"><ele>2164.064941</ele><time>2007-08-18T10:23:17Z</time></trkpt>
<trkpt lat="46.13902386" lon="7.56901539"><ele>2163.10376</ele><time>2007-08-18T10:23:19Z</time></trkpt>
<trkpt lat="46.13891599" lon="7.56909208"><ele>2161.661865</ele><time>2007-08-18T10:23:21Z</time></trkpt>
<trkpt lat="46.13900819" lon="7.56933918"><ele>2161.661865</ele><time>2007-08-18T10:23:26Z</time></trkpt>
<trkpt lat="46.13913685" lon="7.56938076"><ele>2159.739014</ele><time>2007-08-18T10:23:28Z</time></trkpt>
<trkpt lat="46.13907600" lon="7.56969189"><ele>2159.258545</ele><time>2007-08-18T10:23:33Z</time></trkpt>
<trkpt lat="46.13890526" lon="7.56989658"><ele>2154.45166</ele><time>2007-08-18T10:23:36Z</time></trkpt>
<trkpt lat="46.13867057" lon="7.56995592"><ele>2151.087158</ele><time>2007-08-18T10:23:39Z</time></trkpt>
<trkpt lat="46.13832414" lon="7.56998224"><ele>2147.241943</ele><time>2007-08-18T10:23:43Z</time></trkpt>
<trkpt lat="46.13825633" lon="7.57001719"><ele>2147.722656</ele><time>2007-08-18T10:23:44Z</time></trkpt>
<trkpt lat="46.13799876" lon="7.57016488"><ele>2147.241943</ele><time>2007-08-18T10:23:49Z</time></trkpt>
<trkpt lat="46.13763456" lon="7.57030293"><ele>2148.203125</ele><time>2007-08-18T10:23:58Z</time></trkpt>
<trkpt lat="46.13777655" lon="7.57045297"><ele>2151.087158</ele><time>2007-08-18T10:24:05Z</time></trkpt>
<trkpt lat="46.13790236" lon="7.57053863"><ele>2151.087158</ele><time>2007-08-18T10:24:09Z</time></trkpt>
<trkpt lat="46.13804234" lon="7.57069596"><ele>2150.606445</ele><time>2007-08-18T10:24:13Z</time></trkpt>
<trkpt lat="46.13825683" lon="7.57110986"><ele>2151.087158</ele><time>2007-08-18T10:24:19Z</time></trkpt>
<trkpt lat="46.13834510" lon="7.57125068"><ele>2147.722656</ele><time>2007-08-18T10:24:22Z</time></trkpt>
<trkpt lat="46.13837485" lon="7.57128395"><ele>2147.241943</ele><time>2007-08-18T10:24:23Z</time></trkpt>
<trkpt lat="46.13852774" lon="7.57137163"><ele>2141.474121</ele><time>2007-08-18T10:24:27Z</time></trkpt>
<trkpt lat="46.13856537" lon="7.57138252"><ele>2141.474121</ele><time>2007-08-18T10:24:28Z</time></trkpt>
<trkpt lat="46.13862899" lon="7.57139795"><ele>2139.55127</ele><time>2007-08-18T10:24:30Z</time></trkpt>
<trkpt lat="46.13874198" lon="7.57132502"><ele>2137.628662</ele><time>2007-08-18T10:24:33Z</time></trkpt>
<trkpt lat="46.13893476" lon="7.57119209"><ele>2131.86084</ele><time>2007-08-18T10:24:37Z</time></trkpt>
<trkpt lat="46.13905764" lon="7.57110768"><ele>2129.45752</ele><time>2007-08-18T10:24:40Z</time></trkpt>
<trkpt lat="46.13911187" lon="7.57101607"><ele>2128.496338</ele><time>2007-08-18T10:24:42Z</time></trkpt>
<trkpt lat="46.13914750" lon="7.57079663"><ele>2129.938232</ele><time>2007-08-18T10:24:47Z</time></trkpt>
<trkpt lat="46.13933726" lon="7.57049245"><ele>2133.302734</ele><time>2007-08-18T10:24:58Z</time></trkpt>
<trkpt lat="46.13977849" lon="7.57021844"><ele>2134.744873</ele><time>2007-08-18T10:25:13Z</time></trkpt>
<trkpt lat="46.13981587" lon="7.57022196"><ele>2133.302734</ele><time>2007-08-18T10:25:14Z</time></trkpt>
<trkpt lat="46.13997127" lon="7.57021325"><ele>2131.86084</ele><time>2007-08-18T10:25:17Z</time></trkpt>
<trkpt lat="46.14004025" lon="7.57020487"><ele>2130.418945</ele><time>2007-08-18T10:25:18Z</time></trkpt>
<trkpt lat="46.14026355" lon="7.57031903"><ele>2127.534912</ele><time>2007-08-18T10:25:22Z</time></trkpt>
<trkpt lat="46.14029682" lon="7.57037854"><ele>2125.131592</ele><time>2007-08-18T10:25:23Z</time></trkpt>
<trkpt lat="46.14034938" lon="7.57049077"><ele>2124.651123</ele><time>2007-08-18T10:25:25Z</time></trkpt>
<trkpt lat="46.14050092" lon="7.57054886"><ele>2118.402344</ele><time>2007-08-18T10:25:29Z</time></trkpt>
<trkpt lat="46.14066512" lon="7.57052279"><ele>2114.557129</ele><time>2007-08-18T10:25:32Z</time></trkpt>
<trkpt lat="46.14078457" lon="7.57042925"><ele>2113.115234</ele><time>2007-08-18T10:25:34Z</time></trkpt>
<trkpt lat="46.14083226" lon="7.57036387"><ele>2113.595703</ele><time>2007-08-18T10:25:35Z</time></trkpt>
<trkpt lat="46.14113795" lon="7.57014980"><ele>2113.595703</ele><time>2007-08-18T10:25:41Z</time></trkpt>
<trkpt lat="46.14143115" lon="7.57018223"><ele>2110.231201</ele><time>2007-08-18T10:25:46Z</time></trkpt>
<trkpt lat="46.14178587" lon="7.57024879"><ele>2106.866455</ele><time>2007-08-18T10:25:50Z</time></trkpt>
<trkpt lat="46.14205769" lon="7.57026413"><ele>2103.982666</ele><time>2007-08-18T10:25:53Z</time></trkpt>
<trkpt lat="46.14240697" lon="7.57032213"><ele>2100.61792</ele><time>2007-08-18T10:25:58Z</time></trkpt>
<trkpt lat="46.14253948" lon="7.57036840"><ele>2100.137451</ele><time>2007-08-18T10:26:00Z</time></trkpt>
<trkpt lat="46.14273788" lon="7.57064936"><ele>2094.850098</ele><time>2007-08-18T10:26:06Z</time></trkpt>
<trkpt lat="46.14276747" lon="7.57071247"><ele>2094.369385</ele><time>2007-08-18T10:26:08Z</time></trkpt>
<trkpt lat="46.14276387" lon="7.57076545"><ele>2091.966064</ele><time>2007-08-18T10:26:10Z</time></trkpt>
<trkpt lat="46.14280879" lon="7.57090358"><ele>2092.92749</ele><time>2007-08-18T10:26:18Z</time></trkpt>
<trkpt lat="46.14314885" lon="7.57105387"><ele>2094.850098</ele><time>2007-08-18T10:26:32Z</time></trkpt>
<trkpt lat="46.14352939" lon="7.57102478"><ele>2096.292236</ele><time>2007-08-18T10:26:44Z</time></trkpt>
<trkpt lat="46.14360684" lon="7.57104649"><ele>2097.253418</ele><time>2007-08-18T10:26:48Z</time></trkpt>
<trkpt lat="46.14396860" lon="7.57106988"><ele>2099.656738</ele><time>2007-08-18T10:27:02Z</time></trkpt>
<trkpt lat="46.14413029" lon="7.57103157"><ele>2097.734131</ele><time>2007-08-18T10:27:06Z</time></trkpt>
<trkpt lat="46.14431075" lon="7.57100735"><ele>2098.695313</ele><time>2007-08-18T10:27:11Z</time></trkpt>
<trkpt lat="46.14440597" lon="7.57098556"><ele>2098.695313</ele><time>2007-08-18T10:27:20Z</time></trkpt>
<trkpt lat="46.14460018" lon="7.57095546"><ele>2098.695313</ele><time>2007-08-18T10:27:33Z</time></trkpt>
<trkpt lat="46.14498373" lon="7.57096234"><ele>2099.656738</ele><time>2007-08-18T10:27:45Z</time></trkpt>
<trkpt lat="46.14505992" lon="7.57096427"><ele>2098.2146</ele><time>2007-08-18T10:27:47Z</time></trkpt>
<trkpt lat="46.14520996" lon="7.57100106"><ele>2098.695313</ele><time>2007-08-18T10:27:51Z</time></trkpt>
<trkpt lat="46.14567356" lon="7.57090769"><ele>2095.811523</ele><time>2007-08-18T10:28:05Z</time></trkpt>
<trkpt lat="46.14576115" lon="7.57087818"><ele>2091.485352</ele><time>2007-08-18T10:28:08Z</time></trkpt>
<trkpt lat="46.14579912" lon="7.57087483"><ele>2091.485352</ele><time>2007-08-18T10:28:09Z</time></trkpt>
<trkpt lat="46.14609886" lon="7.57088288"><ele>2091.485352</ele><time>2007-08-18T10:28:19Z</time></trkpt>
<trkpt lat="46.14644009" lon="7.57066905"><ele>2089.562744</ele><time>2007-08-18T10:28:31Z</time></trkpt>
<trkpt lat="46.14672842" lon="7.57070275"><ele>2087.159424</ele><time>2007-08-18T10:28:45Z</time></trkpt>
<trkpt lat="46.14683043" lon="7.57066243"><ele>2083.794922</ele><time>2007-08-18T10:28:50Z</time></trkpt>
<trkpt lat="46.14696982" lon="7.57063628"><ele>2080.911133</ele><time>2007-08-18T10:28:58Z</time></trkpt>
<trkpt lat="46.14700109" lon="7.57061147"><ele>2078.988281</ele><time>2007-08-18T10:29:03Z</time></trkpt>
<trkpt lat="46.14706454" lon="7.57056445"><ele>2077.065918</ele><time>2007-08-18T10:29:08Z</time></trkpt>
<trkpt lat="46.14713578" lon="7.57054584"><ele>2075.623535</ele><time>2007-08-18T10:29:12Z</time></trkpt>
<trkpt lat="46.14725414" lon="7.57044316"><ele>2071.77832</ele><time>2007-08-18T10:29:17Z</time></trkpt>
<trkpt lat="46.14729093" lon="7.57041056"><ele>2071.77832</ele><time>2007-08-18T10:29:18Z</time></trkpt>
<trkpt lat="46.14745212" lon="7.57027142"><ele>2070.336426</ele><time>2007-08-18T10:29:22Z</time></trkpt>
<trkpt lat="46.14759075" lon="7.57022683"><ele>2068.894531</ele><time>2007-08-18T10:29:25Z</time></trkpt>
<trkpt lat="46.14766552" lon="7.57017310"><ele>2065.049316</ele><time>2007-08-18T10:29:28Z</time></trkpt>
<trkpt lat="46.14769243" lon="7.57015809"><ele>2065.049316</ele><time>2007-08-18T10:29:29Z</time></trkpt>
<trkpt lat="46.14777599" lon="7.57003195"><ele>2062.165283</ele><time>2007-08-18T10:29:34Z</time></trkpt>
<trkpt lat="46.14780416" lon="7.57000814"><ele>2061.684814</ele><time>2007-08-18T10:29:36Z</time></trkpt>
<trkpt lat="46.14782989" lon="7.57000688"><ele>2061.204102</ele><time>2007-08-18T10:29:39Z</time></trkpt>
<trkpt lat="46.14794447" lon="7.56998442"><ele>2058.319824</ele><time>2007-08-18T10:29:50Z</time></trkpt>
<trkpt lat="46.14796442" lon="7.56997487"><ele>2057.358643</ele><time>2007-08-18T10:29:52Z</time></trkpt>
<trkpt lat="46.14801270" lon="7.56997688"><ele>2055.916504</ele><time>2007-08-18T10:29:56Z</time></trkpt>
<trkpt lat="46.14806039" lon="7.57000295"><ele>2052.552002</ele><time>2007-08-18T10:30:06Z</time></trkpt>
<trkpt lat="46.14810188" lon="7.56995399"><ele>2048.706787</ele><time>2007-08-18T10:30:16Z</time></trkpt>
<trkpt lat="46.14811253" lon="7.56987445"><ele>2045.342285</ele><time>2007-08-18T10:30:25Z</time></trkpt>
<trkpt lat="46.14826064" lon="7.56992533"><ele>2041.977539</ele><time>2007-08-18T10:30:35Z</time></trkpt>
<trkpt lat="46.14834244" lon="7.56991150"><ele>2041.016113</ele><time>2007-08-18T10:30:37Z</time></trkpt>
<trkpt lat="46.14843825" lon="7.56990496"><ele>2041.016113</ele><time>2007-08-18T10:30:39Z</time></trkpt>
<trkpt lat="46.14870270" lon="7.56969273"><ele>2039.574219</ele><time>2007-08-18T10:30:46Z</time></trkpt>
<trkpt lat="46.14886774" lon="7.56963297"><ele>2039.093506</ele><time>2007-08-18T10:30:50Z</time></trkpt>
<trkpt lat="46.14901274" lon="7.56961017"><ele>2036.690186</ele><time>2007-08-18T10:30:54Z</time></trkpt>
<trkpt lat="46.14904594" lon="7.56960237"><ele>2035.248291</ele><time>2007-08-18T10:30:55Z</time></trkpt>
<trkpt lat="46.14926336" lon="7.56940540"><ele>2031.883789</ele><time>2007-08-18T10:31:02Z</time></trkpt>
<trkpt lat="46.14934257" lon="7.56918554"><ele>2029.961182</ele><time>2007-08-18T10:31:06Z</time></trkpt>
<trkpt lat="46.14943586" lon="7.56901924"><ele>2029.961182</ele><time>2007-08-18T10:31:10Z</time></trkpt>
<trkpt lat="46.14963862" lon="7.56891103"><ele>2028.999756</ele><time>2007-08-18T10:31:15Z</time></trkpt>
<trkpt lat="46.14988564" lon="7.56878279"><ele>2027.077148</ele><time>2007-08-18T10:31:19Z</time></trkpt>
<trkpt lat="46.15010868" lon="7.56874943"><ele>2024.673828</ele><time>2007-08-18T10:31:23Z</time></trkpt>
<trkpt lat="46.15015889" lon="7.56867148"><ele>2024.193115</ele><time>2007-08-18T10:31:25Z</time></trkpt>
<trkpt lat="46.15025855" lon="7.56846654"><ele>2023.712402</ele><time>2007-08-18T10:31:31Z</time></trkpt>
<trkpt lat="46.15048067" lon="7.56847107"><ele>2023.231934</ele><time>2007-08-18T10:31:36Z</time></trkpt>
<trkpt lat="46.15077236" lon="7.56847174"><ele>2022.751221</ele><time>2007-08-18T10:31:43Z</time></trkpt>
<trkpt lat="46.15103488" lon="7.56832732"><ele>2021.789795</ele><time>2007-08-18T10:31:52Z</time></trkpt>
<trkpt lat="46.15116505" lon="7.56831659"><ele>2019.867188</ele><time>2007-08-18T10:32:00Z</time></trkpt>
<trkpt lat="46.15125113" lon="7.56838247"><ele>2020.3479</ele><time>2007-08-18T10:32:07Z</time></trkpt>
<trkpt lat="46.15141349" lon="7.56836822"><ele>2019.867188</ele><time>2007-08-18T10:32:12Z</time></trkpt>
<trkpt lat="46.15147057" lon="7.56825549"><ele>2020.3479</ele><time>2007-08-18T10:32:17Z</time></trkpt>
<trkpt lat="46.15155523" lon="7.56822992"><ele>2019.386719</ele><time>2007-08-18T10:32:21Z</time></trkpt>
<trkpt lat="46.15163444" lon="7.56824040"><ele>2017.463867</ele><time>2007-08-18T10:32:27Z</time></trkpt>
<trkpt lat="46.15172806" lon="7.56829597"><ele>2017.94458</ele><time>2007-08-18T10:32:33Z</time></trkpt>
<trkpt lat="46.15195018" lon="7.56833763"><ele>2017.463867</ele><time>2007-08-18T10:32:40Z</time></trkpt>
<trkpt lat="46.15214028" lon="7.56842799"><ele>2016.021973</ele><time>2007-08-18T10:32:49Z</time></trkpt>
<trkpt lat="46.15241714" lon="7.56845229"><ele>2014.099365</ele><time>2007-08-18T10:32:57Z</time></trkpt>
<trkpt lat="46.15297789" lon="7.56834995"><ele>2011.696045</ele><time>2007-08-18T10:33:09Z</time></trkpt>
<trkpt lat="46.15321602" lon="7.56831508"><ele>2009.773193</ele><time>2007-08-18T10:33:14Z</time></trkpt>
<trkpt lat="46.15350109" lon="7.56812372"><ele>2009.773193</ele><time>2007-08-18T10:33:21Z</time></trkpt>
<trkpt lat="46.15369219" lon="7.56800193"><ele>2008.812012</ele><time>2007-08-18T10:33:25Z</time></trkpt>
<trkpt lat="46.15383888" lon="7.56781954"><ele>2009.292725</ele><time>2007-08-18T10:33:29Z</time></trkpt>
<trkpt lat="46.15389906" lon="7.56767814"><ele>2007.85083</ele><time>2007-08-18T10:33:32Z</time></trkpt>
<trkpt lat="46.15415068" lon="7.56746910"><ele>2008.812012</ele><time>2007-08-18T10:33:40Z</time></trkpt>
<trkpt lat="46.15420743" lon="7.56738905"><ele>2009.292725</ele><time>2007-08-18T10:33:42Z</time></trkpt>
<trkpt lat="46.15430558" lon="7.56730163"><ele>2010.734619</ele><time>2007-08-18T10:33:45Z</time></trkpt>
<trkpt lat="46.15433525" lon="7.56727028"><ele>2010.253906</ele><time>2007-08-18T10:33:46Z</time></trkpt>
<trkpt lat="46.15450834" lon="7.56718646"><ele>2008.331299</ele><time>2007-08-18T10:33:50Z</time></trkpt>
<trkpt lat="46.15507118" lon="7.56680248"><ele>2004.486084</ele><time>2007-08-18T10:34:00Z</time></trkpt>
<trkpt lat="46.15511963" lon="7.56675546"><ele>2003.044189</ele><time>2007-08-18T10:34:01Z</time></trkpt>
<trkpt lat="46.15529079" lon="7.56662219"><ele>1998.237549</ele><time>2007-08-18T10:34:05Z</time></trkpt>
<trkpt lat="46.15533052" lon="7.56658556"><ele>1997.75708</ele><time>2007-08-18T10:34:06Z</time></trkpt>
<trkpt lat="46.15547804" lon="7.56647089"><ele>1995.834229</ele><time>2007-08-18T10:34:09Z</time></trkpt>
<trkpt lat="46.15556790" lon="7.56638045"><ele>1992.950195</ele><time>2007-08-18T10:34:11Z</time></trkpt>
<trkpt lat="46.15568893" lon="7.56613822"><ele>1991.508301</ele><time>2007-08-18T10:34:15Z</time></trkpt>
<trkpt lat="46.15582706" lon="7.56589330"><ele>1990.066406</ele><time>2007-08-18T10:34:19Z</time></trkpt>
<trkpt lat="46.15599688" lon="7.56568065"><ele>1989.10498</ele><time>2007-08-18T10:34:23Z</time></trkpt>
<trkpt lat="46.15629142" lon="7.56544227"><ele>1986.70166</ele><time>2007-08-18T10:34:28Z</time></trkpt>
<trkpt lat="46.15638915" lon="7.56531847"><ele>1985.740479</ele><time>2007-08-18T10:34:30Z</time></trkpt>
<trkpt lat="46.15646937" lon="7.56506332"><ele>1985.740479</ele><time>2007-08-18T10:34:33Z</time></trkpt>
<trkpt lat="46.15656853" lon="7.56473685"><ele>1980.934082</ele><time>2007-08-18T10:34:37Z</time></trkpt>
<trkpt lat="46.15669560" lon="7.56436494"><ele>1977.569092</ele><time>2007-08-18T10:34:42Z</time></trkpt>
<trkpt lat="46.15677238" lon="7.56418716"><ele>1973.723877</ele><time>2007-08-18T10:34:45Z</time></trkpt>
<trkpt lat="46.15679936" lon="7.56408826"><ele>1973.243408</ele><time>2007-08-18T10:34:47Z</time></trkpt>
<trkpt lat="46.15681537" lon="7.56403847"><ele>1972.762695</ele><time>2007-08-18T10:34:48Z</time></trkpt>
<trkpt lat="46.15684706" lon="7.56392850"><ele>1971.320557</ele><time>2007-08-18T10:34:50Z</time></trkpt>
<trkpt lat="46.15690649" lon="7.56390679"><ele>1969.398193</ele><time>2007-08-18T10:34:53Z</time></trkpt>
<trkpt lat="46.15688805" lon="7.56399513"><ele>1969.398193</ele><time>2007-08-18T10:34:55Z</time></trkpt>
<trkpt lat="46.15684245" lon="7.56421155"><ele>1966.033447</ele><time>2007-08-18T10:35:00Z</time></trkpt>
<trkpt lat="46.15680632" lon="7.56442043"><ele>1963.629883</ele><time>2007-08-18T10:35:04Z</time></trkpt>
<trkpt lat="46.15676383" lon="7.56464263"><ele>1960.746094</ele><time>2007-08-18T10:35:08Z</time></trkpt>
<trkpt lat="46.15676416" lon="7.56469754"><ele>1960.265381</ele><time>2007-08-18T10:35:09Z</time></trkpt>
<trkpt lat="46.15692560" lon="7.56472754"><ele>1957.862305</ele><time>2007-08-18T10:35:14Z</time></trkpt>
<trkpt lat="46.15700087" lon="7.56464406"><ele>1955.939453</ele><time>2007-08-18T10:35:16Z</time></trkpt>
<trkpt lat="46.15714034" lon="7.56445857"><ele>1951.61377</ele><time>2007-08-18T10:35:21Z</time></trkpt>
<trkpt lat="46.15721318" lon="7.56433795"><ele>1948.249023</ele><time>2007-08-18T10:35:24Z</time></trkpt>
<trkpt lat="46.15725718" lon="7.56426796"><ele>1947.768311</ele><time>2007-08-18T10:35:26Z</time></trkpt>
<trkpt lat="46.15732047" lon="7.56419295"><ele>1946.326416</ele><time>2007-08-18T10:35:29Z</time></trkpt>
<trkpt lat="46.15743480" lon="7.56407065"><ele>1943.442383</ele><time>2007-08-18T10:35:33Z</time></trkpt>
<trkpt lat="46.15758969" lon="7.56391643"><ele>1940.077881</ele><time>2007-08-18T10:35:39Z</time></trkpt>
<trkpt lat="46.15774627" lon="7.56378734"><ele>1936.713135</ele><time>2007-08-18T10:35:44Z</time></trkpt>
<trkpt lat="46.15777653" lon="7.56375147"><ele>1936.713135</ele><time>2007-08-18T10:35:45Z</time></trkpt>
<trkpt lat="46.15790167" lon="7.56360797"><ele>1933.348633</ele><time>2007-08-18T10:35:49Z</time></trkpt>
<trkpt lat="46.15802815" lon="7.56345710"><ele>1930.4646</ele><time>2007-08-18T10:35:54Z</time></trkpt>
<trkpt lat="46.15810786" lon="7.56338468"><ele>1928.541992</ele><time>2007-08-18T10:35:57Z</time></trkpt>
<trkpt lat="46.15827190" lon="7.56325250"><ele>1925.177246</ele><time>2007-08-18T10:36:03Z</time></trkpt>
<trkpt lat="46.15844607" lon="7.56310179"><ele>1920.851563</ele><time>2007-08-18T10:36:09Z</time></trkpt>
<trkpt lat="46.15847734" lon="7.56307279"><ele>1921.332031</ele><time>2007-08-18T10:36:10Z</time></trkpt>
<trkpt lat="46.15853425" lon="7.56302099"><ele>1918.448242</ele><time>2007-08-18T10:36:12Z</time></trkpt>
<trkpt lat="46.15874824" lon="7.56286693"><ele>1915.564209</ele><time>2007-08-18T10:36:19Z</time></trkpt>
<trkpt lat="46.15887942" lon="7.56273994"><ele>1912.680176</ele><time>2007-08-18T10:36:23Z</time></trkpt>
<trkpt lat="46.15901504" lon="7.56266953"><ele>1908.834961</ele><time>2007-08-18T10:36:27Z</time></trkpt>
<trkpt lat="46.15904865" lon="7.56264389"><ele>1908.354248</ele><time>2007-08-18T10:36:28Z</time></trkpt>
<trkpt lat="46.15917748" lon="7.56253174"><ele>1904.989746</ele><time>2007-08-18T10:36:32Z</time></trkpt>
<trkpt lat="46.15920346" lon="7.56249963"><ele>1905.470459</ele><time>2007-08-18T10:36:33Z</time></trkpt>
<trkpt lat="46.15925233" lon="7.56244507"><ele>1904.028564</ele><time>2007-08-18T10:36:35Z</time></trkpt>
<trkpt lat="46.15933372" lon="7.56238363"><ele>1901.625244</ele><time>2007-08-18T10:36:38Z</time></trkpt>
<trkpt lat="46.15942223" lon="7.56231733"><ele>1900.18335</ele><time>2007-08-18T10:36:41Z</time></trkpt>
<trkpt lat="46.15955785" lon="7.56223493"><ele>1896.818359</ele><time>2007-08-18T10:36:45Z</time></trkpt>
<trkpt lat="46.15948903" lon="7.56244968"><ele>1892.973145</ele><time>2007-08-18T10:36:52Z</time></trkpt>
<trkpt lat="46.15942609" lon="7.56261815"><ele>1891.050537</ele><time>2007-08-18T10:36:56Z</time></trkpt>
<trkpt lat="46.15937194" lon="7.56279300"><ele>1889.12793</ele><time>2007-08-18T10:37:00Z</time></trkpt>
<trkpt lat="46.15933112" lon="7.56288537"><ele>1887.686035</ele><time>2007-08-18T10:37:02Z</time></trkpt>
<trkpt lat="46.15946825" lon="7.56286534"><ele>1884.321533</ele><time>2007-08-18T10:37:08Z</time></trkpt>
<trkpt lat="46.15954997" lon="7.56282158"><ele>1882.87915</ele><time>2007-08-18T10:37:10Z</time></trkpt>
<trkpt lat="46.15966086" lon="7.56276827"><ele>1880.476074</ele><time>2007-08-18T10:37:13Z</time></trkpt>
<trkpt lat="46.15974644" lon="7.56272159"><ele>1879.033936</ele><time>2007-08-18T10:37:15Z</time></trkpt>
<trkpt lat="46.15985272" lon="7.56272913"><ele>1876.630859</ele><time>2007-08-18T10:37:19Z</time></trkpt>
<trkpt lat="46.15980210" lon="7.56281094"><ele>1875.188721</ele><time>2007-08-18T10:37:21Z</time></trkpt>
<trkpt lat="46.15975432" lon="7.56286542"><ele>1874.708252</ele><time>2007-08-18T10:37:23Z</time></trkpt>
<trkpt lat="46.15967335" lon="7.56300456"><ele>1872.304932</ele><time>2007-08-18T10:37:28Z</time></trkpt>
<trkpt lat="46.15964670" lon="7.56311319"><ele>1871.343506</ele><time>2007-08-18T10:37:30Z</time></trkpt>
<trkpt lat="46.15960093" lon="7.56326473"><ele>1868.459717</ele><time>2007-08-18T10:37:33Z</time></trkpt>
<trkpt lat="46.15963329" lon="7.56331377"><ele>1867.97876</ele><time>2007-08-18T10:37:35Z</time></trkpt>
<trkpt lat="46.15977008" lon="7.56318938"><ele>1865.094971</ele><time>2007-08-18T10:37:39Z</time></trkpt>
<trkpt lat="46.15993059" lon="7.56317220"><ele>1862.69165</ele><time>2007-08-18T10:37:43Z</time></trkpt>
<trkpt lat="46.16007719" lon="7.56315367"><ele>1858.846436</ele><time>2007-08-18T10:37:48Z</time></trkpt>
<trkpt lat="46.16006613" lon="7.56319860"><ele>1859.327148</ele><time>2007-08-18T10:37:49Z</time></trkpt>
<trkpt lat="46.16000586" lon="7.56326993"><ele>1858.365723</ele><time>2007-08-18T10:37:51Z</time></trkpt>
<trkpt lat="46.15995104" lon="7.56334780"><ele>1856.923828</ele><time>2007-08-18T10:37:53Z</time></trkpt>
<trkpt lat="46.15987058" lon="7.56361116"><ele>1854.040039</ele><time>2007-08-18T10:37:58Z</time></trkpt>
<trkpt lat="46.15985826" lon="7.56366212"><ele>1852.5979</ele><time>2007-08-18T10:37:59Z</time></trkpt>
<trkpt lat="46.15975432" lon="7.56384585"><ele>1849.713867</ele><time>2007-08-18T10:38:03Z</time></trkpt>
<trkpt lat="46.15988013" lon="7.56386664"><ele>1844.907227</ele><time>2007-08-18T10:38:10Z</time></trkpt>
<trkpt lat="46.15991668" lon="7.56385733"><ele>1844.426514</ele><time>2007-08-18T10:38:11Z</time></trkpt>
<trkpt lat="46.16005456" lon="7.56379975"><ele>1841.542725</ele><time>2007-08-18T10:38:15Z</time></trkpt>
<trkpt lat="46.16009312" lon="7.56378056"><ele>1841.542725</ele><time>2007-08-18T10:38:16Z</time></trkpt>
<trkpt lat="46.16028892" lon="7.56370294"><ele>1838.178223</ele><time>2007-08-18T10:38:21Z</time></trkpt>
<trkpt lat="46.16032915" lon="7.56370998"><ele>1838.178223</ele><time>2007-08-18T10:38:22Z</time></trkpt>
<trkpt lat="46.16036804" lon="7.56372062"><ele>1837.216797</ele><time>2007-08-18T10:38:23Z</time></trkpt>
<trkpt lat="46.16035564" lon="7.56387753"><ele>1834.813477</ele><time>2007-08-18T10:38:27Z</time></trkpt>
<trkpt lat="46.16023905" lon="7.56417098"><ele>1830.487549</ele><time>2007-08-18T10:38:32Z</time></trkpt>
<trkpt lat="46.16018792" lon="7.56428154"><ele>1828.564941</ele><time>2007-08-18T10:38:34Z</time></trkpt>
<trkpt lat="46.16007392" lon="7.56454255"><ele>1825.680908</ele><time>2007-08-18T10:38:39Z</time></trkpt>
<trkpt lat="46.15999756" lon="7.56474146"><ele>1821.35498</ele><time>2007-08-18T10:38:43Z</time></trkpt>
<trkpt lat="46.15996278" lon="7.56494673"><ele>1817.509521</ele><time>2007-08-18T10:38:47Z</time></trkpt>
<trkpt lat="46.15992062" lon="7.56508419"><ele>1815.106445</ele><time>2007-08-18T10:38:50Z</time></trkpt>
<trkpt lat="46.15989137" lon="7.56519777"><ele>1814.14502</ele><time>2007-08-18T10:38:52Z</time></trkpt>
<trkpt lat="46.15985557" lon="7.56534135"><ele>1812.703125</ele><time>2007-08-18T10:38:55Z</time></trkpt>
<trkpt lat="46.15976882" lon="7.56560354"><ele>1810.780518</ele><time>2007-08-18T10:39:01Z</time></trkpt>
<trkpt lat="46.15987343" lon="7.56579297"><ele>1808.377197</ele><time>2007-08-18T10:39:06Z</time></trkpt>
<trkpt lat="46.15995825" lon="7.56587553"><ele>1808.377197</ele><time>2007-08-18T10:39:08Z</time></trkpt>
<trkpt lat="46.16024978" lon="7.56606957"><ele>1805.973877</ele><time>2007-08-18T10:39:13Z</time></trkpt>
<trkpt lat="46.16043535" lon="7.56615414"><ele>1803.089844</ele><time>2007-08-18T10:39:16Z</time></trkpt>
<trkpt lat="46.16070667" lon="7.56620184"><ele>1799.244629</ele><time>2007-08-18T10:39:20Z</time></trkpt>
<trkpt lat="46.16086920" lon="7.56622019"><ele>1794.918701</ele><time>2007-08-18T10:39:22Z</time></trkpt>
<trkpt lat="46.16109459" lon="7.56626688"><ele>1791.073486</ele><time>2007-08-18T10:39:25Z</time></trkpt>
<trkpt lat="46.16133054" lon="7.56628272"><ele>1786.266846</ele><time>2007-08-18T10:39:29Z</time></trkpt>
<trkpt lat="46.16143749" lon="7.56630284"><ele>1782.9021</ele><time>2007-08-18T10:39:31Z</time></trkpt>
<trkpt lat="46.16154855" lon="7.56632078"><ele>1780.979736</ele><time>2007-08-18T10:39:33Z</time></trkpt>
<trkpt lat="46.16171594" lon="7.56632589"><ele>1778.576416</ele><time>2007-08-18T10:39:36Z</time></trkpt>
<trkpt lat="46.16186849" lon="7.56633620"><ele>1775.21167</ele><time>2007-08-18T10:39:39Z</time></trkpt>
<trkpt lat="46.16203872" lon="7.56637844"><ele>1771.366211</ele><time>2007-08-18T10:39:42Z</time></trkpt>
<trkpt lat="46.16227518" lon="7.56644365"><ele>1768.001709</ele><time>2007-08-18T10:39:46Z</time></trkpt>
<trkpt lat="46.16242739" lon="7.56649705"><ele>1766.559814</ele><time>2007-08-18T10:39:49Z</time></trkpt>
<trkpt lat="46.16263359" lon="7.56662562"><ele>1761.272705</ele><time>2007-08-18T10:39:53Z</time></trkpt>
<trkpt lat="46.16269025" lon="7.56663904"><ele>1761.272705</ele><time>2007-08-18T10:39:54Z</time></trkpt>
<trkpt lat="46.16279435" lon="7.56665999"><ele>1759.830566</ele><time>2007-08-18T10:39:56Z</time></trkpt>
<trkpt lat="46.16292779" lon="7.56667055"><ele>1757.42749</ele><time>2007-08-18T10:39:58Z</time></trkpt>
<trkpt lat="46.16300164" lon="7.56666929"><ele>1756.466064</ele><time>2007-08-18T10:39:59Z</time></trkpt>
<trkpt lat="46.16314740" lon="7.56663376"><ele>1755.023926</ele><time>2007-08-18T10:40:01Z</time></trkpt>
<trkpt lat="46.16335435" lon="7.56657835"><ele>1751.659424</ele><time>2007-08-18T10:40:04Z</time></trkpt>
<trkpt lat="46.16361553" lon="7.56653518"><ele>1746.372314</ele><time>2007-08-18T10:40:08Z</time></trkpt>
<trkpt lat="46.16374536" lon="7.56650425"><ele>1744.930176</ele><time>2007-08-18T10:40:10Z</time></trkpt>
<trkpt lat="46.16381485" lon="7.56648598"><ele>1742.5271</ele><time>2007-08-18T10:40:11Z</time></trkpt>
<trkpt lat="46.16407955" lon="7.56647618"><ele>1739.162109</ele><time>2007-08-18T10:40:15Z</time></trkpt>
<trkpt lat="46.16434827" lon="7.56649084"><ele>1734.836426</ele><time>2007-08-18T10:40:19Z</time></trkpt>
<trkpt lat="46.16460820" lon="7.56648422"><ele>1730.510498</ele><time>2007-08-18T10:40:23Z</time></trkpt>
<trkpt lat="46.16476142" lon="7.56646402"><ele>1729.068359</ele><time>2007-08-18T10:40:26Z</time></trkpt>
<trkpt lat="46.16487877" lon="7.56648213"><ele>1727.145996</ele><time>2007-08-18T10:40:29Z</time></trkpt>
<trkpt lat="46.16501908" lon="7.56647215"><ele>1724.261963</ele><time>2007-08-18T10:40:33Z</time></trkpt>
<trkpt lat="46.16506074" lon="7.56648338"><ele>1723.781006</ele><time>2007-08-18T10:40:34Z</time></trkpt>
<trkpt lat="46.16519879" lon="7.56657726"><ele>1721.858398</ele><time>2007-08-18T10:40:37Z</time></trkpt>
<trkpt lat="46.16532133" lon="7.56667625"><ele>1718.493896</ele><time>2007-08-18T10:40:40Z</time></trkpt>
<trkpt lat="46.16543029" lon="7.56677063"><ele>1716.571289</ele><time>2007-08-18T10:40:43Z</time></trkpt>
<trkpt lat="46.16582584" lon="7.56684238"><ele>1711.28418</ele><time>2007-08-18T10:40:50Z</time></trkpt>
<trkpt lat="46.16625449" lon="7.56707188"><ele>1705.996582</ele><time>2007-08-18T10:40:56Z</time></trkpt>
<trkpt lat="46.16640008" lon="7.56713382"><ele>1702.63208</ele><time>2007-08-18T10:40:58Z</time></trkpt>
<trkpt lat="46.16655573" lon="7.56720750"><ele>1698.786865</ele><time>2007-08-18T10:41:00Z</time></trkpt>
<trkpt lat="46.16676302" lon="7.56735066"><ele>1694.94165</ele><time>2007-08-18T10:41:03Z</time></trkpt>
<trkpt lat="46.16701925" lon="7.56763229"><ele>1688.693115</ele><time>2007-08-18T10:41:07Z</time></trkpt>
<trkpt lat="46.16712889" lon="7.56776732"><ele>1687.250977</ele><time>2007-08-18T10:41:09Z</time></trkpt>
<trkpt lat="46.16723986" lon="7.56789255"><ele>1683.405762</ele><time>2007-08-18T10:41:11Z</time></trkpt>
<trkpt lat="46.16739677" lon="7.56809162"><ele>1679.560547</ele><time>2007-08-18T10:41:14Z</time></trkpt>
<trkpt lat="46.16750414" lon="7.56820897"><ele>1678.118652</ele><time>2007-08-18T10:41:16Z</time></trkpt>
<trkpt lat="46.16769190" lon="7.56838893"><ele>1672.831299</ele><time>2007-08-18T10:41:20Z</time></trkpt>
<trkpt lat="46.16774177" lon="7.56844056"><ele>1671.38916</ele><time>2007-08-18T10:41:21Z</time></trkpt>
<trkpt lat="46.16784906" lon="7.56853284"><ele>1668.505371</ele><time>2007-08-18T10:41:24Z</time></trkpt>
<trkpt lat="46.16789474" lon="7.56856536"><ele>1668.024658</ele><time>2007-08-18T10:41:25Z</time></trkpt>
<trkpt lat="46.16809406" lon="7.56878816"><ele>1664.179443</ele><time>2007-08-18T10:41:29Z</time></trkpt>
<trkpt lat="46.16814989" lon="7.56884725"><ele>1663.69873</ele><time>2007-08-18T10:41:30Z</time></trkpt>
<trkpt lat="46.16827662" lon="7.56895747"><ele>1660.334229</ele><time>2007-08-18T10:41:32Z</time></trkpt>
<trkpt lat="46.16839346" lon="7.56905168"><ele>1657.930908</ele><time>2007-08-18T10:41:34Z</time></trkpt>
<trkpt lat="46.16857770" lon="7.56918789"><ele>1653.60498</ele><time>2007-08-18T10:41:37Z</time></trkpt>
<trkpt lat="46.16881457" lon="7.56930037"><ele>1649.279053</ele><time>2007-08-18T10:41:41Z</time></trkpt>
<trkpt lat="46.16898414" lon="7.56936667"><ele>1644.953125</ele><time>2007-08-18T10:41:44Z</time></trkpt>
<trkpt lat="46.16916276" lon="7.56942459"><ele>1641.588379</ele><time>2007-08-18T10:41:47Z</time></trkpt>
<trkpt lat="46.16928597" lon="7.56946072"><ele>1639.185059</ele><time>2007-08-18T10:41:49Z</time></trkpt>
<trkpt lat="46.16961085" lon="7.56947983"><ele>1634.378662</ele><time>2007-08-18T10:41:53Z</time></trkpt>
<trkpt lat="46.16978830" lon="7.56948167"><ele>1632.456055</ele><time>2007-08-18T10:41:55Z</time></trkpt>
<trkpt lat="46.17001662" lon="7.56941454"><ele>1631.01416</ele><time>2007-08-18T10:41:58Z</time></trkpt>
<trkpt lat="46.17020790" lon="7.56947924"><ele>1629.091309</ele><time>2007-08-18T10:42:01Z</time></trkpt>
<trkpt lat="46.17025450" lon="7.56956206"><ele>1628.61084</ele><time>2007-08-18T10:42:02Z</time></trkpt>
<trkpt lat="46.17050554" lon="7.56990823"><ele>1625.24585</ele><time>2007-08-18T10:42:06Z</time></trkpt>
<trkpt lat="46.17063965" lon="7.57001074"><ele>1623.803955</ele><time>2007-08-18T10:42:08Z</time></trkpt>
<trkpt lat="46.17089890" lon="7.57021048"><ele>1621.881348</ele><time>2007-08-18T10:42:12Z</time></trkpt>
<trkpt lat="46.17099294" lon="7.57036387"><ele>1621.400635</ele><time>2007-08-18T10:42:14Z</time></trkpt>
<trkpt lat="46.17110878" lon="7.57085413"><ele>1620.439453</ele><time>2007-08-18T10:42:19Z</time></trkpt>
<trkpt lat="46.17144573" lon="7.57129242"><ele>1618.516846</ele><time>2007-08-18T10:42:24Z</time></trkpt>
<trkpt lat="46.17161865" lon="7.57142929"><ele>1618.997559</ele><time>2007-08-18T10:42:26Z</time></trkpt>
<trkpt lat="46.17242550" lon="7.57196129"><ele>1613.710205</ele><time>2007-08-18T10:42:36Z</time></trkpt>
<trkpt lat="46.17279698" lon="7.57199608"><ele>1612.268311</ele><time>2007-08-18T10:42:41Z</time></trkpt>
<trkpt lat="46.17304659" lon="7.57178796"><ele>1611.787598</ele><time>2007-08-18T10:42:49Z</time></trkpt>
</trkseg></trk></gpx>